| time (UTC) | temp F | wind direction | speed MPH | gust MPH | rain 1hr in | rain 24hr in | rain mn in | humidity % | barometer mb |
| 20260509064543 | 68 | 357 | 1.0 | 2.0 | 0.00 | 0.29 | 0.00 | 93 | 1010.6 |
| 20260509064511 | 68 | 357 | 0.0 | 2.0 | 0.00 | 0.29 | 0.00 | 93 | 1010.6 |
| 20260509064442 | 68 | 357 | 0.0 | 3.0 | 0.00 | 0.29 | 0.00 | 93 | 1010.6 |
| 20260509064340 | 68 | 357 | 0.0 | 3.0 | 0.00 | 0.29 | 0.00 | 93 | 1010.7 |
| 20260509064237 | 68 | 357 | 1.0 | 3.0 | 0.00 | 0.29 | 0.00 | 93 | 1010.6 |
| 20260509064138 | 68 | 357 | 1.0 | 3.0 | 0.00 | 0.29 | 0.00 | 93 | 1010.7 |
| 20260509064009 | 68 | 357 | 1.0 | 3.0 | 0.00 | 0.29 | 0.00 | 93 | 1010.7 |
| 20260509063932 | 68 | 357 | 1.0 | 3.0 | 0.00 | 0.29 | 0.00 | 93 | 1010.8 |
| 20260509063827 | 68 | 357 | 1.0 | 3.0 | 0.00 | 0.29 | 0.00 | 93 | 1010.7 |
| 20260509063726 | 68 | 357 | 1.0 | 3.0 | 0.00 | 0.29 | 0.00 | 93 | 1010.7 |
| 20260509063625 | 68 | 357 | 2.0 | 3.0 | 0.00 | 0.29 | 0.00 | 93 | 1010.7 |
| 20260509063509 | 68 | 357 | 2.0 | 3.0 | 0.00 | 0.29 | 0.00 | 93 | 1010.8 |
| 20260509063435 | 68 | 0 | 2.0 | 4.0 | 0.00 | 0.29 | 0.00 | 93 | 1010.7 |
| 20260509063426 | 68 | 345 | 1.0 | 3.0 | 0.00 | 0.29 | 0.00 | 93 | 1010.9 |
| 20260509063356 | 68 | 345 | 1.0 | 4.0 | 0.00 | 0.29 | 0.00 | 93 | 1010.8 |
| 20260509063325 | 68 | 345 | 2.0 | 4.0 | 0.00 | 0.29 | 0.00 | 93 | 1010.7 |
| 20260509063254 | 68 | 345 | 2.0 | 4.0 | 0.00 | 0.29 | 0.00 | 93 | 1010.7 |
| 20260509063222 | 68 | 0 | 2.0 | 4.0 | 0.00 | 0.29 | 0.00 | 93 | 1010.7 |
| 20260509062913 | 68 | 0 | 2.0 | 4.0 | 0.00 | 0.29 | 0.00 | 93 | 1010.6 |
| 20260509062814 | 68 | 354 | 2.0 | 4.0 | 0.00 | 0.29 | 0.00 | 93 | 1010.6 |
| 20260509062712 | 68 | 353 | 2.0 | 4.0 | 0.00 | 0.29 | 0.00 | 93 | 1010.5 |
| 20260509062610 | 68 | 313 | 2.0 | 4.0 | 0.00 | 0.29 | 0.00 | 93 | 1010.4 |
| 20260509062509 | 68 | 281 | 2.0 | 5.0 | 0.00 | 0.29 | 0.00 | 93 | 1010.4 |
| 20260509062406 | 68 | 279 | 2.0 | 5.0 | 0.00 | 0.29 | 0.00 | 93 | 1010.4 |
| 20260509062306 | 68 | 292 | 2.0 | 5.0 | 0.00 | 0.29 | 0.00 | 93 | 1010.4 |
| 20260509062206 | 68 | 292 | 2.0 | 5.0 | 0.00 | 0.29 | 0.00 | 93 | 1010.4 |
| 20260509062104 | 68 | 223 | 2.0 | 5.0 | 0.00 | 0.29 | 0.00 | 93 | 1010.2 |
| 20260509062008 | 68 | 203 | 2.0 | 5.0 | 0.00 | 0.29 | 0.00 | 93 | 1010.1 |
| 20260509062002 | 68 | 203 | 2.0 | 5.0 | 0.00 | 0.29 | 0.00 | 93 | 1010.1 |
| 20260509061857 | 68 | 203 | 2.0 | 5.0 | 0.00 | 0.29 | 0.00 | 93 | 1010.0 |
| 20260509061756 | 68 | 202 | 2.0 | 5.0 | 0.00 | 0.29 | 0.00 | 93 | 1009.9 |
| 20260509061655 | 68 | 195 | 2.0 | 5.0 | 0.00 | 0.29 | 0.00 | 93 | 1009.8 |
| 20260509061554 | 68 | 197 | 3.0 | 5.0 | 0.00 | 0.29 | 0.00 | 93 | 1009.8 |
| 20260509061509 | 68 | 202 | 3.0 | 5.0 | 0.00 | 0.29 | 0.00 | 93 | 1009.8 |
| 20260509061455 | 68 | 203 | 3.0 | 5.0 | 0.00 | 0.29 | 0.00 | 93 | 1009.8 |
| 20260509061355 | 68 | 216 | 3.0 | 5.0 | 0.00 | 0.29 | 0.00 | 93 | 1009.9 |
| 20260509061255 | 68 | 193 | 2.0 | 5.0 | 0.00 | 0.29 | 0.00 | 93 | 1009.8 |
| 20260509061156 | 68 | 207 | 3.0 | 5.0 | 0.00 | 0.29 | 0.00 | 93 | 1009.8 |
| 20260509061054 | 68 | 202 | 3.0 | 6.0 | 0.00 | 0.29 | 0.00 | 93 | 1009.8 |
| 20260509061007 | 68 | 206 | 3.0 | 6.0 | 0.00 | 0.29 | 0.00 | 93 | 1009.7 |
| 20260509060955 | 68 | 209 | 3.0 | 6.0 | 0.00 | 0.29 | 0.00 | 93 | 1009.7 |
| 20260509060855 | 68 | 195 | 3.0 | 6.0 | 0.00 | 0.29 | 0.00 | 93 | 1009.7 |
| 20260509060755 | 68 | 200 | 3.0 | 6.0 | 0.00 | 0.29 | 0.00 | 93 | 1009.7 |
| 20260509060655 | 68 | 206 | 3.0 | 6.0 | 0.00 | 0.29 | 0.00 | 93 | 1009.6 |
| 20260509060554 | 68 | 193 | 3.0 | 6.0 | 0.00 | 0.29 | 0.00 | 93 | 1009.5 |
| 20260509060504 | 68 | 175 | 3.0 | 6.0 | 0.00 | 0.29 | 0.00 | 93 | 1009.6 |
| 20260509060455 | 68 | 165 | 3.0 | 6.0 | 0.00 | 0.29 | 0.00 | 93 | 1009.6 |
| 20260509060356 | 68 | 183 | 2.0 | 6.0 | 0.00 | 0.29 | 0.00 | 93 | 1009.6 |
| 20260509060252 | 68 | 192 | 3.0 | 6.0 | 0.00 | 0.29 | 0.00 | 93 | 1009.6 |
| 20260509060153 | 68 | 196 | 3.0 | 6.0 | 0.00 | 0.29 | 0.00 | 93 | 1009.6 |
| 20260509060053 | 68 | 180 | 2.0 | 6.0 | 0.00 | 0.29 | 0.00 | 93 | 1009.6 |
| 20260509060005 | 68 | 169 | 3.0 | 6.0 | 0.00 | 0.29 | 0.00 | 93 | 1009.6 |
| 20260509055950 | 68 | 180 | 3.0 | 6.0 | 0.00 | 0.29 | 0.00 | 93 | 1009.6 |
| 20260509055912 | 68 | 200 | 2.0 | 5.0 | 0.00 | 0.29 | 0.00 | 93 | 1009.6 |
| 20260509055859 | 68 | 185 | 3.0 | 6.0 | 0.00 | 0.29 | 0.00 | 93 | 1009.7 |
| 20260509055829 | 68 | 179 | 3.0 | 6.0 | 0.00 | 0.29 | 0.00 | 93 | 1009.6 |
| 20260509055759 | 68 | 199 | 2.0 | 5.0 | 0.00 | 0.29 | 0.00 | 93 | 1009.6 |
| 20260509055727 | 68 | 192 | 2.0 | 5.0 | 0.00 | 0.29 | 0.00 | 93 | 1009.6 |
| 20260509055443 | 68 | 176 | 2.0 | 5.0 | 0.00 | 0.29 | 0.00 | 93 | 1009.6 |
| 20260509055340 | 68 | 162 | 2.0 | 5.0 | 0.00 | 0.29 | 0.00 | 93 | 1009.6 |
| 20260509055238 | 68 | 173 | 2.0 | 5.0 | 0.00 | 0.29 | 0.00 | 93 | 1009.5 |
| 20260509055137 | 68 | 169 | 2.0 | 4.0 | 0.00 | 0.29 | 0.00 | 93 | 1009.6 |
| 20260509055035 | 68 | 164 | 2.0 | 4.0 | 0.00 | 0.29 | 0.00 | 93 | 1009.5 |
| 20260509055003 | 68 | 164 | 3.0 | 4.0 | 0.00 | 0.29 | 0.00 | 93 | 1009.5 |
| 20260509054935 | 68 | 162 | 2.0 | 4.0 | 0.00 | 0.29 | 0.00 | 93 | 1009.5 |
| 20260509054834 | 68 | 188 | 2.0 | 4.0 | 0.00 | 0.29 | 0.00 | 93 | 1009.6 |
| 20260509054734 | 68 | 164 | 2.0 | 4.0 | 0.00 | 0.29 | 0.00 | 93 | 1009.6 |
| 20260509054634 | 68 | 175 | 2.0 | 4.0 | 0.00 | 0.29 | 0.00 | 93 | 1009.6 |
| 20260509054501 | 68 | 161 | 2.0 | 4.0 | 0.00 | 0.29 | 0.00 | 93 | 1009.7 |
| 20260509054434 | 68 | 161 | 2.0 | 4.0 | 0.00 | 0.29 | 0.00 | 93 | 1009.7 |
| 20260509054335 | 68 | 168 | 1.0 | 4.0 | 0.00 | 0.29 | 0.00 | 93 | 1009.8 |
| 20260509054235 | 68 | 168 | 1.0 | 4.0 | 0.00 | 0.29 | 0.00 | 93 | 1009.9 |
| 20260509054135 | 68 | 168 | 2.0 | 4.0 | 0.00 | 0.29 | 0.00 | 93 | 1009.8 |
| 20260509054036 | 68 | 168 | 2.0 | 4.0 | 0.00 | 0.29 | 0.00 | 93 | 1009.9 |
| 20260509054002 | 68 | 168 | 3.0 | 4.0 | 0.00 | 0.29 | 0.00 | 93 | 1009.9 |
| 20260509053935 | 68 | 168 | 3.0 | 4.0 | 0.00 | 0.29 | 0.00 | 93 | 1009.8 |
| 20260509053832 | 68 | 166 | 2.0 | 4.0 | 0.00 | 0.29 | 0.00 | 93 | 1009.8 |
| 20260509053810 | 68 | 213 | 2.0 | 4.0 | 0.00 | 0.29 | 0.00 | 92 | 1010.4 |
| 20260509053750 | 68 | 178 | 2.0 | 5.0 | 0.00 | 0.29 | 0.00 | 93 | 1009.8 |
| 20260509053722 | 68 | 172 | 2.0 | 5.0 | 0.00 | 0.29 | 0.00 | 93 | 1009.9 |
| 20260509053653 | 68 | 196 | 2.0 | 5.0 | 0.00 | 0.29 | 0.00 | 93 | 1009.9 |
| 20260509053633 | 68 | 185 | 2.0 | 5.0 | 0.00 | 0.29 | 0.00 | 93 | 1009.9 |
| 20260509053618 | 68 | 185 | 2.0 | 5.0 | 0.00 | 0.29 | 0.00 | 93 | 1009.9 |
| 20260509053340 | 68 | 165 | 2.0 | 5.0 | 0.00 | 0.29 | 0.00 | 93 | 1009.9 |
| 20260509053311 | 68 | 165 | 2.0 | 5.0 | 0.00 | 0.29 | 0.00 | 93 | 1010.0 |
| 20260509053240 | 68 | 189 | 2.0 | 5.0 | 0.00 | 0.29 | 0.00 | 93 | 1010.1 |
| 20260509053210 | 68 | 162 | 2.0 | 5.0 | 0.00 | 0.29 | 0.00 | 93 | 1010.1 |
| 20260509053151 | 68 | 155 | 2.0 | 5.0 | 0.00 | 0.29 | 0.00 | 93 | 1010.1 |
| 20260509053135 | 68 | 183 | 3.0 | 5.0 | 0.00 | 0.29 | 0.00 | 93 | 1010.3 |
| 20260509052854 | 68 | 196 | 3.0 | 5.0 | 0.00 | 0.29 | 0.00 | 92 | 1010.3 |
| 20260509052823 | 68 | 196 | 3.0 | 4.0 | 0.00 | 0.29 | 0.00 | 92 | 1010.3 |
| 20260509052752 | 68 | 202 | 2.0 | 4.0 | 0.00 | 0.29 | 0.00 | 92 | 1010.3 |
| 20260509052720 | 68 | 213 | 2.0 | 4.0 | 0.00 | 0.29 | 0.00 | 92 | 1010.4 |
| 20260509052418 | 68 | 213 | 3.0 | 4.0 | 0.00 | 0.29 | 0.00 | 92 | 1010.4 |
| 20260509052407 | 68 | 216 | 1.0 | 2.0 | 0.00 | 0.29 | 0.00 | 92 | 1010.6 |
| 20260509052343 | 68 | 213 | 2.0 | 4.0 | 0.00 | 0.29 | 0.00 | 92 | 1010.5 |
| 20260509052316 | 68 | 216 | 1.0 | 2.0 | 0.00 | 0.29 | 0.00 | 92 | 1010.5 |
| 20260509052245 | 68 | 216 | 1.0 | 2.0 | 0.00 | 0.29 | 0.00 | 92 | 1010.5 |
| 20260509052214 | 68 | 216 | 1.0 | 2.0 | 0.00 | 0.29 | 0.00 | 92 | 1010.6 |
| 20260509051911 | 68 | 216 | 1.0 | 2.0 | 0.00 | 0.29 | 0.00 | 92 | 1010.7 |
| 20260509051807 | 68 | 216 | 1.0 | 2.0 | 0.00 | 0.29 | 0.00 | 92 | 1010.7 |
| 20260509051707 | 68 | 216 | 1.0 | 2.0 | 0.00 | 0.29 | 0.00 | 92 | 1010.7 |
| 20260509051607 | 68 | 216 | 1.0 | 2.0 | 0.00 | 0.29 | 0.00 | 92 | 1010.8 |
| 20260509051510 | 68 | 216 | 1.0 | 2.0 | 0.00 | 0.29 | 0.00 | 92 | 1010.7 |
| 20260509051457 | 68 | 216 | 1.0 | 2.0 | 0.00 | 0.29 | 0.00 | 92 | 1010.7 |
| 20260509051403 | 68 | 216 | 2.0 | 2.0 | 0.00 | 0.29 | 0.00 | 92 | 1010.8 |
| 20260509051302 | 68 | 216 | 1.0 | 2.0 | 0.00 | 0.29 | 0.00 | 92 | 1010.9 |
| 20260509051203 | 68 | 216 | 0.0 | 2.0 | 0.00 | 0.29 | 0.00 | 92 | 1010.9 |
| 20260509051103 | 68 | 216 | 0.0 | 2.0 | 0.00 | 0.29 | 0.00 | 92 | 1011.0 |
| 20260509050959 | 68 | 216 | 0.0 | 2.0 | 0.00 | 0.29 | 0.00 | 92 | 1011.1 |
| 20260509050912 | 68 | 216 | 0.0 | 3.0 | 0.00 | 0.29 | 0.00 | 92 | 1011.1 |
| 20260509050903 | 68 | 216 | 0.0 | 2.0 | 0.00 | 0.29 | 0.00 | 92 | 1011.1 |
| 20260509050832 | 68 | 216 | 1.0 | 3.0 | 0.00 | 0.29 | 0.00 | 92 | 1011.1 |
| 20260509050805 | 68 | 216 | 1.0 | 3.0 | 0.00 | 0.29 | 0.00 | 92 | 1011.2 |
| 20260509050735 | 68 | 216 | 1.0 | 3.0 | 0.00 | 0.29 | 0.00 | 92 | 1011.2 |
| 20260509050455 | 68 | 216 | 0.0 | 3.0 | 0.00 | 0.29 | 0.00 | 92 | 1011.1 |
| 20260509050355 | 68 | 216 | 0.0 | 4.0 | 0.00 | 0.29 | 0.00 | 92 | 1011.1 |
| 20260509050244 | 68 | 216 | 0.0 | 4.0 | 0.00 | 0.29 | 0.00 | 92 | 1010.8 |
| 20260509050141 | 68 | 216 | 1.0 | 4.0 | 0.00 | 0.29 | 0.00 | 92 | 1010.8 |
| 20260509045937 | 68 | 216 | 1.0 | 4.0 | 0.00 | 0.29 | 0.29 | 92 | 1010.7 |
| 20260509045837 | 68 | 216 | 2.0 | 4.0 | 0.00 | 0.29 | 0.29 | 92 | 1010.7 |
| 20260509045734 | 68 | 216 | 2.0 | 4.0 | 0.00 | 0.29 | 0.29 | 92 | 1010.7 |
| 20260509045634 | 68 | 216 | 2.0 | 4.0 | 0.00 | 0.29 | 0.29 | 92 | 1010.7 |
| 20260509045534 | 68 | 216 | 2.0 | 4.0 | 0.00 | 0.29 | 0.29 | 92 | 1010.9 |
| 20260509045456 | 68 | 221 | 2.0 | 4.0 | 0.00 | 0.29 | 0.29 | 92 | 1010.9 |
| 20260509045434 | 68 | 226 | 2.0 | 4.0 | 0.00 | 0.29 | 0.29 | 92 | 1010.9 |
| 20260509045406 | 68 | 274 | 2.0 | 4.0 | 0.00 | 0.29 | 0.29 | 92 | 1011.2 |
| 20260509045348 | 68 | 250 | 2.0 | 4.0 | 0.00 | 0.29 | 0.29 | 92 | 1011.1 |
| 20260509045317 | 68 | 252 | 2.0 | 4.0 | 0.00 | 0.29 | 0.29 | 92 | 1011.1 |
| 20260509045250 | 68 | 252 | 2.0 | 4.0 | 0.00 | 0.29 | 0.29 | 92 | 1011.3 |
| 20260509045221 | 68 | 258 | 2.0 | 4.0 | 0.00 | 0.29 | 0.29 | 92 | 1011.2 |
| 20260509044936 | 68 | 300 | 2.0 | 4.0 | 0.00 | 0.29 | 0.29 | 92 | 1011.3 |
| 20260509044835 | 68 | 299 | 2.0 | 3.0 | 0.00 | 0.29 | 0.29 | 92 | 1011.3 |
| 20260509044734 | 68 | 320 | 1.0 | 3.0 | 0.00 | 0.29 | 0.29 | 92 | 1011.3 |
| 20260509044636 | 68 | 350 | 2.0 | 3.0 | 0.00 | 0.29 | 0.29 | 92 | 1011.2 |
| 20260509044520 | 68 | 355 | 1.0 | 3.0 | 0.00 | 0.29 | 0.29 | 92 | 1011.2 |
| 20260509044454 | 68 | 357 | 1.0 | 4.0 | 0.00 | 0.29 | 0.29 | 92 | 1011.2 |
| 20260509044419 | 68 | 357 | 1.0 | 4.0 | 0.00 | 0.29 | 0.29 | 92 | 1011.1 |
| 20260509044316 | 68 | 0 | 1.0 | 5.0 | 0.00 | 0.29 | 0.29 | 92 | 1011.1 |
| 20260509044211 | 68 | 0 | 1.0 | 5.0 | 0.00 | 0.29 | 0.29 | 91 | 1011.0 |
| 20260509044111 | 68 | 351 | 1.0 | 5.0 | 0.00 | 0.29 | 0.29 | 91 | 1011.0 |
| 20260509044008 | 68 | 354 | 2.0 | 5.0 | 0.00 | 0.29 | 0.29 | 92 | 1010.9 |
| 20260509043952 | 68 | 354 | 2.0 | 5.0 | 0.00 | 0.29 | 0.29 | 92 | 1010.9 |
| 20260509043907 | 68 | 354 | 2.0 | 5.0 | 0.00 | 0.29 | 0.29 | 92 | 1010.8 |
| 20260509043804 | 68 | 358 | 2.0 | 5.0 | 0.00 | 0.29 | 0.29 | 92 | 1010.7 |
| 20260509043703 | 68 | 0 | 3.0 | 5.0 | 0.00 | 0.29 | 0.29 | 92 | 1010.7 |
| 20260509043600 | 68 | 0 | 3.0 | 5.0 | 0.00 | 0.29 | 0.29 | 92 | 1010.6 |
| 20260509043452 | 68 | 0 | 3.0 | 5.0 | 0.00 | 0.29 | 0.29 | 92 | 1010.7 |
| 20260509043357 | 68 | 347 | 4.0 | 5.0 | 0.00 | 0.29 | 0.29 | 92 | 1010.7 |
| 20260509043256 | 68 | 0 | 3.0 | 5.0 | 0.00 | 0.29 | 0.29 | 91 | 1010.7 |
| 20260509043155 | 68 | 347 | 2.0 | 4.0 | 0.00 | 0.29 | 0.29 | 91 | 1010.7 |
| 20260509043054 | 68 | 32 | 2.0 | 3.0 | 0.00 | 0.29 | 0.29 | 91 | 1010.5 |
| 20260509042954 | 68 | 32 | 2.0 | 3.0 | 0.00 | 0.29 | 0.29 | 91 | 1010.5 |
| 20260509042853 | 68 | 49 | 2.0 | 3.0 | 0.00 | 0.29 | 0.29 | 91 | 1010.4 |
| 20260509042753 | 68 | 86 | 1.0 | 3.0 | 0.01 | 0.29 | 0.29 | 91 | 1010.3 |
| 20260509042652 | 68 | 86 | 2.0 | 3.0 | 0.01 | 0.29 | 0.29 | 91 | 1010.3 |
| 20260509042552 | 68 | 86 | 1.0 | 3.0 | 0.01 | 0.29 | 0.29 | 91 | 1010.4 |
| 20260509042453 | 68 | 89 | 1.0 | 3.0 | 0.01 | 0.29 | 0.29 | 91 | 1010.3 |
| 20260509042444 | 68 | 89 | 1.0 | 3.0 | 0.01 | 0.29 | 0.29 | 91 | 1010.2 |
| 20260509042353 | 68 | 89 | 2.0 | 3.0 | 0.01 | 0.29 | 0.29 | 91 | 1010.2 |
| 20260509042253 | 68 | 89 | 2.0 | 3.0 | 0.02 | 0.29 | 0.29 | 91 | 1010.2 |
| 20260509042241 | 69 | 32 | 1.0 | 3.0 | 0.16 | 0.29 | 0.29 | 91 | 1010.2 |
| 20260509042235 | 68 | 34 | 0.0 | 3.0 | 0.10 | 0.29 | 0.29 | 91 | 1010.3 |
| 20260509042212 | 68 | 55 | 1.0 | 3.0 | 0.02 | 0.29 | 0.29 | 91 | 1010.1 |
| 20260509042140 | 68 | 55 | 0.0 | 3.0 | 0.03 | 0.29 | 0.29 | 91 | 1010.1 |
| 20260509042100 | 68 | 55 | 0.0 | 3.0 | 0.04 | 0.29 | 0.29 | 91 | 1010.1 |
| 20260509042034 | 68 | 55 | 1.0 | 3.0 | 0.04 | 0.29 | 0.29 | 91 | 1010.1 |
| 20260509041959 | 68 | 55 | 1.0 | 3.0 | 0.05 | 0.29 | 0.29 | 91 | 1010.1 |
| 20260509041926 | 68 | 47 | 1.0 | 3.0 | 0.06 | 0.29 | 0.29 | 91 | 1010.1 |
| 20260509041857 | 68 | 47 | 1.0 | 3.0 | 0.08 | 0.29 | 0.29 | 91 | 1010.1 |
| 20260509041619 | 68 | 34 | 0.0 | 3.0 | 0.10 | 0.29 | 0.29 | 91 | 1010.3 |
| 20260509041341 | 69 | 32 | 0.0 | 3.0 | 0.12 | 0.29 | 0.29 | 91 | 1010.2 |
| 20260509041310 | 69 | 31 | 1.0 | 3.0 | 0.13 | 0.29 | 0.29 | 91 | 1010.3 |
| 20260509041242 | 69 | 32 | 1.0 | 3.0 | 0.14 | 0.29 | 0.29 | 91 | 1010.3 |
| 20260509041211 | 69 | 32 | 1.0 | 3.0 | 0.15 | 0.29 | 0.29 | 91 | 1010.2 |
| 20260509040932 | 69 | 32 | 1.0 | 3.0 | 0.16 | 0.29 | 0.29 | 91 | 1010.2 |
| 20260509040730 | 69 | 31 | 2.0 | 4.0 | 0.20 | 0.29 | 0.29 | 91 | 1010.1 |
| 20260509040628 | 69 | 31 | 2.0 | 4.0 | 0.20 | 0.29 | 0.29 | 91 | 1010.0 |
| 20260509040528 | 69 | 25 | 2.0 | 4.0 | 0.20 | 0.29 | 0.29 | 91 | 1010.0 |
| 20260509040426 | 69 | 32 | 2.0 | 4.0 | 0.20 | 0.29 | 0.29 | 91 | 1010.0 |
| 20260509040325 | 69 | 31 | 2.0 | 4.0 | 0.20 | 0.29 | 0.29 | 91 | 1010.0 |
| 20260509040219 | 69 | 28 | 2.0 | 4.0 | 0.20 | 0.29 | 0.29 | 91 | 1010.1 |
| 20260509040119 | 69 | 28 | 2.0 | 4.0 | 0.20 | 0.29 | 0.29 | 91 | 1010.0 |
| 20260509040017 | 69 | 27 | 3.0 | 4.0 | 0.20 | 0.09 | 0.29 | 91 | 1010.0 |
| 20260509035916 | 69 | 27 | 3.0 | 6.0 | 0.20 | 0.09 | 0.29 | 91 | 1009.9 |
| 20260509035815 | 69 | 0 | 2.0 | 6.0 | 0.20 | 0.09 | 0.29 | 91 | 1009.9 |
| 20260509035714 | 69 | 166 | 1.0 | 7.0 | 0.20 | 0.09 | 0.29 | 91 | 1009.8 |
| 20260509035609 | 69 | 166 | 0.0 | 7.0 | 0.20 | 0.09 | 0.29 | 91 | 1009.8 |
| 20260509035507 | 69 | 166 | 1.0 | 7.0 | 0.20 | 0.09 | 0.29 | 91 | 1009.8 |
| 20260509035434 | 69 | 166 | 1.0 | 7.0 | 0.20 | 0.09 | 0.29 | 91 | 1009.5 |
| 20260509035405 | 69 | 166 | 2.0 | 7.0 | 0.20 | 0.09 | 0.29 | 91 | 1009.5 |
| 20260509035306 | 69 | 148 | 2.0 | 7.0 | 0.20 | 0.09 | 0.29 | 91 | 1009.4 |
| 20260509035204 | 69 | 175 | 3.0 | 7.0 | 0.20 | 0.09 | 0.29 | 91 | 1009.3 |
| 20260509035104 | 69 | 148 | 4.0 | 7.0 | 0.20 | 0.09 | 0.29 | 91 | 1009.2 |
| 20260509035005 | 69 | 182 | 5.0 | 7.0 | 0.20 | 0.09 | 0.29 | 91 | 1009.2 |
| 20260509034934 | 69 | 176 | 5.0 | 7.0 | 0.20 | 0.09 | 0.29 | 91 | 1009.3 |
| 20260509034902 | 68 | 83 | 4.0 | 7.0 | 0.20 | 0.09 | 0.29 | 91 | 1009.3 |
| 20260509034801 | 68 | 154 | 3.0 | 7.0 | 0.20 | 0.09 | 0.29 | 91 | 1009.2 |
| 20260509034700 | 69 | 190 | 3.0 | 6.0 | 0.20 | 0.09 | 0.29 | 91 | 1009.3 |
| 20260509034558 | 69 | 169 | 2.0 | 7.0 | 0.20 | 0.09 | 0.29 | 91 | 1009.4 |
| 20260509034457 | 69 | 135 | 1.0 | 7.0 | 0.20 | 0.09 | 0.29 | 91 | 1009.4 |
| 20260509034436 | 69 | 135 | 1.0 | 7.0 | 0.20 | 0.09 | 0.29 | 91 | 1009.3 |
| 20260509034356 | 69 | 135 | 2.0 | 7.0 | 0.20 | 0.09 | 0.29 | 91 | 1009.3 |
| 20260509034254 | 69 | 131 | 2.0 | 7.0 | 0.20 | 0.09 | 0.29 | 91 | 1009.4 |
| 20260509034152 | 69 | 131 | 2.0 | 7.0 | 0.20 | 0.09 | 0.29 | 91 | 1009.5 |
| 20260509034052 | 69 | 113 | 2.0 | 9.0 | 0.20 | 0.09 | 0.29 | 91 | 1009.6 |
| 20260509033950 | 69 | 114 | 2.0 | 9.0 | 0.20 | 0.09 | 0.29 | 91 | 1009.5 |
| 20260509033932 | 69 | 113 | 2.0 | 9.0 | 0.20 | 0.09 | 0.29 | 91 | 1009.6 |
| 20260509033850 | 69 | 35 | 2.0 | 9.0 | 0.20 | 0.09 | 0.29 | 91 | 1009.6 |
| 20260509033752 | 69 | 35 | 4.0 | 9.0 | 0.20 | 0.09 | 0.29 | 91 | 1009.7 |
| 20260509033648 | 68 | 51 | 5.0 | 14.0 | 0.20 | 0.09 | 0.29 | 91 | 1009.5 |
| 20260509033547 | 68 | 28 | 2.0 | 14.0 | 0.20 | 0.09 | 0.29 | 90 | 1009.4 |
| 20260509033444 | 68 | 196 | 2.0 | 14.0 | 0.20 | 0.09 | 0.29 | 90 | 1009.5 |
| 20260509033431 | 68 | 197 | 2.0 | 14.0 | 0.20 | 0.09 | 0.29 | 90 | 1009.5 |
| 20260509033345 | 68 | 197 | 3.0 | 14.0 | 0.20 | 0.09 | 0.29 | 90 | 1009.4 |
| 20260509033337 | 68 | 125 | 5.0 | 14.0 | 0.20 | 0.09 | 0.29 | 89 | 1009.2 |
| 20260509033311 | 68 | 234 | 4.0 | 14.0 | 0.20 | 0.09 | 0.29 | 90 | 1009.3 |
| 20260509033241 | 68 | 137 | 5.0 | 14.0 | 0.20 | 0.09 | 0.29 | 90 | 1009.4 |
| 20260509033210 | 68 | 131 | 5.0 | 14.0 | 0.20 | 0.09 | 0.29 | 90 | 1009.2 |
| 20260509033142 | 68 | 125 | 5.0 | 14.0 | 0.20 | 0.09 | 0.29 | 89 | 1009.2 |
| 20260509032833 | 68 | 173 | 7.0 | 14.0 | 0.20 | 0.09 | 0.28 | 89 | 1009.3 |
| 20260509032733 | 68 | 237 | 7.0 | 14.0 | 0.19 | 0.09 | 0.28 | 89 | 1009.4 |
| 20260509032634 | 68 | 199 | 5.0 | 13.0 | 0.19 | 0.09 | 0.28 | 89 | 1009.6 |
| 20260509032532 | 69 | 231 | 6.0 | 13.0 | 0.19 | 0.09 | 0.28 | 88 | 1009.6 |
| 20260509032434 | 69 | 213 | 7.0 | 13.0 | 0.19 | 0.09 | 0.28 | 88 | 1009.5 |
| 20260509032333 | 69 | 190 | 7.0 | 13.0 | 0.19 | 0.09 | 0.28 | 88 | 1009.4 |
| 20260509032233 | 69 | 196 | 7.0 | 13.0 | 0.18 | 0.09 | 0.27 | 88 | 1009.2 |
| 20260509032133 | 69 | 135 | 7.0 | 13.0 | 0.18 | 0.09 | 0.27 | 87 | 1009.3 |
| 20260509032034 | 69 | 185 | 8.0 | 13.0 | 0.17 | 0.09 | 0.26 | 87 | 1009.3 |
| 20260509031933 | 69 | 178 | 7.0 | 13.0 | 0.16 | 0.09 | 0.25 | 86 | 1009.5 |
| 20260509031832 | 69 | 157 | 6.0 | 11.0 | 0.16 | 0.09 | 0.25 | 86 | 1009.6 |
| 20260509031733 | 69 | 159 | 6.0 | 11.0 | 0.15 | 0.09 | 0.24 | 86 | 1009.7 |
| 20260509031634 | 70 | 165 | 4.0 | 7.0 | 0.14 | 0.09 | 0.22 | 85 | 1009.8 |
| 20260509031533 | 70 | 207 | 5.0 | 7.0 | 0.12 | 0.09 | 0.20 | 84 | 1009.8 |
| 20260509031434 | 70 | 199 | 5.0 | 7.0 | 0.10 | 0.09 | 0.17 | 83 | 1009.9 |
| 20260509031334 | 70 | 202 | 4.0 | 5.0 | 0.08 | 0.09 | 0.16 | 83 | 1009.8 |
| 20260509031232 | 71 | 199 | 4.0 | 5.0 | 0.07 | 0.09 | 0.16 | 83 | 1009.9 |
| 20260509031132 | 71 | 182 | 4.0 | 4.0 | 0.06 | 0.09 | 0.15 | 83 | 1009.8 |
| 20260509031033 | 71 | 176 | 3.0 | 4.0 | 0.05 | 0.09 | 0.14 | 82 | 1010.0 |
| 20260509030928 | 71 | 158 | 2.0 | 3.0 | 0.04 | 0.09 | 0.12 | 81 | 1010.1 |
| 20260509030827 | 71 | 142 | 1.0 | 3.0 | 0.02 | 0.09 | 0.10 | 80 | 1010.3 |
| 20260509030725 | 71 | 52 | 0.0 | 2.0 | 0.00 | 0.09 | 0.09 | 80 | 1010.3 |
| 20260509030624 | 71 | 47 | 0.0 | 3.0 | 0.00 | 0.09 | 0.09 | 80 | 1010.5 |
| 20260509030519 | 71 | 47 | 0.0 | 3.0 | 0.00 | 0.09 | 0.09 | 80 | 1010.4 |
| 20260509030417 | 71 | 47 | 0.0 | 3.0 | 0.00 | 0.09 | 0.09 | 80 | 1010.5 |
| 20260509030317 | 71 | 47 | 0.0 | 3.0 | 0.00 | 0.09 | 0.09 | 80 | 1010.5 |
| 20260509030214 | 71 | 47 | 1.0 | 3.0 | 0.00 | 0.09 | 0.09 | 80 | 1010.5 |
| 20260509030112 | 71 | 47 | 1.0 | 3.0 | 0.00 | 0.09 | 0.09 | 80 | 1010.4 |
| 20260509030012 | 71 | 47 | 1.0 | 5.0 | 0.00 | 0.09 | 0.09 | 80 | 1010.4 |
| 20260509025934 | 71 | 49 | 1.0 | 5.0 | 0.00 | 0.09 | 0.09 | 80 | 1010.4 |
| 20260509025911 | 71 | 49 | 2.0 | 5.0 | 0.00 | 0.09 | 0.09 | 80 | 1010.4 |
| 20260509025808 | 71 | 49 | 2.0 | 5.0 | 0.00 | 0.09 | 0.09 | 80 | 1010.5 |
| 20260509025708 | 71 | 55 | 1.0 | 5.0 | 0.00 | 0.09 | 0.09 | 80 | 1010.5 |
| 20260509025606 | 71 | 38 | 0.0 | 5.0 | 0.00 | 0.09 | 0.09 | 80 | 1010.4 |
| 20260509025503 | 71 | 38 | 1.0 | 5.0 | 0.00 | 0.09 | 0.09 | 80 | 1010.4 |
| 20260509025432 | 71 | 38 | 1.0 | 5.0 | 0.00 | 0.09 | 0.09 | 80 | 1010.5 |
| 20260509025403 | 71 | 38 | 2.0 | 5.0 | 0.00 | 0.09 | 0.09 | 80 | 1010.5 |
| 20260509025307 | 71 | 38 | 2.0 | 5.0 | 0.00 | 0.09 | 0.09 | 80 | 1010.5 |
| 20260509025159 | 71 | 7 | 3.0 | 5.0 | 0.00 | 0.09 | 0.09 | 80 | 1010.5 |
| 20260509025057 | 71 | 17 | 3.0 | 5.0 | 0.00 | 0.09 | 0.09 | 80 | 1010.5 |
| 20260509024955 | 71 | 14 | 3.0 | 5.0 | 0.00 | 0.09 | 0.09 | 80 | 1010.5 |
| 20260509024934 | 71 | 16 | 2.0 | 5.0 | 0.00 | 0.09 | 0.09 | 80 | 1010.5 |
| 20260509024856 | 71 | 21 | 3.0 | 5.0 | 0.00 | 0.09 | 0.09 | 80 | 1010.5 |
| 20260509024753 | 71 | 23 | 3.0 | 5.0 | 0.00 | 0.09 | 0.09 | 80 | 1010.4 |
| 20260509024653 | 71 | 11 | 3.0 | 5.0 | 0.00 | 0.09 | 0.09 | 80 | 1010.5 |
| 20260509024551 | 71 | 14 | 3.0 | 4.0 | 0.00 | 0.09 | 0.09 | 80 | 1010.4 |
| 20260509024448 | 71 | 16 | 3.0 | 4.0 | 0.00 | 0.09 | 0.09 | 80 | 1010.5 |
| 20260509024431 | 71 | 14 | 3.0 | 4.0 | 0.00 | 0.09 | 0.09 | 80 | 1010.5 |
| 20260509024352 | 71 | 80 | 1.0 | 3.0 | 0.00 | 0.09 | 0.09 | 80 | 1010.0 |
| 20260509024344 | 71 | 25 | 2.0 | 3.0 | 0.00 | 0.09 | 0.09 | 80 | 1010.4 |
| 20260509024317 | 71 | 25 | 2.0 | 3.0 | 0.00 | 0.09 | 0.09 | 80 | 1010.2 |
| 20260509024246 | 71 | 56 | 2.0 | 3.0 | 0.00 | 0.09 | 0.09 | 80 | 1010.2 |
| 20260509024214 | 71 | 58 | 1.0 | 3.0 | 0.00 | 0.09 | 0.09 | 80 | 1010.1 |
| 20260509024143 | 71 | 80 | 1.0 | 3.0 | 0.00 | 0.09 | 0.09 | 80 | 1010.0 |
| 20260509023834 | 71 | 83 | 1.0 | 3.0 | 0.00 | 0.09 | 0.09 | 80 | 1010.0 |
| 20260509023734 | 71 | 83 | 1.0 | 3.0 | 0.00 | 0.09 | 0.09 | 79 | 1010.0 |
| 20260509023636 | 71 | 83 | 0.0 | 3.0 | 0.00 | 0.09 | 0.09 | 79 | 1010.0 |
| 20260509023534 | 71 | 83 | 1.0 | 3.0 | 0.00 | 0.09 | 0.09 | 79 | 1009.9 |
| 20260509023433 | 71 | 85 | 1.0 | 3.0 | 0.00 | 0.09 | 0.09 | 79 | 1009.9 |
| 20260509023333 | 71 | 79 | 1.0 | 3.0 | 0.00 | 0.09 | 0.09 | 79 | 1009.9 |
| 20260509023231 | 71 | 59 | 1.0 | 3.0 | 0.00 | 0.09 | 0.09 | 79 | 1010.0 |
| 20260509023131 | 71 | 87 | 0.0 | 2.0 | 0.00 | 0.09 | 0.09 | 79 | 1009.9 |
| 20260509023028 | 71 | 87 | 0.0 | 2.0 | 0.00 | 0.09 | 0.09 | 79 | 1009.9 |
| 20260509022932 | 71 | 87 | 0.0 | 2.0 | 0.00 | 0.09 | 0.09 | 79 | 1009.9 |
| 20260509022926 | 71 | 89 | 0.0 | 2.0 | 0.00 | 0.09 | 0.09 | 79 | 1009.9 |
| 20260509022825 | 71 | 89 | 0.0 | 2.0 | 0.00 | 0.09 | 0.09 | 79 | 1009.9 |
| 20260509022724 | 71 | 89 | 0.0 | 2.0 | 0.00 | 0.09 | 0.09 | 79 | 1009.9 |
| 20260509022621 | 71 | 89 | 1.0 | 2.0 | 0.00 | 0.09 | 0.09 | 79 | 1009.8 |
| 20260509022520 | 71 | 90 | 1.0 | 2.0 | 0.00 | 0.09 | 0.09 | 79 | 1009.8 |
| 20260509022432 | 71 | 92 | 1.0 | 2.0 | 0.00 | 0.09 | 0.09 | 79 | 1009.8 |
| 20260509022418 | 71 | 92 | 0.0 | 2.0 | 0.00 | 0.09 | 0.09 | 79 | 1009.8 |
| 20260509022339 | 71 | 96 | 0.0 | 2.0 | 0.00 | 0.09 | 0.09 | 79 | 1009.8 |
| 20260509022215 | 71 | 96 | 0.0 | 2.0 | 0.00 | 0.09 | 0.09 | 79 | 1009.7 |
| 20260509022114 | 71 | 96 | 0.0 | 2.0 | 0.00 | 0.09 | 0.09 | 79 | 1009.7 |
| 20260509022013 | 71 | 96 | 0.0 | 2.0 | 0.00 | 0.09 | 0.09 | 79 | 1009.8 |
| 20260509021913 | 71 | 96 | 0.0 | 3.0 | 0.00 | 0.09 | 0.09 | 79 | 1009.7 |
| 20260509021811 | 71 | 96 | 0.0 | 3.0 | 0.00 | 0.09 | 0.09 | 79 | 1009.6 |
| 20260509021709 | 71 | 96 | 1.0 | 3.0 | 0.00 | 0.09 | 0.09 | 79 | 1009.7 |
| 20260509021607 | 71 | 80 | 0.0 | 3.0 | 0.00 | 0.09 | 0.09 | 78 | 1009.6 |
| 20260509021507 | 71 | 83 | 0.0 | 3.0 | 0.00 | 0.09 | 0.09 | 78 | 1009.6 |
| 20260509021407 | 71 | 83 | 0.0 | 3.0 | 0.00 | 0.09 | 0.09 | 78 | 1009.5 |
| 20260509021303 | 71 | 83 | 0.0 | 3.0 | 0.00 | 0.09 | 0.09 | 78 | 1009.5 |
| 20260509021202 | 71 | 83 | 1.0 | 3.0 | 0.00 | 0.09 | 0.09 | 78 | 1009.3 |
| 20260509021059 | 71 | 102 | 1.0 | 4.0 | 0.00 | 0.09 | 0.09 | 78 | 1009.2 |
| 20260509020930 | 71 | 89 | 1.0 | 4.0 | 0.00 | 0.09 | 0.09 | 78 | 1009.3 |
| 20260509020849 | 71 | 86 | 2.0 | 4.0 | 0.00 | 0.09 | 0.09 | 78 | 1009.3 |
| 20260509020747 | 71 | 79 | 1.0 | 6.0 | 0.00 | 0.09 | 0.09 | 78 | 1009.2 |
| 20260509020644 | 71 | 89 | 0.0 | 6.0 | 0.00 | 0.09 | 0.09 | 78 | 1009.1 |
| 20260509020544 | 71 | 87 | 1.0 | 6.0 | 0.00 | 0.09 | 0.09 | 78 | 1009.0 |
| 20260509020441 | 71 | 86 | 2.0 | 6.0 | 0.00 | 0.09 | 0.09 | 78 | 1009.0 |
| 20260509020428 | 71 | 87 | 2.0 | 6.0 | 0.00 | 0.09 | 0.09 | 78 | 1009.0 |
| 20260509020341 | 71 | 90 | 2.0 | 6.0 | 0.00 | 0.09 | 0.09 | 78 | 1008.9 |
| 20260509020238 | 72 | 114 | 2.0 | 6.0 | 0.00 | 0.09 | 0.09 | 78 | 1008.8 |
| 20260509020138 | 71 | 135 | 2.0 | 6.0 | 0.00 | 0.09 | 0.09 | 78 | 1008.9 |
| 20260509020038 | 72 | 137 | 2.0 | 6.0 | 0.00 | 0.09 | 0.09 | 78 | 1008.7 |
| 20260509015937 | 72 | 128 | 3.0 | 6.0 | 0.00 | 0.09 | 0.09 | 78 | 1008.5 |
| 20260509015929 | 72 | 130 | 3.0 | 6.0 | 0.00 | 0.09 | 0.09 | 78 | 1008.5 |
| 20260509015835 | 72 | 142 | 3.0 | 6.0 | 0.00 | 0.09 | 0.09 | 78 | 1008.5 |
| 20260509015735 | 72 | 125 | 2.0 | 5.0 | 0.00 | 0.09 | 0.09 | 78 | 1008.7 |
| 20260509015634 | 72 | 120 | 3.0 | 5.0 | 0.00 | 0.09 | 0.09 | 77 | 1008.5 |
| 20260509015535 | 72 | 145 | 3.0 | 5.0 | 0.00 | 0.09 | 0.09 | 78 | 1008.5 |
| 20260509015431 | 72 | 148 | 3.0 | 5.0 | 0.00 | 0.09 | 0.09 | 77 | 1008.5 |
| 20260509015422 | 72 | 157 | 3.0 | 5.0 | 0.00 | 0.09 | 0.09 | 77 | 1008.5 |
| 20260509015332 | 72 | 134 | 2.0 | 5.0 | 0.00 | 0.09 | 0.09 | 77 | 1008.4 |
| 20260509015220 | 72 | 152 | 2.0 | 5.0 | 0.00 | 0.09 | 0.09 | 77 | 1008.5 |
| 20260509015119 | 72 | 149 | 2.0 | 5.0 | 0.00 | 0.09 | 0.09 | 77 | 1008.5 |
| 20260509015017 | 72 | 134 | 2.0 | 5.0 | 0.00 | 0.09 | 0.09 | 77 | 1008.4 |
| 20260509014915 | 72 | 134 | 3.0 | 5.0 | 0.00 | 0.09 | 0.09 | 77 | 1008.4 |
| 20260509014816 | 72 | 124 | 3.0 | 5.0 | 0.00 | 0.09 | 0.09 | 77 | 1008.5 |
| 20260509014713 | 72 | 161 | 2.0 | 4.0 | 0.00 | 0.09 | 0.09 | 77 | 1008.4 |
| 20260509014613 | 72 | 134 | 3.0 | 4.0 | 0.00 | 0.09 | 0.09 | 76 | 1008.5 |
| 20260509014510 | 72 | 131 | 3.0 | 4.0 | 0.00 | 0.09 | 0.09 | 76 | 1008.5 |
| 20260509014409 | 72 | 130 | 3.0 | 4.0 | 0.00 | 0.09 | 0.09 | 76 | 1008.4 |
| 20260509014325 | 73 | 124 | 1.0 | 4.0 | 0.00 | 0.09 | 0.09 | 76 | 1008.7 |
| 20260509014315 | 72 | 131 | 3.0 | 4.0 | 0.00 | 0.09 | 0.09 | 76 | 1008.5 |
| 20260509014246 | 73 | 123 | 2.0 | 4.0 | 0.00 | 0.09 | 0.09 | 76 | 1008.5 |
| 20260509014217 | 73 | 124 | 1.0 | 4.0 | 0.00 | 0.09 | 0.09 | 76 | 1008.7 |
| 20260509014146 | 73 | 124 | 1.0 | 4.0 | 0.00 | 0.09 | 0.09 | 76 | 1008.7 |
| 20260509013901 | 73 | 124 | 2.0 | 4.0 | 0.00 | 0.09 | 0.09 | 76 | 1008.7 |
| 20260509013801 | 73 | 125 | 2.0 | 4.0 | 0.00 | 0.09 | 0.09 | 76 | 1008.7 |
| 20260509013658 | 73 | 117 | 2.0 | 4.0 | 0.00 | 0.09 | 0.09 | 76 | 1008.7 |
| 20260509013556 | 73 | 131 | 2.0 | 4.0 | 0.00 | 0.09 | 0.09 | 76 | 1008.7 |
| 20260509013455 | 73 | 131 | 1.0 | 6.0 | 0.00 | 0.09 | 0.09 | 76 | 1008.7 |
| 20260509013415 | 73 | 131 | 2.0 | 6.0 | 0.00 | 0.09 | 0.09 | 76 | 1008.7 |
| 20260509013355 | 73 | 131 | 2.0 | 6.0 | 0.00 | 0.09 | 0.09 | 76 | 1008.7 |
| 20260509013250 | 73 | 131 | 2.0 | 6.0 | 0.00 | 0.09 | 0.09 | 76 | 1008.7 |
| 20260509013151 | 73 | 169 | 2.0 | 6.0 | 0.00 | 0.09 | 0.09 | 76 | 1008.5 |
| 20260509013049 | 73 | 171 | 2.0 | 6.0 | 0.00 | 0.09 | 0.09 | 76 | 1008.5 |
| 20260509012948 | 73 | 169 | 2.0 | 6.0 | 0.00 | 0.09 | 0.09 | 76 | 1008.5 |
| 20260509012915 | 73 | 169 | 3.0 | 6.0 | 0.00 | 0.09 | 0.09 | 76 | 1008.4 |
| 20260509012846 | 73 | 171 | 3.0 | 6.0 | 0.00 | 0.09 | 0.09 | 76 | 1008.4 |
| 20260509012746 | 73 | 157 | 3.0 | 6.0 | 0.00 | 0.09 | 0.09 | 75 | 1008.4 |
| 20260509012645 | 73 | 164 | 3.0 | 6.0 | 0.00 | 0.09 | 0.09 | 75 | 1008.4 |
| 20260509012542 | 73 | 162 | 3.0 | 6.0 | 0.00 | 0.09 | 0.09 | 75 | 1008.3 |
| 20260509012440 | 73 | 162 | 3.0 | 6.0 | 0.00 | 0.09 | 0.09 | 75 | 1008.4 |
| 20260509012415 | 73 | 159 | 3.0 | 6.0 | 0.00 | 0.09 | 0.09 | 75 | 1008.4 |
| 20260509012338 | 73 | 161 | 3.0 | 6.0 | 0.00 | 0.09 | 0.09 | 75 | 1008.4 |
| 20260509012238 | 73 | 155 | 3.0 | 9.0 | 0.00 | 0.09 | 0.09 | 75 | 1008.5 |
| 20260509012137 | 73 | 145 | 3.0 | 9.0 | 0.00 | 0.09 | 0.09 | 75 | 1008.4 |
| 20260509012033 | 73 | 176 | 3.0 | 10.0 | 0.00 | 0.09 | 0.09 | 75 | 1008.5 |
| 20260509011934 | 73 | 158 | 4.0 | 10.0 | 0.00 | 0.09 | 0.09 | 75 | 1008.5 |
| 20260509011913 | 73 | 168 | 4.0 | 10.0 | 0.00 | 0.09 | 0.09 | 75 | 1008.5 |
| 20260509011833 | 73 | 145 | 4.0 | 10.0 | 0.00 | 0.09 | 0.09 | 75 | 1008.7 |
| 20260509011732 | 73 | 165 | 3.0 | 10.0 | 0.00 | 0.09 | 0.09 | 75 | 1008.5 |
| 20260509011632 | 73 | 165 | 3.0 | 10.0 | 0.00 | 0.09 | 0.09 | 75 | 1008.5 |
| 20260509011532 | 73 | 158 | 4.0 | 10.0 | 0.00 | 0.09 | 0.09 | 75 | 1008.5 |
| 20260509011429 | 73 | 164 | 4.0 | 10.0 | 0.00 | 0.09 | 0.09 | 75 | 1008.5 |
| 20260509011415 | 73 | 161 | 4.0 | 10.0 | 0.00 | 0.09 | 0.09 | 75 | 1008.5 |
| 20260509011329 | 74 | 154 | 4.0 | 10.0 | 0.00 | 0.09 | 0.09 | 75 | 1008.5 |
| 20260509011226 | 74 | 145 | 5.0 | 10.0 | 0.00 | 0.09 | 0.09 | 75 | 1008.5 |
| 20260509011125 | 74 | 159 | 5.0 | 9.0 | 0.00 | 0.09 | 0.09 | 75 | 1008.5 |
| 20260509011022 | 74 | 76 | 4.0 | 9.0 | 0.00 | 0.09 | 0.09 | 75 | 1008.5 |
| 20260509010921 | 74 | 179 | 4.0 | 6.0 | 0.00 | 0.09 | 0.09 | 75 | 1008.5 |
| 20260509010913 | 74 | 141 | 4.0 | 5.0 | 0.00 | 0.09 | 0.09 | 75 | 1008.5 |
| 20260509010828 | 74 | 145 | 2.0 | 6.0 | 0.00 | 0.09 | 0.09 | 74 | 1008.7 |
| 20260509010821 | 74 | 149 | 3.0 | 5.0 | 0.00 | 0.09 | 0.09 | 75 | 1008.7 |
| 20260509010751 | 74 | 138 | 2.0 | 5.0 | 0.00 | 0.09 | 0.09 | 75 | 1008.7 |
| 20260509010722 | 74 | 176 | 2.0 | 5.0 | 0.00 | 0.09 | 0.09 | 74 | 1008.8 |
| 20260509010651 | 74 | 192 | 2.0 | 6.0 | 0.00 | 0.09 | 0.09 | 74 | 1008.8 |
| 20260509010621 | 74 | 145 | 2.0 | 6.0 | 0.00 | 0.09 | 0.09 | 74 | 1008.7 |
| 20260509010314 | 74 | 145 | 3.0 | 6.0 | 0.00 | 0.09 | 0.09 | 74 | 1008.8 |
| 20260509010207 | 74 | 145 | 3.0 | 6.0 | 0.00 | 0.09 | 0.09 | 74 | 1008.8 |
| 20260509010107 | 74 | 168 | 3.0 | 6.0 | 0.00 | 0.09 | 0.09 | 74 | 1008.8 |
| 20260509010006 | 74 | 164 | 2.0 | 6.0 | 0.00 | 0.09 | 0.09 | 74 | 1008.8 |
| 20260509005906 | 74 | 152 | 1.0 | 6.0 | 0.00 | 0.09 | 0.09 | 74 | 1008.7 |
| 20260509005806 | 74 | 152 | 3.0 | 6.0 | 0.00 | 0.09 | 0.09 | 73 | 1008.7 |
| 20260509005706 | 74 | 152 | 4.0 | 6.0 | 0.00 | 0.09 | 0.09 | 73 | 1008.7 |
| 20260509005605 | 74 | 130 | 4.0 | 6.0 | 0.00 | 0.09 | 0.09 | 73 | 1008.7 |
| 20260509005504 | 74 | 144 | 3.0 | 5.0 | 0.00 | 0.09 | 0.09 | 73 | 1008.7 |
| 20260509005405 | 74 | 144 | 3.0 | 5.0 | 0.00 | 0.09 | 0.09 | 73 | 1008.7 |
| 20260509005306 | 74 | 133 | 2.0 | 5.0 | 0.00 | 0.09 | 0.09 | 73 | 1008.7 |
| 20260509005203 | 74 | 164 | 2.0 | 5.0 | 0.00 | 0.09 | 0.09 | 73 | 1008.7 |
| 20260509005105 | 74 | 171 | 3.0 | 5.0 | 0.00 | 0.09 | 0.09 | 73 | 1008.7 |
| 20260509005004 | 74 | 114 | 3.0 | 5.0 | 0.00 | 0.09 | 0.09 | 73 | 1008.7 |
| 20260509004902 | 74 | 157 | 3.0 | 5.0 | 0.00 | 0.09 | 0.09 | 73 | 1008.7 |
| 20260509004802 | 74 | 127 | 4.0 | 5.0 | 0.00 | 0.09 | 0.09 | 73 | 1008.7 |
| 20260509004703 | 74 | 144 | 3.0 | 5.0 | 0.00 | 0.09 | 0.09 | 73 | 1008.5 |
| 20260509004603 | 74 | 137 | 2.0 | 5.0 | 0.00 | 0.09 | 0.09 | 73 | 1008.5 |
| 20260509004502 | 74 | 145 | 2.0 | 5.0 | 0.00 | 0.09 | 0.09 | 73 | 1008.7 |
| 20260509004411 | 74 | 120 | 1.0 | 6.0 | 0.00 | 0.09 | 0.09 | 73 | 1008.5 |
| 20260509004401 | 74 | 120 | 2.0 | 6.0 | 0.00 | 0.09 | 0.09 | 73 | 1008.5 |
| 20260509004301 | 74 | 120 | 2.0 | 7.0 | 0.00 | 0.09 | 0.09 | 73 | 1008.5 |
| 20260509004159 | 74 | 158 | 3.0 | 7.0 | 0.00 | 0.09 | 0.09 | 73 | 1008.5 |
| 20260509004054 | 74 | 118 | 2.0 | 7.0 | 0.00 | 0.09 | 0.09 | 73 | 1008.5 |
| 20260509003949 | 74 | 142 | 3.0 | 7.0 | 0.00 | 0.09 | 0.09 | 73 | 1008.3 |
| 20260509003908 | 74 | 151 | 3.0 | 9.0 | 0.00 | 0.09 | 0.09 | 73 | 1008.4 |
| 20260509003848 | 74 | 138 | 2.0 | 9.0 | 0.00 | 0.09 | 0.09 | 73 | 1008.4 |
| 20260509003748 | 74 | 190 | 3.0 | 9.0 | 0.00 | 0.09 | 0.09 | 73 | 1008.3 |
| 20260509003646 | 74 | 190 | 4.0 | 9.0 | 0.00 | 0.09 | 0.09 | 73 | 1008.4 |
| 20260509003546 | 74 | 183 | 4.0 | 9.0 | 0.00 | 0.09 | 0.09 | 73 | 1008.3 |
| 20260509003446 | 74 | 130 | 4.0 | 9.0 | 0.00 | 0.09 | 0.09 | 73 | 1008.3 |
| 20260509003404 | 74 | 176 | 4.0 | 9.0 | 0.00 | 0.09 | 0.09 | 73 | 1008.3 |
| 20260509003345 | 74 | 166 | 4.0 | 9.0 | 0.00 | 0.09 | 0.09 | 73 | 1008.3 |
| 20260509003246 | 74 | 147 | 3.0 | 9.0 | 0.00 | 0.09 | 0.09 | 73 | 1008.3 |
| 20260509003146 | 74 | 155 | 4.0 | 10.0 | 0.00 | 0.09 | 0.09 | 73 | 1008.2 |
| 20260509003045 | 74 | 144 | 5.0 | 10.0 | 0.00 | 0.09 | 0.09 | 72 | 1008.3 |
| 20260509002945 | 74 | 130 | 4.0 | 10.0 | 0.00 | 0.09 | 0.09 | 72 | 1008.2 |
| 20260509002904 | 74 | 158 | 3.0 | 10.0 | 0.00 | 0.09 | 0.09 | 72 | 1008.2 |
| 20260509002843 | 74 | 171 | 3.0 | 10.0 | 0.00 | 0.09 | 0.09 | 72 | 1008.3 |
| 20260509002741 | 74 | 173 | 3.0 | 10.0 | 0.00 | 0.09 | 0.09 | 72 | 1008.2 |
| 20260509002639 | 75 | 175 | 4.0 | 10.0 | 0.00 | 0.09 | 0.09 | 72 | 1008.2 |
| 20260509002540 | 75 | 159 | 5.0 | 10.0 | 0.00 | 0.09 | 0.09 | 72 | 1008.1 |
| 20260509002436 | 75 | 173 | 5.0 | 10.0 | 0.00 | 0.09 | 0.09 | 72 | 1008.2 |
| 20260509002406 | 75 | 168 | 6.0 | 10.0 | 0.00 | 0.09 | 0.09 | 72 | 1008.2 |
| 20260509002335 | 75 | 128 | 6.0 | 10.0 | 0.00 | 0.09 | 0.09 | 72 | 1008.1 |
| 20260509002233 | 75 | 144 | 6.0 | 10.0 | 0.00 | 0.09 | 0.09 | 72 | 1008.2 |
| 20260509002134 | 75 | 172 | 5.0 | 9.0 | 0.00 | 0.09 | 0.09 | 72 | 1008.1 |
| 20260509002032 | 75 | 127 | 4.0 | 9.0 | 0.00 | 0.09 | 0.09 | 73 | 1008.1 |
| 20260509001934 | 75 | 190 | 4.0 | 7.0 | 0.00 | 0.09 | 0.09 | 73 | 1008.1 |
| 20260509001904 | 75 | 159 | 4.0 | 7.0 | 0.00 | 0.09 | 0.09 | 73 | 1008.1 |
| 20260509001834 | 75 | 142 | 4.0 | 7.0 | 0.00 | 0.09 | 0.09 | 72 | 1008.1 |
| 20260509001633 | 75 | 154 | 3.0 | 10.0 | 0.00 | 0.09 | 0.09 | 73 | 1008.1 |
| 20260509001533 | 75 | 162 | 3.0 | 10.0 | 0.00 | 0.09 | 0.09 | 73 | 1008.1 |
| 20260509001434 | 75 | 183 | 4.0 | 10.0 | 0.00 | 0.09 | 0.09 | 73 | 1008.2 |
| 20260509001404 | 75 | 172 | 4.0 | 10.0 | 0.00 | 0.09 | 0.09 | 73 | 1008.2 |
| 20260509001333 | 75 | 195 | 3.0 | 11.0 | 0.00 | 0.09 | 0.09 | 73 | 1008.1 |
| 20260509001234 | 75 | 144 | 3.0 | 11.0 | 0.00 | 0.09 | 0.09 | 73 | 1008.1 |
| 20260509001133 | 75 | 173 | 4.0 | 13.0 | 0.00 | 0.09 | 0.09 | 73 | 1008.1 |
| 20260509001033 | 75 | 148 | 4.0 | 13.0 | 0.00 | 0.09 | 0.09 | 73 | 1008.1 |
| 20260509000933 | 75 | 172 | 5.0 | 13.0 | 0.00 | 0.09 | 0.09 | 73 | 1008.1 |
| 20260509000906 | 75 | 165 | 5.0 | 13.0 | 0.00 | 0.09 | 0.09 | 72 | 1008.1 |
| 20260509000833 | 75 | 155 | 5.0 | 13.0 | 0.00 | 0.09 | 0.09 | 72 | 1008.1 |
| 20260509000733 | 75 | 168 | 5.0 | 13.0 | 0.00 | 0.09 | 0.09 | 73 | 1008.2 |
| 20260509000634 | 75 | 173 | 6.0 | 13.0 | 0.00 | 0.09 | 0.09 | 73 | 1008.2 |
| 20260509000534 | 75 | 149 | 7.0 | 13.0 | 0.00 | 0.09 | 0.09 | 72 | 1008.2 |
| 20260509000434 | 75 | 169 | 7.0 | 13.0 | 0.00 | 0.09 | 0.09 | 72 | 1008.2 |
| 20260509000404 | 75 | 137 | 8.0 | 13.0 | 0.00 | 0.09 | 0.09 | 73 | 1008.2 |
| 20260509000333 | 75 | 164 | 7.0 | 13.0 | 0.00 | 0.09 | 0.09 | 73 | 1008.1 |
| 20260509000234 | 75 | 183 | 7.0 | 13.0 | 0.00 | 0.09 | 0.09 | 73 | 1008.1 |
| 20260509000134 | 75 | 176 | 6.0 | 12.0 | 0.00 | 0.09 | 0.00 | 73 | 1008.1 |
| 20260509000033 | 75 | 193 | 7.0 | 12.0 | 0.00 | 0.09 | 0.09 | 72 | 1008.1 |
| 20260508235933 | 75 | 202 | 7.0 | 12.0 | 0.00 | 0.09 | 0.09 | 72 | 1008.2 |
| 20260508235905 | 75 | 182 | 6.0 | 12.0 | 0.00 | 0.09 | 0.09 | 72 | 1008.2 |
| 20260508235834 | 75 | 188 | 6.0 | 12.0 | 0.00 | 0.09 | 0.09 | 72 | 1008.2 |
| 20260508235733 | 75 | 164 | 5.0 | 12.0 | 0.00 | 0.09 | 0.09 | 72 | 1008.1 |
| 20260508235633 | 75 | 165 | 6.0 | 12.0 | 0.00 | 0.09 | 0.09 | 72 | 1008.1 |
| 20260508235532 | 75 | 188 | 5.0 | 12.0 | 0.00 | 0.09 | 0.09 | 72 | 1008.2 |
| 20260508235433 | 76 | 178 | 6.0 | 13.0 | 0.00 | 0.09 | 0.09 | 72 | 1008.2 |
| 20260508235405 | 76 | 186 | 6.0 | 13.0 | 0.00 | 0.09 | 0.09 | 72 | 1008.2 |
| 20260508235333 | 76 | 157 | 6.0 | 13.0 | 0.00 | 0.09 | 0.09 | 72 | 1008.2 |
| 20260508235233 | 76 | 212 | 5.0 | 13.0 | 0.00 | 0.09 | 0.09 | 71 | 1008.2 |
| 20260508235132 | 76 | 196 | 5.0 | 13.0 | 0.00 | 0.09 | 0.09 | 71 | 1008.2 |
| 20260508235031 | 76 | 186 | 6.0 | 13.0 | 0.00 | 0.09 | 0.09 | 71 | 1008.2 |
| 20260508234932 | 76 | 185 | 6.0 | 13.0 | 0.00 | 0.09 | 0.09 | 71 | 1008.2 |
| 20260508234905 | 76 | 162 | 5.0 | 13.0 | 0.00 | 0.09 | 0.09 | 71 | 1008.2 |
| 20260508234831 | 76 | 182 | 6.0 | 13.0 | 0.00 | 0.09 | 0.09 | 70 | 1008.2 |
| 20260508234733 | 76 | 185 | 6.0 | 13.0 | 0.00 | 0.09 | 0.09 | 70 | 1008.3 |
| 20260508234630 | 76 | 199 | 7.0 | 13.0 | 0.00 | 0.09 | 0.09 | 70 | 1008.2 |
| 20260508234528 | 76 | 197 | 7.0 | 13.0 | 0.00 | 0.09 | 0.09 | 70 | 1008.3 |
| 20260508234425 | 76 | 175 | 6.0 | 11.0 | 0.00 | 0.09 | 0.09 | 70 | 1008.2 |
| 20260508234405 | 76 | 185 | 6.0 | 11.0 | 0.00 | 0.09 | 0.09 | 70 | 1008.2 |
| 20260508234324 | 77 | 185 | 6.0 | 11.0 | 0.00 | 0.09 | 0.09 | 70 | 1008.2 |
| 20260508234225 | 77 | 127 | 6.0 | 11.0 | 0.00 | 0.09 | 0.09 | 70 | 1008.2 |
| 20260508234123 | 77 | 209 | 5.0 | 11.0 | 0.00 | 0.09 | 0.09 | 70 | 1008.2 |
| 20260508234021 | 77 | 155 | 3.0 | 11.0 | 0.00 | 0.09 | 0.09 | 70 | 1008.2 |
| 20260508233919 | 77 | 171 | 5.0 | 11.0 | 0.00 | 0.09 | 0.09 | 70 | 1008.2 |
| 20260508233905 | 77 | 165 | 5.0 | 11.0 | 0.00 | 0.09 | 0.09 | 70 | 1008.2 |
| 20260508233818 | 77 | 186 | 6.0 | 11.0 | 0.00 | 0.09 | 0.09 | 70 | 1008.2 |
| 20260508233717 | 77 | 180 | 6.0 | 11.0 | 0.00 | 0.09 | 0.09 | 70 | 1008.2 |
| 20260508233614 | 77 | 140 | 7.0 | 11.0 | 0.00 | 0.09 | 0.09 | 69 | 1008.2 |
| 20260508233514 | 77 | 162 | 7.0 | 11.0 | 0.00 | 0.09 | 0.09 | 70 | 1008.3 |
| 20260508233413 | 77 | 120 | 6.0 | 11.0 | 0.00 | 0.09 | 0.09 | 70 | 1008.1 |
| 20260508233405 | 77 | 141 | 7.0 | 11.0 | 0.00 | 0.09 | 0.09 | 70 | 1008.1 |
| 20260508233311 | 77 | 121 | 6.0 | 11.0 | 0.00 | 0.09 | 0.09 | 70 | 1008.2 |
| 20260508233210 | 77 | 145 | 5.0 | 10.0 | 0.00 | 0.09 | 0.09 | 70 | 1008.3 |
| 20260508233106 | 77 | 185 | 4.0 | 10.0 | 0.00 | 0.09 | 0.09 | 70 | 1008.3 |
| 20260508233008 | 77 | 151 | 4.0 | 9.0 | 0.00 | 0.09 | 0.09 | 70 | 1008.3 |
| 20260508232905 | 77 | 164 | 5.0 | 9.0 | 0.00 | 0.09 | 0.09 | 69 | 1008.3 |
| 20260508232820 | 78 | 166 | 4.0 | 10.0 | 0.00 | 0.09 | 0.09 | 69 | 1008.4 |
| 20260508232810 | 77 | 133 | 6.0 | 9.0 | 0.00 | 0.09 | 0.09 | 70 | 1008.3 |
| 20260508232738 | 77 | 141 | 5.0 | 10.0 | 0.00 | 0.09 | 0.09 | 69 | 1008.3 |
| 20260508232707 | 77 | 157 | 6.0 | 10.0 | 0.00 | 0.09 | 0.09 | 69 | 1008.3 |
| 20260508232635 | 77 | 162 | 5.0 | 10.0 | 0.00 | 0.09 | 0.09 | 70 | 1008.3 |
| 20260508232357 | 78 | 173 | 4.0 | 10.0 | 0.00 | 0.09 | 0.09 | 69 | 1008.4 |
| 20260508232252 | 78 | 196 | 4.0 | 11.0 | 0.00 | 0.09 | 0.09 | 69 | 1008.4 |
| 20260508232150 | 78 | 189 | 5.0 | 11.0 | 0.00 | 0.09 | 0.09 | 69 | 1008.4 |
| 20260508232048 | 78 | 157 | 6.0 | 11.0 | 0.00 | 0.09 | 0.09 | 68 | 1008.4 |
| 20260508231948 | 78 | 152 | 5.0 | 11.0 | 0.00 | 0.09 | 0.09 | 69 | 1008.3 |
| 20260508231904 | 78 | 159 | 5.0 | 11.0 | 0.00 | 0.09 | 0.09 | 69 | 1008.4 |
| 20260508231846 | 78 | 134 | 5.0 | 11.0 | 0.00 | 0.09 | 0.09 | 69 | 1008.4 |
| 20260508231744 | 78 | 175 | 5.0 | 11.0 | 0.00 | 0.09 | 0.09 | 69 | 1008.4 |
| 20260508231642 | 78 | 149 | 4.0 | 11.0 | 0.00 | 0.09 | 0.09 | 69 | 1008.3 |
| 20260508231540 | 78 | 152 | 4.0 | 11.0 | 0.00 | 0.09 | 0.09 | 69 | 1008.4 |
| 20260508231440 | 78 | 154 | 5.0 | 11.0 | 0.00 | 0.09 | 0.09 | 69 | 1008.3 |
| 20260508231404 | 78 | 155 | 5.0 | 11.0 | 0.00 | 0.09 | 0.09 | 69 | 1008.3 |
| 20260508231334 | 78 | 128 | 4.0 | 11.0 | 0.00 | 0.09 | 0.09 | 69 | 1008.3 |
| 20260508231316 | 78 | 138 | 6.0 | 10.0 | 0.00 | 0.09 | 0.09 | 69 | 1008.3 |
| 20260508231251 | 78 | 166 | 4.0 | 10.0 | 0.00 | 0.09 | 0.09 | 69 | 1008.3 |
| 20260508231221 | 78 | 149 | 4.0 | 10.0 | 0.00 | 0.09 | 0.09 | 70 | 1008.3 |
| 20260508231153 | 78 | 158 | 5.0 | 10.0 | 0.00 | 0.09 | 0.09 | 69 | 1008.3 |
| 20260508231121 | 78 | 120 | 5.0 | 10.0 | 0.00 | 0.09 | 0.09 | 69 | 1008.3 |
| 20260508230825 | 78 | 182 | 5.0 | 10.0 | 0.00 | 0.09 | 0.09 | 69 | 1008.3 |
| 20260508230718 | 78 | 183 | 5.0 | 10.0 | 0.00 | 0.09 | 0.09 | 69 | 1008.3 |
| 20260508230616 | 78 | 171 | 4.0 | 7.0 | 0.00 | 0.09 | 0.09 | 70 | 1008.3 |
| 20260508230514 | 78 | 157 | 5.0 | 7.0 | 0.00 | 0.09 | 0.09 | 68 | 1008.4 |
| 20260508230413 | 78 | 172 | 4.0 | 9.0 | 0.00 | 0.09 | 0.09 | 70 | 1008.3 |
| 20260508230404 | 78 | 192 | 4.0 | 9.0 | 0.00 | 0.09 | 0.09 | 70 | 1008.3 |
| 20260508230312 | 78 | 203 | 4.0 | 9.0 | 0.00 | 0.09 | 0.09 | 70 | 1008.3 |
| 20260508230211 | 78 | 161 | 4.0 | 9.0 | 0.00 | 0.09 | 0.09 | 70 | 1008.3 |
| 20260508230109 | 78 | 186 | 3.0 | 9.0 | 0.00 | 0.09 | 0.09 | 69 | 1008.3 |
| 20260508230007 | 77 | 228 | 4.0 | 10.0 | 0.00 | 0.09 | 0.09 | 69 | 1008.3 |
| 20260508225905 | 77 | 157 | 5.0 | 10.0 | 0.00 | 0.09 | 0.09 | 68 | 1008.3 |
| 20260508225805 | 78 | 155 | 5.0 | 10.0 | 0.00 | 0.09 | 0.09 | 68 | 1008.3 |
| 20260508225706 | 78 | 147 | 5.0 | 10.0 | 0.00 | 0.09 | 0.09 | 68 | 1008.3 |
| 20260508225605 | 78 | 141 | 5.0 | 10.0 | 0.00 | 0.09 | 0.09 | 68 | 1008.4 |
| 20260508225506 | 78 | 155 | 5.0 | 10.0 | 0.00 | 0.09 | 0.09 | 69 | 1008.3 |
| 20260508225405 | 78 | 157 | 4.0 | 10.0 | 0.00 | 0.09 | 0.09 | 69 | 1008.3 |
| 20260508225306 | 78 | 185 | 4.0 | 10.0 | 0.00 | 0.09 | 0.09 | 68 | 1008.4 |
| 20260508225204 | 78 | 149 | 5.0 | 10.0 | 0.00 | 0.09 | 0.09 | 67 | 1008.4 |
| 20260508225106 | 78 | 217 | 6.0 | 10.0 | 0.00 | 0.09 | 0.09 | 67 | 1008.3 |
| 20260508225004 | 78 | 165 | 5.0 | 9.0 | 0.00 | 0.09 | 0.09 | 68 | 1008.4 |
| 20260508224907 | 78 | 124 | 4.0 | 10.0 | 0.00 | 0.09 | 0.09 | 69 | 1008.4 |
| 20260508224902 | 78 | 135 | 4.0 | 10.0 | 0.00 | 0.09 | 0.09 | 69 | 1008.4 |
| 20260508224802 | 78 | 209 | 5.0 | 10.0 | 0.00 | 0.09 | 0.09 | 67 | 1008.4 |
| 20260508224700 | 78 | 224 | 5.0 | 10.0 | 0.00 | 0.09 | 0.09 | 67 | 1008.4 |
| 20260508224559 | 78 | 197 | 5.0 | 10.0 | 0.00 | 0.09 | 0.09 | 67 | 1008.4 |
| 20260508224456 | 78 | 176 | 4.0 | 10.0 | 0.00 | 0.09 | 0.09 | 67 | 1008.3 |
| 20260508224404 | 78 | 200 | 4.0 | 10.0 | 0.00 | 0.09 | 0.09 | 68 | 1008.4 |
| 20260508224355 | 78 | 159 | 4.0 | 10.0 | 0.00 | 0.09 | 0.09 | 68 | 1008.4 |
| 20260508224315 | 78 | 209 | 4.0 | 10.0 | 0.00 | 0.09 | 0.09 | 68 | 1008.4 |
| 20260508224302 | 78 | 209 | 4.0 | 10.0 | 0.00 | 0.09 | 0.09 | 67 | 1008.3 |
| 20260508224232 | 78 | 147 | 4.0 | 10.0 | 0.00 | 0.09 | 0.09 | 70 | 1008.3 |
| 20260508224201 | 78 | 173 | 6.0 | 10.0 | 0.00 | 0.09 | 0.09 | 69 | 1008.3 |
| 20260508224132 | 78 | 209 | 5.0 | 10.0 | 0.00 | 0.09 | 0.09 | 68 | 1008.4 |
| 20260508223848 | 78 | 199 | 4.0 | 10.0 | 0.00 | 0.09 | 0.09 | 69 | 1008.4 |
| 20260508223744 | 78 | 195 | 5.0 | 9.0 | 0.00 | 0.09 | 0.09 | 68 | 1008.5 |
| 20260508223642 | 78 | 214 | 6.0 | 9.0 | 0.00 | 0.09 | 0.09 | 67 | 1008.5 |
| 20260508223543 | 78 | 188 | 5.0 | 10.0 | 0.00 | 0.09 | 0.09 | 67 | 1008.4 |
| 20260508223443 | 78 | 161 | 4.0 | 10.0 | 0.00 | 0.09 | 0.09 | 68 | 1008.5 |
| 20260508223403 | 78 | 154 | 4.0 | 10.0 | 0.00 | 0.09 | 0.09 | 68 | 1008.5 |
| 20260508223343 | 78 | 176 | 4.0 | 10.0 | 0.00 | 0.09 | 0.09 | 67 | 1008.5 |
| 20260508223242 | 78 | 192 | 4.0 | 10.0 | 0.00 | 0.09 | 0.09 | 68 | 1008.5 |
| 20260508223139 | 78 | 182 | 4.0 | 10.0 | 0.00 | 0.09 | 0.09 | 67 | 1008.5 |
| 20260508223039 | 78 | 176 | 4.0 | 10.0 | 0.00 | 0.09 | 0.09 | 67 | 1008.5 |
| 20260508222938 | 78 | 172 | 4.0 | 10.0 | 0.00 | 0.09 | 0.09 | 68 | 1008.5 |
| 20260508222904 | 78 | 219 | 4.0 | 10.0 | 0.00 | 0.09 | 0.09 | 68 | 1008.5 |
| 20260508222835 | 78 | 210 | 4.0 | 10.0 | 0.00 | 0.09 | 0.09 | 68 | 1008.5 |
| 20260508222731 | 78 | 164 | 4.0 | 10.0 | 0.00 | 0.09 | 0.09 | 67 | 1008.5 |
| 20260508222634 | 78 | 145 | 4.0 | 10.0 | 0.00 | 0.09 | 0.09 | 69 | 1008.5 |
| 20260508222532 | 78 | 145 | 3.0 | 9.0 | 0.00 | 0.09 | 0.09 | 68 | 1008.5 |
| 20260508222432 | 78 | 168 | 4.0 | 10.0 | 0.00 | 0.09 | 0.09 | 68 | 1008.5 |
| 20260508222355 | 78 | 204 | 3.0 | 10.0 | 0.00 | 0.09 | 0.09 | 69 | 1008.5 |
| 20260508222331 | 78 | 189 | 3.0 | 10.0 | 0.00 | 0.09 | 0.09 | 68 | 1008.5 |
| 20260508222307 | 78 | 214 | 4.0 | 10.0 | 0.00 | 0.09 | 0.09 | 67 | 1008.5 |
| 20260508222246 | 78 | 173 | 3.0 | 10.0 | 0.00 | 0.09 | 0.09 | 68 | 1008.5 |
| 20260508222215 | 78 | 195 | 3.0 | 10.0 | 0.00 | 0.09 | 0.09 | 68 | 1008.5 |
| 20260508222144 | 77 | 182 | 3.0 | 10.0 | 0.00 | 0.09 | 0.09 | 68 | 1008.5 |
| 20260508222115 | 77 | 200 | 4.0 | 10.0 | 0.00 | 0.09 | 0.09 | 67 | 1008.5 |
| 20260508221827 | 78 | 188 | 4.0 | 10.0 | 0.00 | 0.09 | 0.09 | 67 | 1008.5 |
| 20260508221727 | 78 | 180 | 3.0 | 10.0 | 0.00 | 0.09 | 0.09 | 67 | 1008.4 |
| 20260508221626 | 78 | 165 | 5.0 | 10.0 | 0.00 | 0.09 | 0.09 | 66 | 1008.5 |
| 20260508221522 | 78 | 158 | 6.0 | 10.0 | 0.00 | 0.09 | 0.09 | 66 | 1008.3 |
| 20260508221421 | 78 | 178 | 5.0 | 10.0 | 0.00 | 0.09 | 0.09 | 66 | 1008.3 |
| 20260508221354 | 78 | 162 | 5.0 | 10.0 | 0.00 | 0.09 | 0.09 | 67 | 1008.3 |
| 20260508221318 | 78 | 171 | 5.0 | 10.0 | 0.00 | 0.09 | 0.09 | 67 | 1008.4 |
| 20260508221218 | 78 | 162 | 6.0 | 10.0 | 0.00 | 0.09 | 0.09 | 67 | 1008.4 |
| 20260508221114 | 78 | 137 | 5.0 | 10.0 | 0.00 | 0.09 | 0.09 | 68 | 1008.4 |
| 20260508221015 | 78 | 128 | 3.0 | 10.0 | 0.00 | 0.09 | 0.09 | 67 | 1008.3 |
| 20260508220913 | 78 | 204 | 4.0 | 10.0 | 0.00 | 0.09 | 0.09 | 68 | 1008.3 |
| 20260508220851 | 78 | 195 | 4.0 | 10.0 | 0.00 | 0.09 | 0.09 | 67 | 1008.3 |
| 20260508220811 | 78 | 195 | 5.0 | 10.0 | 0.00 | 0.09 | 0.09 | 67 | 1008.4 |
| 20260508220710 | 78 | 188 | 5.0 | 10.0 | 0.00 | 0.09 | 0.09 | 67 | 1008.4 |
| 20260508220605 | 78 | 169 | 4.0 | 10.0 | 0.00 | 0.09 | 0.09 | 66 | 1008.4 |
| 20260508220502 | 78 | 196 | 5.0 | 10.0 | 0.00 | 0.09 | 0.09 | 66 | 1008.4 |
| 20260508220402 | 78 | 185 | 5.0 | 10.0 | 0.00 | 0.09 | 0.09 | 67 | 1008.4 |
| 20260508220351 | 78 | 200 | 5.0 | 10.0 | 0.00 | 0.09 | 0.09 | 66 | 1008.4 |
| 20260508220303 | 78 | 195 | 5.0 | 10.0 | 0.00 | 0.09 | 0.09 | 66 | 1008.4 |
| 20260508220203 | 78 | 166 | 4.0 | 9.0 | 0.00 | 0.09 | 0.09 | 66 | 1008.5 |
| 20260508220103 | 78 | 172 | 4.0 | 9.0 | 0.00 | 0.09 | 0.09 | 66 | 1008.5 |
| 20260508220002 | 78 | 220 | 5.0 | 9.0 | 0.00 | 0.09 | 0.09 | 65 | 1008.4 |
| 20260508215902 | 79 | 213 | 4.0 | 9.0 | 0.00 | 0.09 | 0.09 | 66 | 1008.4 |
| 20260508215852 | 79 | 169 | 4.0 | 9.0 | 0.00 | 0.09 | 0.09 | 66 | 1008.4 |
| 20260508215805 | 79 | 219 | 5.0 | 9.0 | 0.00 | 0.09 | 0.09 | 67 | 1008.4 |
| 20260508215702 | 79 | 162 | 4.0 | 9.0 | 0.00 | 0.09 | 0.09 | 66 | 1008.4 |
| 20260508215603 | 79 | 230 | 3.0 | 9.0 | 0.00 | 0.09 | 0.09 | 66 | 1008.4 |
| 20260508215502 | 79 | 210 | 3.0 | 9.0 | 0.00 | 0.09 | 0.09 | 66 | 1008.4 |
| 20260508215403 | 79 | 221 | 4.0 | 9.0 | 0.00 | 0.09 | 0.09 | 67 | 1008.4 |
| 20260508215353 | 79 | 171 | 4.0 | 9.0 | 0.00 | 0.09 | 0.09 | 67 | 1008.4 |
| 20260508215306 | 79 | 154 | 5.0 | 9.0 | 0.00 | 0.09 | 0.09 | 63 | 1008.4 |
| 20260508215148 | 79 | 195 | 5.0 | 9.0 | 0.00 | 0.09 | 0.09 | 66 | 1008.4 |
| 20260508215047 | 79 | 157 | 4.0 | 9.0 | 0.00 | 0.09 | 0.09 | 65 | 1008.4 |
| 20260508214947 | 79 | 182 | 4.0 | 9.0 | 0.00 | 0.09 | 0.09 | 66 | 1008.4 |
| 20260508214845 | 79 | 182 | 5.0 | 9.0 | 0.00 | 0.09 | 0.09 | 64 | 1008.4 |
| 20260508214742 | 79 | 171 | 5.0 | 9.0 | 0.00 | 0.09 | 0.09 | 64 | 1008.4 |
| 20260508214641 | 79 | 173 | 4.0 | 9.0 | 0.00 | 0.09 | 0.09 | 65 | 1008.3 |
| 20260508214541 | 79 | 165 | 4.0 | 9.0 | 0.00 | 0.09 | 0.09 | 64 | 1008.4 |
| 20260508214440 | 79 | 175 | 4.0 | 9.0 | 0.00 | 0.09 | 0.09 | 64 | 1008.4 |
| 20260508214346 | 79 | 155 | 3.0 | 9.0 | 0.00 | 0.09 | 0.09 | 65 | 1008.4 |
| 20260508214340 | 79 | 171 | 3.0 | 9.0 | 0.00 | 0.09 | 0.09 | 65 | 1008.4 |
| 20260508214240 | 79 | 162 | 3.0 | 9.0 | 0.00 | 0.09 | 0.09 | 64 | 1008.3 |
| 20260508214140 | 79 | 176 | 4.0 | 9.0 | 0.00 | 0.09 | 0.09 | 64 | 1008.3 |
| 20260508214041 | 79 | 141 | 6.0 | 9.0 | 0.00 | 0.09 | 0.09 | 64 | 1008.3 |
| 20260508213941 | 79 | 124 | 6.0 | 9.0 | 0.00 | 0.09 | 0.09 | 63 | 1008.3 |
| 20260508213846 | 79 | 155 | 5.0 | 9.0 | 0.00 | 0.09 | 0.09 | 63 | 1008.4 |
| 20260508213840 | 79 | 166 | 5.0 | 9.0 | 0.00 | 0.09 | 0.09 | 63 | 1008.4 |
| 20260508213740 | 80 | 128 | 4.0 | 9.0 | 0.00 | 0.09 | 0.09 | 64 | 1008.3 |
| 20260508213641 | 80 | 118 | 4.0 | 9.0 | 0.00 | 0.09 | 0.09 | 62 | 1008.3 |
| 20260508213539 | 80 | 118 | 5.0 | 10.0 | 0.00 | 0.09 | 0.09 | 63 | 1008.3 |
| 20260508213441 | 80 | 133 | 5.0 | 10.0 | 0.00 | 0.09 | 0.09 | 64 | 1008.3 |
| 20260508213344 | 80 | 137 | 3.0 | 10.0 | 0.00 | 0.09 | 0.09 | 65 | 1008.3 |
| 20260508213341 | 80 | 131 | 3.0 | 10.0 | 0.00 | 0.09 | 0.09 | 65 | 1008.3 |
| 20260508213236 | 80 | 34 | 2.0 | 10.0 | 0.00 | 0.09 | 0.09 | 64 | 1008.3 |
| 20260508213134 | 80 | 158 | 3.0 | 10.0 | 0.00 | 0.09 | 0.09 | 65 | 1008.3 |
| 20260508213032 | 79 | 120 | 4.0 | 10.0 | 0.00 | 0.09 | 0.09 | 64 | 1008.3 |
| 20260508212931 | 79 | 111 | 4.0 | 10.0 | 0.00 | 0.09 | 0.09 | 66 | 1008.4 |
| 20260508212843 | 79 | 137 | 5.0 | 10.0 | 0.00 | 0.09 | 0.09 | 67 | 1008.4 |
| 20260508212832 | 79 | 182 | 5.0 | 10.0 | 0.00 | 0.09 | 0.09 | 67 | 1008.3 |
| 20260508212731 | 79 | 157 | 5.0 | 11.0 | 0.00 | 0.09 | 0.09 | 65 | 1008.3 |
| 20260508212631 | 79 | 182 | 5.0 | 11.0 | 0.00 | 0.09 | 0.09 | 65 | 1008.3 |
| 20260508212532 | 79 | 188 | 6.0 | 11.0 | 0.00 | 0.09 | 0.09 | 64 | 1008.4 |
| 20260508212432 | 79 | 154 | 6.0 | 11.0 | 0.00 | 0.09 | 0.09 | 64 | 1008.4 |
| 20260508212342 | 79 | 121 | 5.0 | 11.0 | 0.00 | 0.09 | 0.09 | 66 | 1008.4 |
| 20260508212331 | 79 | 159 | 4.0 | 11.0 | 0.00 | 0.09 | 0.09 | 66 | 1008.3 |
| 20260508212230 | 79 | 140 | 5.0 | 12.0 | 0.00 | 0.09 | 0.09 | 65 | 1008.3 |
| 20260508212131 | 79 | 133 | 5.0 | 12.0 | 0.00 | 0.09 | 0.09 | 64 | 1008.4 |
| 20260508212032 | 79 | 135 | 4.0 | 12.0 | 0.00 | 0.09 | 0.09 | 65 | 1008.5 |
| 20260508211934 | 79 | 144 | 5.0 | 12.0 | 0.00 | 0.09 | 0.09 | 62 | 1008.5 |
| 20260508211843 | 79 | 165 | 6.0 | 13.0 | 0.00 | 0.09 | 0.09 | 62 | 1008.5 |
| 20260508211830 | 79 | 196 | 5.0 | 13.0 | 0.00 | 0.09 | 0.09 | 65 | 1008.5 |
| 20260508211730 | 79 | 158 | 6.0 | 13.0 | 0.00 | 0.09 | 0.09 | 66 | 1008.7 |
| 20260508211627 | 79 | 142 | 7.0 | 13.0 | 0.00 | 0.09 | 0.09 | 64 | 1008.8 |
| 20260508211525 | 79 | 124 | 6.0 | 13.0 | 0.00 | 0.09 | 0.09 | 65 | 1008.7 |
| 20260508211422 | 79 | 141 | 6.0 | 13.0 | 0.00 | 0.09 | 0.09 | 66 | 1008.8 |
| 20260508211345 | 79 | 152 | 6.0 | 13.0 | 0.00 | 0.09 | 0.09 | 66 | 1008.8 |
| 20260508211305 | 78 | 138 | 6.0 | 13.0 | 0.00 | 0.09 | 0.09 | 65 | 1008.8 |
| 20260508211206 | 78 | 142 | 6.0 | 13.0 | 0.00 | 0.09 | 0.09 | 64 | 1008.9 |
| 20260508211105 | 78 | 157 | 6.0 | 13.0 | 0.00 | 0.09 | 0.09 | 65 | 1008.9 |
| 20260508211004 | 78 | 152 | 7.0 | 13.0 | 0.00 | 0.09 | 0.09 | 65 | 1008.9 |
| 20260508210905 | 78 | 179 | 6.0 | 12.0 | 0.00 | 0.09 | 0.09 | 65 | 1009.0 |
| 20260508210842 | 78 | 171 | 6.0 | 12.0 | 0.00 | 0.09 | 0.09 | 65 | 1009.0 |
| 20260508210804 | 78 | 133 | 7.0 | 12.0 | 0.00 | 0.09 | 0.09 | 65 | 1009.0 |
| 20260508210702 | 78 | 185 | 8.0 | 12.0 | 0.00 | 0.09 | 0.09 | 65 | 1009.0 |
| 20260508210602 | 78 | 183 | 7.0 | 11.0 | 0.00 | 0.09 | 0.09 | 64 | 1009.0 |
| 20260508210503 | 78 | 214 | 6.0 | 14.0 | 0.00 | 0.09 | 0.09 | 65 | 1009.0 |
| 20260508210403 | 78 | 134 | 7.0 | 14.0 | 0.00 | 0.09 | 0.09 | 65 | 1009.1 |
| 20260508210342 | 78 | 130 | 6.0 | 14.0 | 0.00 | 0.09 | 0.09 | 65 | 1009.1 |
| 20260508210302 | 78 | 166 | 6.0 | 14.0 | 0.00 | 0.09 | 0.09 | 65 | 1009.1 |
| 20260508210204 | 79 | 195 | 6.0 | 14.0 | 0.00 | 0.09 | 0.09 | 65 | 1009.1 |
| 20260508210104 | 78 | 168 | 6.0 | 14.0 | 0.00 | 0.09 | 0.09 | 65 | 1009.2 |
| 20260508210001 | 79 | 154 | 5.0 | 14.0 | 0.00 | 0.09 | 0.09 | 64 | 1009.1 |
| 20260508205901 | 78 | 159 | 5.0 | 14.0 | 0.00 | 0.09 | 0.09 | 65 | 1009.2 |
| 20260508205842 | 78 | 183 | 6.0 | 14.0 | 0.00 | 0.09 | 0.09 | 65 | 1009.2 |
| 20260508205758 | 78 | 168 | 7.0 | 14.0 | 0.00 | 0.09 | 0.09 | 66 | 1009.3 |
| 20260508205657 | 78 | 210 | 8.0 | 14.0 | 0.00 | 0.09 | 0.09 | 65 | 1009.3 |
| 20260508205556 | 78 | 190 | 9.0 | 14.0 | 0.00 | 0.09 | 0.09 | 64 | 1009.4 |
| 20260508205454 | 78 | 216 | 9.0 | 14.0 | 0.00 | 0.09 | 0.09 | 64 | 1009.5 |
| 20260508205348 | 79 | 186 | 8.0 | 14.0 | 0.00 | 0.09 | 0.09 | 64 | 1009.5 |
| 20260508205339 | 79 | 172 | 8.0 | 14.0 | 0.00 | 0.09 | 0.09 | 64 | 1009.5 |
| 20260508205247 | 79 | 219 | 7.0 | 12.0 | 0.00 | 0.09 | 0.09 | 66 | 1009.5 |
| 20260508205144 | 79 | 165 | 6.0 | 12.0 | 0.00 | 0.09 | 0.09 | 66 | 1009.6 |
| 20260508205043 | 79 | 166 | 6.0 | 12.0 | 0.00 | 0.09 | 0.09 | 66 | 1009.6 |
| 20260508204941 | 79 | 169 | 6.0 | 12.0 | 0.00 | 0.09 | 0.09 | 64 | 1009.6 |
| 20260508204841 | 80 | 175 | 6.0 | 12.0 | 0.00 | 0.09 | 0.09 | 64 | 1009.7 |
| 20260508204740 | 80 | 147 | 6.0 | 12.0 | 0.00 | 0.09 | 0.09 | 63 | 1009.7 |
| 20260508204640 | 80 | 121 | 7.0 | 12.0 | 0.00 | 0.09 | 0.09 | 63 | 1009.7 |
| 20260508204539 | 80 | 161 | 7.0 | 12.0 | 0.00 | 0.09 | 0.09 | 64 | 1009.7 |
| 20260508204442 | 80 | 189 | 8.0 | 12.0 | 0.00 | 0.09 | 0.09 | 62 | 1009.7 |
| 20260508204339 | 80 | 140 | 7.0 | 12.0 | 0.00 | 0.09 | 0.09 | 64 | 1009.8 |
| 20260508204241 | 80 | 137 | 7.0 | 12.0 | 0.00 | 0.09 | 0.09 | 63 | 1009.8 |
| 20260508204140 | 80 | 169 | 7.0 | 11.0 | 0.00 | 0.09 | 0.09 | 63 | 1009.8 |
| 20260508204041 | 80 | 172 | 5.0 | 11.0 | 0.00 | 0.09 | 0.09 | 63 | 1009.8 |
| 20260508203940 | 80 | 121 | 5.0 | 11.0 | 0.00 | 0.09 | 0.09 | 64 | 1009.8 |
| 20260508203840 | 80 | 144 | 6.0 | 11.0 | 0.00 | 0.09 | 0.09 | 62 | 1009.8 |
| 20260508203741 | 80 | 130 | 7.0 | 11.0 | 0.00 | 0.09 | 0.09 | 62 | 1009.9 |
| 20260508203640 | 80 | 179 | 7.0 | 10.0 | 0.00 | 0.09 | 0.09 | 62 | 1009.9 |
| 20260508203540 | 80 | 138 | 6.0 | 10.0 | 0.00 | 0.09 | 0.09 | 62 | 1009.9 |
| 20260508203442 | 80 | 120 | 5.0 | 10.0 | 0.00 | 0.09 | 0.09 | 61 | 1009.8 |
| 20260508203343 | 80 | 221 | 5.0 | 12.0 | 0.00 | 0.09 | 0.09 | 61 | 1009.9 |
| 20260508203339 | 80 | 221 | 5.0 | 12.0 | 0.00 | 0.09 | 0.09 | 61 | 1009.8 |
| 20260508203237 | 80 | 190 | 5.0 | 12.0 | 0.00 | 0.09 | 0.09 | 63 | 1009.8 |
| 20260508203136 | 80 | 192 | 4.0 | 12.0 | 0.00 | 0.09 | 0.09 | 64 | 1009.9 |
| 20260508203034 | 80 | 212 | 3.0 | 12.0 | 0.00 | 0.09 | 0.09 | 64 | 1009.9 |
| 20260508202932 | 80 | 186 | 4.0 | 12.0 | 0.00 | 0.09 | 0.09 | 61 | 1010.0 |
| 20260508202839 | 80 | 189 | 5.0 | 12.0 | 0.00 | 0.09 | 0.09 | 62 | 1010.0 |
| 20260508202833 | 80 | 188 | 5.0 | 12.0 | 0.00 | 0.09 | 0.09 | 62 | 1009.9 |
| 20260508202733 | 80 | 176 | 5.0 | 12.0 | 0.00 | 0.09 | 0.09 | 62 | 1010.0 |
| 20260508202634 | 80 | 173 | 5.0 | 12.0 | 0.00 | 0.09 | 0.09 | 62 | 1010.0 |
| 20260508202533 | 80 | 189 | 8.0 | 12.0 | 0.00 | 0.09 | 0.09 | 63 | 1010.0 |
| 20260508202433 | 80 | 166 | 7.0 | 12.0 | 0.00 | 0.09 | 0.09 | 61 | 1009.9 |
| 20260508202340 | 80 | 165 | 7.0 | 12.0 | 0.00 | 0.09 | 0.09 | 65 | 1009.9 |
| 20260508202334 | 80 | 175 | 6.0 | 12.0 | 0.00 | 0.09 | 0.09 | 65 | 1009.9 |
| 20260508202233 | 79 | 179 | 7.0 | 12.0 | 0.00 | 0.09 | 0.09 | 62 | 1009.9 |
| 20260508202132 | 79 | 234 | 6.0 | 12.0 | 0.00 | 0.09 | 0.09 | 63 | 1009.9 |
| 20260508202033 | 79 | 192 | 6.0 | 12.0 | 0.00 | 0.09 | 0.09 | 61 | 1009.9 |
| 20260508201934 | 79 | 217 | 5.0 | 12.0 | 0.00 | 0.09 | 0.09 | 61 | 1009.9 |
| 20260508201839 | 79 | 185 | 6.0 | 12.0 | 0.00 | 0.09 | 0.09 | 62 | 1009.9 |
| 20260508201832 | 79 | 216 | 6.0 | 12.0 | 0.00 | 0.09 | 0.09 | 62 | 1010.0 |
| 20260508201734 | 79 | 189 | 7.0 | 12.0 | 0.00 | 0.09 | 0.09 | 61 | 1010.0 |
| 20260508201634 | 79 | 212 | 8.0 | 12.0 | 0.00 | 0.09 | 0.09 | 61 | 1010.0 |
| 20260508201535 | 79 | 221 | 6.0 | 12.0 | 0.00 | 0.09 | 0.09 | 62 | 1010.0 |
| 20260508201434 | 79 | 227 | 4.0 | 10.0 | 0.00 | 0.09 | 0.09 | 64 | 1010.0 |
| 20260508201340 | 79 | 202 | 4.0 | 7.0 | 0.00 | 0.09 | 0.09 | 64 | 1010.0 |
| 20260508201332 | 78 | 223 | 4.0 | 7.0 | 0.00 | 0.09 | 0.09 | 64 | 1010.0 |
| 20260508201234 | 78 | 206 | 5.0 | 7.0 | 0.00 | 0.09 | 0.09 | 62 | 1010.1 |
| 20260508201147 | 78 | 135 | 6.0 | 10.0 | 0.00 | 0.09 | 0.09 | 61 | 1010.4 |
| 20260508201138 | 78 | 206 | 5.0 | 9.0 | 0.00 | 0.09 | 0.09 | 61 | 1010.1 |
| 20260508201106 | 78 | 204 | 5.0 | 9.0 | 0.00 | 0.09 | 0.09 | 61 | 1010.1 |
| 20260508201036 | 78 | 195 | 5.0 | 9.0 | 0.00 | 0.09 | 0.09 | 62 | 1010.2 |
| 20260508201007 | 78 | 145 | 4.0 | 9.0 | 0.00 | 0.09 | 0.09 | 63 | 1010.2 |
| 20260508201001 | 78 | 142 | 4.0 | 9.0 | 0.00 | 0.09 | 0.09 | 64 | 1010.2 |
| 20260508200933 | 78 | 149 | 3.0 | 9.0 | 0.00 | 0.09 | 0.09 | 63 | 1010.2 |
| 20260508200653 | 78 | 183 | 4.0 | 10.0 | 0.00 | 0.09 | 0.09 | 61 | 1010.3 |
| 20260508200624 | 78 | 138 | 4.0 | 10.0 | 0.00 | 0.09 | 0.09 | 62 | 1010.3 |
| 20260508200553 | 78 | 151 | 3.0 | 10.0 | 0.00 | 0.09 | 0.09 | 61 | 1010.3 |
| 20260508200525 | 78 | 133 | 4.0 | 10.0 | 0.00 | 0.09 | 0.09 | 61 | 1010.3 |
| 20260508200518 | 78 | 134 | 4.0 | 10.0 | 0.00 | 0.09 | 0.09 | 61 | 1010.4 |
| 20260508200239 | 78 | 202 | 6.0 | 10.0 | 0.00 | 0.09 | 0.09 | 60 | 1010.4 |
| 20260508200210 | 78 | 199 | 5.0 | 10.0 | 0.00 | 0.09 | 0.09 | 61 | 1010.4 |
| 20260508200144 | 78 | 144 | 5.0 | 10.0 | 0.00 | 0.09 | 0.09 | 60 | 1010.4 |
| 20260508200114 | 78 | 137 | 5.0 | 10.0 | 0.00 | 0.09 | 0.09 | 62 | 1010.4 |
| 20260508195833 | 78 | 164 | 6.0 | 10.0 | 0.00 | 0.09 | 0.09 | 61 | 1010.4 |
| 20260508195733 | 78 | 123 | 5.0 | 10.0 | 0.00 | 0.09 | 0.09 | 62 | 1010.4 |
| 20260508195633 | 78 | 120 | 4.0 | 10.0 | 0.00 | 0.09 | 0.09 | 61 | 1010.3 |
| 20260508195533 | 78 | 125 | 5.0 | 10.0 | 0.00 | 0.09 | 0.09 | 61 | 1010.3 |
| 20260508195434 | 78 | 135 | 5.0 | 10.0 | 0.00 | 0.09 | 0.09 | 62 | 1010.4 |
| 20260508195338 | 78 | 151 | 5.0 | 10.0 | 0.00 | 0.09 | 0.09 | 62 | 1010.4 |
| 20260508195333 | 78 | 155 | 5.0 | 10.0 | 0.00 | 0.09 | 0.09 | 62 | 1010.4 |
| 20260508195233 | 78 | 130 | 6.0 | 10.0 | 0.00 | 0.09 | 0.09 | 61 | 1010.4 |
| 20260508195133 | 78 | 169 | 6.0 | 10.0 | 0.00 | 0.09 | 0.09 | 60 | 1010.5 |
| 20260508195032 | 79 | 228 | 4.0 | 7.0 | 0.00 | 0.09 | 0.09 | 61 | 1010.5 |
| 20260508194932 | 79 | 188 | 4.0 | 7.0 | 0.00 | 0.09 | 0.09 | 63 | 1010.4 |
| 20260508194839 | 78 | 133 | 4.0 | 7.0 | 0.00 | 0.09 | 0.09 | 62 | 1010.4 |
| 20260508194834 | 78 | 142 | 4.0 | 7.0 | 0.00 | 0.09 | 0.09 | 62 | 1010.5 |
| 20260508194741 | 78 | 180 | 4.0 | 7.0 | 0.00 | 0.09 | 0.09 | 61 | 1010.5 |
| 20260508194733 | 78 | 141 | 4.0 | 7.0 | 0.00 | 0.09 | 0.09 | 60 | 1010.5 |
| 20260508194704 | 78 | 159 | 5.0 | 7.0 | 0.00 | 0.09 | 0.09 | 60 | 1010.5 |
| 20260508194635 | 78 | 182 | 5.0 | 7.0 | 0.00 | 0.09 | 0.09 | 60 | 1010.5 |
| 20260508194607 | 79 | 152 | 4.0 | 7.0 | 0.00 | 0.09 | 0.09 | 61 | 1010.5 |
| 20260508194333 | 78 | 180 | 4.0 | 7.0 | 0.00 | 0.09 | 0.09 | 61 | 1010.5 |
| 20260508194234 | 78 | 214 | 3.0 | 7.0 | 0.00 | 0.09 | 0.09 | 61 | 1010.5 |
| 20260508194132 | 78 | 159 | 4.0 | 7.0 | 0.00 | 0.09 | 0.09 | 62 | 1010.6 |
| 20260508194034 | 78 | 137 | 4.0 | 7.0 | 0.00 | 0.09 | 0.09 | 61 | 1010.6 |
| 20260508193931 | 78 | 138 | 4.0 | 7.0 | 0.00 | 0.09 | 0.09 | 63 | 1010.6 |
| 20260508193840 | 78 | 162 | 3.0 | 9.0 | 0.00 | 0.09 | 0.09 | 63 | 1010.6 |
| 20260508193833 | 78 | 127 | 3.0 | 9.0 | 0.00 | 0.09 | 0.09 | 63 | 1010.5 |
| 20260508193732 | 78 | 144 | 2.0 | 10.0 | 0.00 | 0.09 | 0.09 | 63 | 1010.6 |
| 20260508193634 | 78 | 182 | 3.0 | 10.0 | 0.00 | 0.09 | 0.09 | 62 | 1010.5 |
| 20260508193535 | 78 | 213 | 3.0 | 10.0 | 0.00 | 0.09 | 0.09 | 61 | 1010.6 |
| 20260508193432 | 78 | 197 | 4.0 | 10.0 | 0.00 | 0.09 | 0.09 | 60 | 1010.6 |
| 20260508193338 | 78 | 186 | 4.0 | 10.0 | 0.00 | 0.09 | 0.09 | 62 | 1010.6 |
| 20260508193333 | 78 | 195 | 4.0 | 10.0 | 0.00 | 0.09 | 0.09 | 60 | 1010.6 |
| 20260508193233 | 78 | 165 | 4.0 | 10.0 | 0.00 | 0.09 | 0.09 | 63 | 1010.5 |
| 20260508193134 | 78 | 180 | 5.0 | 10.0 | 0.00 | 0.09 | 0.09 | 62 | 1010.5 |
| 20260508193034 | 78 | 202 | 6.0 | 10.0 | 0.00 | 0.09 | 0.09 | 60 | 1010.5 |
| 20260508192932 | 78 | 210 | 6.0 | 10.0 | 0.00 | 0.09 | 0.09 | 61 | 1010.5 |
| 20260508192833 | 78 | 188 | 6.0 | 10.0 | 0.00 | 0.09 | 0.09 | 60 | 1010.5 |
| 20260508192734 | 79 | 178 | 4.0 | 7.0 | 0.00 | 0.09 | 0.09 | 62 | 1010.5 |
| 20260508192634 | 78 | 120 | 2.0 | 7.0 | 0.00 | 0.09 | 0.09 | 60 | 1010.5 |
| 20260508192533 | 78 | 154 | 1.0 | 7.0 | 0.00 | 0.09 | 0.09 | 60 | 1010.5 |
| 20260508192433 | 78 | 154 | 2.0 | 9.0 | 0.00 | 0.09 | 0.09 | 60 | 1010.6 |
| 20260508192334 | 79 | 152 | 4.0 | 9.0 | 0.00 | 0.09 | 0.09 | 59 | 1010.6 |
| 20260508192232 | 79 | 140 | 5.0 | 11.0 | 0.00 | 0.09 | 0.09 | 60 | 1010.6 |
| 20260508192134 | 79 | 147 | 6.0 | 11.0 | 0.00 | 0.09 | 0.09 | 61 | 1010.6 |
| 20260508192034 | 78 | 144 | 4.0 | 11.0 | 0.00 | 0.09 | 0.09 | 61 | 1010.5 |
| 20260508191933 | 78 | 144 | 4.0 | 11.0 | 0.00 | 0.09 | 0.09 | 61 | 1010.6 |
| 20260508191833 | 78 | 144 | 4.0 | 11.0 | 0.00 | 0.09 | 0.09 | 61 | 1010.6 |
| 20260508191716 | 78 | 131 | 4.0 | 11.0 | 0.00 | 0.09 | 0.09 | 59 | 1010.6 |
| 20260508191615 | 78 | 137 | 4.0 | 11.0 | 0.00 | 0.09 | 0.09 | 61 | 1010.6 |
| 20260508191513 | 78 | 185 | 6.0 | 11.0 | 0.00 | 0.09 | 0.09 | 61 | 1010.6 |
| 20260508191409 | 78 | 134 | 6.0 | 11.0 | 0.00 | 0.09 | 0.09 | 61 | 1010.7 |
| 20260508191336 | 78 | 147 | 6.0 | 11.0 | 0.00 | 0.09 | 0.09 | 61 | 1010.7 |
| 20260508191307 | 78 | 185 | 5.0 | 9.0 | 0.00 | 0.09 | 0.09 | 62 | 1010.6 |
| 20260508191207 | 78 | 192 | 5.0 | 9.0 | 0.00 | 0.09 | 0.09 | 61 | 1010.6 |
| 20260508191059 | 78 | 223 | 4.0 | 9.0 | 0.00 | 0.09 | 0.09 | 61 | 1010.6 |
| 20260508190957 | 78 | 188 | 3.0 | 9.0 | 0.00 | 0.09 | 0.09 | 63 | 1010.6 |
| 20260508190856 | 78 | 173 | 5.0 | 9.0 | 0.00 | 0.09 | 0.09 | 61 | 1010.7 |
| 20260508190836 | 78 | 158 | 5.0 | 9.0 | 0.00 | 0.09 | 0.09 | 61 | 1010.7 |
| 20260508190753 | 78 | 193 | 4.0 | 9.0 | 0.00 | 0.09 | 0.09 | 62 | 1010.7 |
| 20260508190650 | 78 | 203 | 4.0 | 9.0 | 0.00 | 0.09 | 0.09 | 63 | 1010.7 |
| 20260508190549 | 78 | 128 | 6.0 | 9.0 | 0.00 | 0.09 | 0.09 | 61 | 1010.7 |
| 20260508190448 | 78 | 158 | 6.0 | 10.0 | 0.00 | 0.09 | 0.09 | 60 | 1010.7 |
| 20260508190346 | 78 | 168 | 5.0 | 10.0 | 0.00 | 0.09 | 0.09 | 62 | 1010.7 |
| 20260508190337 | 78 | 223 | 5.0 | 10.0 | 0.00 | 0.09 | 0.09 | 62 | 1010.7 |
| 20260508190244 | 78 | 142 | 5.0 | 10.0 | 0.00 | 0.09 | 0.09 | 62 | 1010.8 |
| 20260508190144 | 78 | 120 | 4.0 | 10.0 | 0.00 | 0.09 | 0.09 | 65 | 1010.7 |
| 20260508190042 | 78 | 175 | 4.0 | 10.0 | 0.00 | 0.09 | 0.09 | 61 | 1010.7 |
| 20260508185940 | 78 | 151 | 4.0 | 10.0 | 0.00 | 0.09 | 0.09 | 61 | 1010.7 |
| 20260508185839 | 78 | 189 | 4.0 | 10.0 | 0.00 | 0.09 | 0.09 | 61 | 1010.8 |
| 20260508185738 | 78 | 127 | 4.0 | 10.0 | 0.00 | 0.09 | 0.09 | 63 | 1010.8 |
| 20260508185635 | 77 | 220 | 5.0 | 10.0 | 0.00 | 0.09 | 0.09 | 63 | 1010.8 |
| 20260508185536 | 77 | 192 | 3.0 | 10.0 | 0.00 | 0.09 | 0.09 | 62 | 1010.8 |
| 20260508185433 | 77 | 159 | 2.0 | 9.0 | 0.00 | 0.09 | 0.09 | 60 | 1010.8 |
| 20260508185339 | 77 | 161 | 3.0 | 9.0 | 0.00 | 0.09 | 0.09 | 60 | 1010.8 |
| 20260508185334 | 77 | 161 | 3.0 | 9.0 | 0.00 | 0.09 | 0.09 | 60 | 1010.9 |
| 20260508185233 | 77 | 152 | 4.0 | 9.0 | 0.00 | 0.09 | 0.09 | 61 | 1010.9 |
| 20260508185133 | 78 | 213 | 4.0 | 9.0 | 0.00 | 0.09 | 0.09 | 61 | 1010.8 |
| 20260508185034 | 77 | 157 | 5.0 | 9.0 | 0.00 | 0.09 | 0.09 | 61 | 1010.9 |
| 20260508184933 | 77 | 127 | 4.0 | 9.0 | 0.00 | 0.09 | 0.09 | 65 | 1010.8 |
| 20260508184839 | 77 | 127 | 4.0 | 7.0 | 0.00 | 0.09 | 0.09 | 62 | 1010.8 |
| 20260508184833 | 77 | 133 | 4.0 | 7.0 | 0.00 | 0.09 | 0.09 | 62 | 1010.9 |
| 20260508184731 | 78 | 162 | 5.0 | 7.0 | 0.00 | 0.09 | 0.09 | 64 | 1010.9 |
| 20260508184628 | 77 | 140 | 4.0 | 7.0 | 0.00 | 0.09 | 0.09 | 64 | 1010.9 |
| 20260508184528 | 77 | 152 | 4.0 | 7.0 | 0.00 | 0.09 | 0.09 | 63 | 1010.9 |
| 20260508184424 | 77 | 107 | 4.0 | 7.0 | 0.00 | 0.09 | 0.09 | 63 | 1010.9 |
| 20260508184337 | 77 | 140 | 4.0 | 7.0 | 0.00 | 0.09 | 0.09 | 64 | 1010.9 |
| 20260508184323 | 77 | 162 | 4.0 | 7.0 | 0.00 | 0.09 | 0.09 | 64 | 1010.9 |
| 20260508184222 | 77 | 113 | 3.0 | 7.0 | 0.00 | 0.09 | 0.09 | 65 | 1010.9 |
| 20260508184120 | 76 | 138 | 4.0 | 7.0 | 0.00 | 0.09 | 0.09 | 66 | 1011.0 |
| 20260508184016 | 76 | 140 | 4.0 | 7.0 | 0.00 | 0.09 | 0.09 | 66 | 1011.0 |
| 20260508183917 | 76 | 142 | 3.0 | 7.0 | 0.00 | 0.09 | 0.09 | 63 | 1011.0 |
| 20260508183836 | 76 | 200 | 4.0 | 7.0 | 0.00 | 0.09 | 0.09 | 64 | 1011.0 |
| 20260508183816 | 76 | 254 | 4.0 | 7.0 | 0.00 | 0.09 | 0.09 | 64 | 1011.0 |
| 20260508183714 | 76 | 228 | 4.0 | 7.0 | 0.00 | 0.09 | 0.09 | 62 | 1011.1 |
| 20260508183613 | 76 | 207 | 4.0 | 7.0 | 0.00 | 0.09 | 0.09 | 62 | 1011.1 |
| 20260508183508 | 76 | 176 | 4.0 | 7.0 | 0.00 | 0.09 | 0.09 | 64 | 1011.1 |
| 20260508183406 | 76 | 221 | 3.0 | 7.0 | 0.00 | 0.09 | 0.09 | 63 | 1011.2 |
| 20260508183337 | 76 | 224 | 3.0 | 7.0 | 0.00 | 0.09 | 0.09 | 61 | 1011.2 |
| 20260508183307 | 76 | 123 | 4.0 | 7.0 | 0.00 | 0.09 | 0.09 | 61 | 1011.2 |
| 20260508183206 | 76 | 124 | 5.0 | 7.0 | 0.00 | 0.09 | 0.09 | 63 | 1011.2 |
| 20260508183105 | 76 | 140 | 4.0 | 9.0 | 0.00 | 0.09 | 0.09 | 66 | 1011.2 |
| 20260508183004 | 76 | 179 | 3.0 | 9.0 | 0.00 | 0.09 | 0.09 | 67 | 1011.2 |
| 20260508182902 | 76 | 231 | 4.0 | 9.0 | 0.00 | 0.09 | 0.09 | 64 | 1011.3 |
| 20260508182835 | 76 | 221 | 4.0 | 9.0 | 0.00 | 0.09 | 0.09 | 64 | 1011.3 |
| 20260508182801 | 76 | 202 | 4.0 | 9.0 | 0.00 | 0.09 | 0.09 | 64 | 1011.2 |
| 20260508182700 | 76 | 213 | 3.0 | 9.0 | 0.00 | 0.09 | 0.09 | 65 | 1011.3 |
| 20260508182557 | 76 | 213 | 4.0 | 9.0 | 0.00 | 0.09 | 0.09 | 61 | 1011.3 |
| 20260508182455 | 76 | 221 | 5.0 | 9.0 | 0.00 | 0.09 | 0.09 | 64 | 1011.3 |
| 20260508182354 | 76 | 210 | 5.0 | 9.0 | 0.00 | 0.09 | 0.09 | 62 | 1011.3 |
| 20260508182335 | 76 | 212 | 6.0 | 9.0 | 0.00 | 0.09 | 0.09 | 62 | 1011.3 |
| 20260508182252 | 76 | 216 | 5.0 | 9.0 | 0.00 | 0.09 | 0.09 | 62 | 1011.4 |
| 20260508182233 | 77 | 128 | 4.0 | 7.0 | 0.00 | 0.09 | 0.09 | 63 | 1011.4 |
| 20260508182212 | 77 | 185 | 2.0 | 6.0 | 0.00 | 0.09 | 0.09 | 63 | 1011.3 |
| 20260508182144 | 77 | 196 | 2.0 | 6.0 | 0.00 | 0.09 | 0.09 | 62 | 1011.4 |
| 20260508182118 | 77 | 94 | 4.0 | 7.0 | 0.00 | 0.09 | 0.09 | 61 | 1011.4 |
| 20260508182046 | 77 | 94 | 4.0 | 7.0 | 0.00 | 0.09 | 0.09 | 63 | 1011.4 |
| 20260508181736 | 77 | 161 | 2.0 | 7.0 | 0.00 | 0.09 | 0.09 | 65 | 1011.4 |
| 20260508181634 | 76 | 149 | 2.0 | 7.0 | 0.00 | 0.09 | 0.09 | 67 | 1011.4 |
| 20260508181534 | 76 | 48 | 2.0 | 7.0 | 0.00 | 0.09 | 0.09 | 67 | 1011.5 |
| 20260508181433 | 76 | 133 | 2.0 | 7.0 | 0.00 | 0.09 | 0.09 | 68 | 1011.5 |
| 20260508181339 | 76 | 141 | 2.0 | 7.0 | 0.00 | 0.09 | 0.09 | 66 | 1011.5 |
| 20260508181334 | 76 | 133 | 2.0 | 7.0 | 0.00 | 0.09 | 0.09 | 66 | 1011.5 |
| 20260508181233 | 76 | 185 | 4.0 | 7.0 | 0.00 | 0.09 | 0.09 | 63 | 1011.6 |
| 20260508181134 | 76 | 140 | 5.0 | 7.0 | 0.00 | 0.09 | 0.09 | 64 | 1011.6 |
| 20260508181032 | 76 | 149 | 4.0 | 7.0 | 0.00 | 0.09 | 0.09 | 63 | 1011.6 |
| 20260508180933 | 76 | 176 | 3.0 | 7.0 | 0.00 | 0.09 | 0.09 | 64 | 1011.6 |
| 20260508180834 | 76 | 220 | 4.0 | 7.0 | 0.00 | 0.09 | 0.09 | 67 | 1011.6 |
| 20260508180824 | 76 | 165 | 4.0 | 7.0 | 0.00 | 0.09 | 0.09 | 67 | 1011.7 |
| 20260508180747 | 76 | 110 | 2.0 | 10.0 | 0.00 | 0.09 | 0.09 | 65 | 1011.8 |
| 20260508180733 | 76 | 130 | 4.0 | 7.0 | 0.00 | 0.09 | 0.09 | 66 | 1011.6 |
| 20260508180701 | 76 | 124 | 3.0 | 7.0 | 0.00 | 0.09 | 0.09 | 64 | 1011.6 |
| 20260508180633 | 76 | 176 | 2.0 | 10.0 | 0.00 | 0.09 | 0.09 | 66 | 1011.8 |
| 20260508180602 | 76 | 87 | 2.0 | 10.0 | 0.00 | 0.09 | 0.09 | 63 | 1011.8 |
| 20260508180317 | 76 | 111 | 3.0 | 10.0 | 0.00 | 0.09 | 0.09 | 65 | 1011.7 |
| 20260508180213 | 76 | 102 | 3.0 | 10.0 | 0.00 | 0.09 | 0.09 | 66 | 1011.8 |
| 20260508180112 | 76 | 83 | 2.0 | 10.0 | 0.00 | 0.09 | 0.09 | 63 | 1011.8 |
| 20260508180012 | 76 | 118 | 3.0 | 10.0 | 0.00 | 0.09 | 0.09 | 64 | 1011.8 |
| 20260508175911 | 76 | 130 | 3.0 | 10.0 | 0.00 | 0.09 | 0.09 | 64 | 1011.9 |
| 20260508175835 | 76 | 154 | 4.0 | 10.0 | 0.00 | 0.09 | 0.09 | 64 | 1011.9 |
| 20260508175809 | 76 | 138 | 4.0 | 10.0 | 0.00 | 0.09 | 0.09 | 64 | 1011.8 |
| 20260508175707 | 76 | 162 | 5.0 | 10.0 | 0.00 | 0.09 | 0.09 | 66 | 1011.8 |
| 20260508175605 | 76 | 131 | 4.0 | 10.0 | 0.00 | 0.09 | 0.09 | 65 | 1011.8 |
| 20260508175507 | 76 | 172 | 3.0 | 7.0 | 0.00 | 0.09 | 0.09 | 65 | 1011.8 |
| 20260508175407 | 75 | 124 | 3.0 | 7.0 | 0.00 | 0.09 | 0.09 | 66 | 1011.8 |
| 20260508175331 | 75 | 123 | 3.0 | 7.0 | 0.00 | 0.09 | 0.09 | 67 | 1011.9 |
| 20260508175306 | 75 | 92 | 2.0 | 7.0 | 0.00 | 0.09 | 0.09 | 67 | 1011.9 |
| 20260508175204 | 75 | 110 | 2.0 | 7.0 | 0.00 | 0.09 | 0.09 | 66 | 1011.8 |
| 20260508175105 | 75 | 227 | 2.0 | 7.0 | 0.00 | 0.09 | 0.09 | 65 | 1011.9 |
| 20260508175007 | 75 | 144 | 3.0 | 7.0 | 0.00 | 0.09 | 0.09 | 66 | 1011.9 |
| 20260508174906 | 75 | 114 | 3.0 | 7.0 | 0.00 | 0.09 | 0.09 | 68 | 1011.9 |
| 20260508174832 | 75 | 137 | 2.0 | 7.0 | 0.00 | 0.09 | 0.09 | 68 | 1011.9 |
| 20260508174806 | 75 | 138 | 2.0 | 7.0 | 0.00 | 0.09 | 0.09 | 68 | 1011.9 |
| 20260508174707 | 75 | 178 | 3.0 | 7.0 | 0.00 | 0.09 | 0.09 | 65 | 1011.9 |
| 20260508174558 | 75 | 145 | 4.0 | 9.0 | 0.00 | 0.09 | 0.09 | 66 | 1011.9 |
| 20260508174457 | 75 | 183 | 4.0 | 9.0 | 0.00 | 0.09 | 0.09 | 65 | 1011.9 |
| 20260508174356 | 75 | 71 | 4.0 | 9.0 | 0.00 | 0.09 | 0.09 | 65 | 1011.9 |
| 20260508174330 | 75 | 113 | 4.0 | 9.0 | 0.00 | 0.09 | 0.09 | 65 | 1011.9 |
| 20260508174254 | 75 | 142 | 3.0 | 9.0 | 0.00 | 0.09 | 0.09 | 66 | 1011.9 |
| 20260508174153 | 75 | 141 | 3.0 | 9.0 | 0.00 | 0.09 | 0.09 | 65 | 1011.9 |
| 20260508174051 | 75 | 131 | 2.0 | 9.0 | 0.00 | 0.09 | 0.09 | 66 | 1011.9 |
| 20260508173950 | 74 | 151 | 3.0 | 9.0 | 0.00 | 0.09 | 0.09 | 65 | 1012.0 |
| 20260508173848 | 74 | 116 | 4.0 | 9.0 | 0.00 | 0.09 | 0.09 | 68 | 1012.0 |
| 20260508173830 | 74 | 107 | 4.0 | 9.0 | 0.00 | 0.09 | 0.09 | 68 | 1012.0 |
| 20260508173747 | 74 | 137 | 4.0 | 9.0 | 0.00 | 0.09 | 0.09 | 67 | 1012.0 |
| 20260508173645 | 74 | 135 | 3.0 | 7.0 | 0.00 | 0.09 | 0.09 | 67 | 1012.0 |
| 20260508173544 | 74 | 123 | 3.0 | 7.0 | 0.00 | 0.09 | 0.09 | 67 | 1012.0 |
| 20260508173437 | 74 | 124 | 4.0 | 7.0 | 0.00 | 0.09 | 0.09 | 67 | 1012.1 |
| 20260508173339 | 74 | 125 | 4.0 | 7.0 | 0.00 | 0.09 | 0.09 | 67 | 1012.0 |
| 20260508173330 | 74 | 100 | 4.0 | 7.0 | 0.00 | 0.09 | 0.09 | 67 | 1012.0 |
| 20260508173232 | 74 | 145 | 4.0 | 7.0 | 0.00 | 0.09 | 0.09 | 67 | 1012.1 |
| 20260508173133 | 74 | 116 | 4.0 | 7.0 | 0.00 | 0.09 | 0.09 | 66 | 1012.1 |
| 20260508173034 | 74 | 117 | 4.0 | 7.0 | 0.00 | 0.09 | 0.09 | 67 | 1012.2 |
| 20260508172930 | 74 | 131 | 5.0 | 7.0 | 0.00 | 0.09 | 0.09 | 67 | 1012.3 |
| 20260508172835 | 73 | 69 | 4.0 | 7.0 | 0.00 | 0.09 | 0.09 | 67 | 1012.2 |
| 20260508172828 | 73 | 134 | 4.0 | 7.0 | 0.00 | 0.09 | 0.09 | 67 | 1012.2 |
| 20260508172732 | 73 | 128 | 4.0 | 7.0 | 0.00 | 0.09 | 0.09 | 67 | 1012.3 |
| 20260508172630 | 73 | 144 | 3.0 | 7.0 | 0.00 | 0.09 | 0.09 | 68 | 1012.3 |
| 20260508172532 | 73 | 100 | 2.0 | 9.0 | 0.00 | 0.09 | 0.09 | 66 | 1012.4 |
| 20260508172425 | 73 | 49 | 2.0 | 9.0 | 0.00 | 0.09 | 0.09 | 65 | 1012.5 |
| 20260508172330 | 73 | 44 | 3.0 | 9.0 | 0.00 | 0.09 | 0.09 | 65 | 1012.5 |
| 20260508172323 | 73 | 54 | 4.0 | 9.0 | 0.00 | 0.09 | 0.09 | 65 | 1012.5 |
| 20260508172223 | 73 | 27 | 4.0 | 9.0 | 0.00 | 0.09 | 0.09 | 67 | 1012.5 |
| 20260508172122 | 73 | 141 | 2.0 | 9.0 | 0.00 | 0.09 | 0.09 | 69 | 1012.6 |
| 20260508172020 | 73 | 195 | 2.0 | 10.0 | 0.00 | 0.09 | 0.09 | 69 | 1012.6 |
| 20260508171918 | 73 | 200 | 3.0 | 10.0 | 0.00 | 0.09 | 0.09 | 68 | 1012.7 |
| 20260508171827 | 73 | 197 | 5.0 | 10.0 | 0.00 | 0.09 | 0.09 | 69 | 1012.7 |
| 20260508171815 | 73 | 178 | 5.0 | 10.0 | 0.00 | 0.09 | 0.09 | 69 | 1012.7 |
| 20260508171716 | 73 | 140 | 6.0 | 10.0 | 0.00 | 0.09 | 0.09 | 69 | 1012.7 |
| 20260508171617 | 73 | 142 | 6.0 | 10.0 | 0.00 | 0.09 | 0.09 | 69 | 1012.7 |
| 20260508171610 | 69 | 183 | 4.0 | 7.0 | 0.00 | 0.09 | 0.09 | 77 | 1013.7 |
| 20260508171601 | 67 | 168 | 2.0 | 6.0 | 0.00 | 0.09 | 0.09 | 81 | 1013.8 |
| 20260508171556 | 67 | 192 | 3.0 | 6.0 | 0.00 | 0.09 | 0.09 | 82 | 1013.8 |
| 20260508171550 | 67 | 135 | 2.0 | 6.0 | 0.00 | 0.09 | 0.09 | 82 | 1013.9 |
| 20260508171544 | 66 | 138 | 4.0 | 6.0 | 0.00 | 0.09 | 0.09 | 81 | 1013.8 |
| 20260508171526 | 72 | 165 | 5.0 | 10.0 | 0.00 | 0.09 | 0.09 | 67 | 1012.8 |
| 20260508171454 | 73 | 161 | 4.0 | 10.0 | 0.00 | 0.09 | 0.09 | 72 | 1012.8 |
| 20260508171427 | 72 | 172 | 5.0 | 10.0 | 0.00 | 0.09 | 0.09 | 71 | 1012.9 |
| 20260508171421 | 72 | 175 | 5.0 | 10.0 | 0.00 | 0.09 | 0.09 | 71 | 1012.9 |
| 20260508171351 | 72 | 183 | 5.0 | 10.0 | 0.00 | 0.09 | 0.09 | 69 | 1012.8 |
| 20260508171320 | 72 | 125 | 3.0 | 7.0 | 0.00 | 0.09 | 0.09 | 69 | 1012.8 |
| 20260508171248 | 72 | 207 | 4.0 | 7.0 | 0.00 | 0.09 | 0.09 | 68 | 1012.9 |
| 20260508171217 | 72 | 219 | 4.0 | 7.0 | 0.00 | 0.09 | 0.09 | 70 | 1012.9 |
| 20260508171151 | 72 | 203 | 3.0 | 7.0 | 0.00 | 0.09 | 0.09 | 70 | 1012.9 |
| 20260508171141 | 72 | 212 | 3.0 | 7.0 | 0.00 | 0.09 | 0.09 | 70 | 1012.9 |
| 20260508171109 | 71 | 127 | 2.0 | 7.0 | 0.00 | 0.09 | 0.09 | 71 | 1013.0 |
| 20260508171043 | 71 | 116 | 2.0 | 7.0 | 0.00 | 0.09 | 0.09 | 71 | 1013.0 |
| 20260508171014 | 71 | 141 | 3.0 | 7.0 | 0.00 | 0.09 | 0.09 | 71 | 1013.0 |
| 20260508170945 | 71 | 134 | 4.0 | 7.0 | 0.00 | 0.09 | 0.09 | 70 | 1013.0 |
| 20260508170924 | 71 | 135 | 5.0 | 7.0 | 0.00 | 0.09 | 0.09 | 70 | 1013.0 |
| 20260508170913 | 71 | 138 | 5.0 | 7.0 | 0.00 | 0.09 | 0.09 | 71 | 1013.0 |
| 20260508170844 | 71 | 127 | 3.0 | 7.0 | 0.00 | 0.09 | 0.09 | 71 | 1013.0 |
| 20260508170813 | 71 | 147 | 2.0 | 6.0 | 0.00 | 0.09 | 0.09 | 73 | 1013.0 |
| 20260508170743 | 71 | 193 | 3.0 | 6.0 | 0.00 | 0.09 | 0.09 | 71 | 1013.0 |
| 20260508170714 | 71 | 196 | 4.0 | 6.0 | 0.00 | 0.09 | 0.09 | 71 | 1013.0 |
| 20260508170649 | 71 | 231 | 3.0 | 6.0 | 0.00 | 0.09 | 0.09 | 72 | 1013.0 |
| 20260508170639 | 71 | 230 | 3.0 | 6.0 | 0.00 | 0.09 | 0.09 | 72 | 1013.0 |
| 20260508170610 | 71 | 175 | 2.0 | 6.0 | 0.00 | 0.09 | 0.09 | 73 | 1013.1 |
| 20260508170541 | 71 | 149 | 3.0 | 6.0 | 0.00 | 0.09 | 0.09 | 72 | 1013.1 |
| 20260508170511 | 71 | 138 | 4.0 | 6.0 | 0.00 | 0.09 | 0.09 | 72 | 1013.0 |
| 20260508170445 | 71 | 155 | 3.0 | 7.0 | 0.00 | 0.09 | 0.09 | 72 | 1013.1 |
| 20260508170422 | 70 | 192 | 3.0 | 7.0 | 0.00 | 0.09 | 0.09 | 72 | 1013.0 |
| 20260508170410 | 70 | 203 | 3.0 | 7.0 | 0.00 | 0.09 | 0.09 | 72 | 1013.0 |
| 20260508170344 | 70 | 134 | 2.0 | 7.0 | 0.00 | 0.09 | 0.09 | 73 | 1013.1 |
| 20260508170313 | 70 | 197 | 3.0 | 7.0 | 0.00 | 0.09 | 0.09 | 72 | 1013.0 |
| 20260508170243 | 70 | 189 | 4.0 | 7.0 | 0.00 | 0.09 | 0.09 | 72 | 1013.1 |
| 20260508170214 | 70 | 157 | 4.0 | 7.0 | 0.00 | 0.09 | 0.09 | 72 | 1013.1 |
| 20260508170150 | 70 | 130 | 4.0 | 9.0 | 0.00 | 0.09 | 0.09 | 74 | 1013.3 |
| 20260508170141 | 70 | 133 | 4.0 | 9.0 | 0.00 | 0.09 | 0.09 | 74 | 1013.3 |
| 20260508170113 | 70 | 166 | 4.0 | 9.0 | 0.00 | 0.09 | 0.09 | 73 | 1013.3 |
| 20260508170041 | 70 | 199 | 5.0 | 9.0 | 0.00 | 0.09 | 0.09 | 73 | 1013.4 |
| 20260508170011 | 70 | 144 | 5.0 | 9.0 | 0.00 | 0.09 | 0.09 | 74 | 1013.4 |
| 20260508165939 | 70 | 130 | 4.0 | 9.0 | 0.00 | 0.09 | 0.09 | 75 | 1013.4 |
| 20260508165917 | 70 | 179 | 4.0 | 9.0 | 0.00 | 0.09 | 0.09 | 75 | 1013.5 |
| 20260508165904 | 69 | 142 | 4.0 | 9.0 | 0.00 | 0.09 | 0.09 | 75 | 1013.5 |
| 20260508165835 | 69 | 157 | 4.0 | 9.0 | 0.00 | 0.09 | 0.09 | 74 | 1013.4 |
| 20260508165805 | 69 | 175 | 5.0 | 9.0 | 0.00 | 0.09 | 0.09 | 73 | 1013.6 |
| 20260508165732 | 69 | 125 | 6.0 | 9.0 | 0.00 | 0.09 | 0.09 | 74 | 1013.5 |
| 20260508165703 | 69 | 128 | 6.0 | 9.0 | 0.00 | 0.09 | 0.09 | 74 | 1013.5 |
| 20260508165642 | 69 | 148 | 6.0 | 9.0 | 0.00 | 0.09 | 0.09 | 74 | 1013.6 |
| 20260508165627 | 69 | 125 | 5.0 | 9.0 | 0.00 | 0.09 | 0.09 | 74 | 1013.6 |
| 20260508165558 | 69 | 128 | 3.0 | 9.0 | 0.00 | 0.09 | 0.09 | 76 | 1013.6 |
| 20260508165526 | 69 | 189 | 4.0 | 9.0 | 0.00 | 0.09 | 0.09 | 74 | 1013.6 |
| 20260508165454 | 69 | 185 | 4.0 | 9.0 | 0.00 | 0.09 | 0.09 | 74 | 1013.6 |
| 20260508165425 | 69 | 186 | 4.0 | 7.0 | 0.00 | 0.09 | 0.09 | 75 | 1013.7 |
| 20260508165408 | 69 | 193 | 3.0 | 7.0 | 0.00 | 0.09 | 0.09 | 74 | 1013.6 |
| 20260508165348 | 69 | 176 | 4.0 | 7.0 | 0.00 | 0.09 | 0.09 | 74 | 1013.6 |
| 20260508165314 | 69 | 138 | 4.0 | 7.0 | 0.00 | 0.09 | 0.09 | 75 | 1013.6 |
| 20260508165245 | 69 | 159 | 5.0 | 7.0 | 0.00 | 0.09 | 0.09 | 74 | 1013.6 |
| 20260508165214 | 69 | 216 | 5.0 | 7.0 | 0.00 | 0.09 | 0.09 | 75 | 1013.6 |
| 20260508165144 | 69 | 144 | 4.0 | 7.0 | 0.00 | 0.09 | 0.09 | 74 | 1013.7 |
| 20260508165129 | 69 | 183 | 4.0 | 7.0 | 0.00 | 0.09 | 0.09 | 75 | 1013.6 |
| 20260508165110 | 69 | 176 | 4.0 | 7.0 | 0.00 | 0.09 | 0.09 | 75 | 1013.6 |
| 20260508165038 | 69 | 127 | 4.0 | 7.0 | 0.00 | 0.09 | 0.09 | 76 | 1013.7 |
| 20260508165008 | 69 | 142 | 5.0 | 7.0 | 0.00 | 0.09 | 0.09 | 78 | 1013.7 |
| 20260508164937 | 69 | 134 | 4.0 | 7.0 | 0.00 | 0.09 | 0.09 | 78 | 1013.7 |
| 20260508164909 | 69 | 133 | 4.0 | 7.0 | 0.00 | 0.09 | 0.09 | 77 | 1013.7 |
| 20260508164629 | 69 | 189 | 5.0 | 7.0 | 0.00 | 0.09 | 0.09 | 77 | 1013.7 |
| 20260508164559 | 69 | 210 | 4.0 | 6.0 | 0.00 | 0.09 | 0.09 | 79 | 1013.7 |
| 20260508164531 | 69 | 178 | 3.0 | 6.0 | 0.00 | 0.09 | 0.09 | 80 | 1013.7 |
| 20260508164501 | 68 | 185 | 3.0 | 6.0 | 0.00 | 0.09 | 0.09 | 79 | 1013.7 |
| 20260508164415 | 68 | 141 | 4.0 | 6.0 | 0.00 | 0.09 | 0.09 | 79 | 1013.8 |
| 20260508164357 | 68 | 161 | 3.0 | 6.0 | 0.00 | 0.09 | 0.09 | 81 | 1013.7 |
| 20260508164327 | 68 | 137 | 3.0 | 6.0 | 0.00 | 0.09 | 0.09 | 80 | 1013.7 |
| 20260508164256 | 68 | 154 | 4.0 | 6.0 | 0.00 | 0.09 | 0.09 | 80 | 1013.7 |
| 20260508164226 | 67 | 169 | 3.0 | 6.0 | 0.00 | 0.09 | 0.09 | 79 | 1013.8 |
| 20260508164154 | 67 | 157 | 3.0 | 6.0 | 0.00 | 0.09 | 0.09 | 81 | 1013.8 |
| 20260508163915 | 67 | 162 | 3.0 | 6.0 | 0.00 | 0.09 | 0.09 | 81 | 1013.8 |
| 20260508163844 | 67 | 162 | 3.0 | 6.0 | 0.00 | 0.09 | 0.09 | 81 | 1013.8 |
| 20260508163814 | 67 | 207 | 3.0 | 6.0 | 0.00 | 0.09 | 0.09 | 80 | 1013.8 |
| 20260508163742 | 67 | 157 | 4.0 | 6.0 | 0.00 | 0.09 | 0.09 | 80 | 1013.8 |
| 20260508163706 | 67 | 180 | 3.0 | 6.0 | 0.00 | 0.09 | 0.09 | 81 | 1013.8 |
| 20260508163634 | 67 | 165 | 3.0 | 6.0 | 0.00 | 0.09 | 0.09 | 81 | 1013.8 |
| 20260508163602 | 67 | 216 | 3.0 | 6.0 | 0.00 | 0.09 | 0.09 | 81 | 1013.8 |
| 20260508163533 | 67 | 145 | 3.0 | 6.0 | 0.00 | 0.09 | 0.09 | 82 | 1013.9 |
| 20260508163503 | 67 | 144 | 4.0 | 6.0 | 0.00 | 0.09 | 0.09 | 82 | 1013.7 |
| 20260508163437 | 67 | 148 | 4.0 | 6.0 | 0.00 | 0.09 | 0.09 | 82 | 1013.7 |
| 20260508163429 | 67 | 154 | 4.0 | 6.0 | 0.00 | 0.09 | 0.09 | 82 | 1013.7 |
| 20260508163358 | 67 | 148 | 4.0 | 6.0 | 0.00 | 0.09 | 0.09 | 82 | 1013.8 |
| 20260508161733 | 67 | 192 | 3.0 | 6.0 | 0.00 | 0.09 | 0.09 | 82 | 1013.8 |
| 20260508160105 | 67 | 135 | 2.0 | 6.0 | 0.00 | 0.09 | 0.09 | 82 | 1013.9 |
| 20260508160034 | 66 | 144 | 4.0 | 6.0 | 0.00 | 0.09 | 0.09 | 82 | 1013.8 |
| 20260508155749 | 66 | 140 | 4.0 | 6.0 | 0.00 | 0.09 | 0.09 | 81 | 1013.8 |
| 20260508155647 | 66 | 130 | 3.0 | 6.0 | 0.00 | 0.09 | 0.09 | 81 | 1013.8 |
| 20260508155547 | 66 | 151 | 2.0 | 6.0 | 0.00 | 0.09 | 0.09 | 81 | 1013.8 |
| 20260508155445 | 66 | 189 | 2.0 | 6.0 | 0.00 | 0.09 | 0.09 | 80 | 1013.9 |
| 20260508155343 | 66 | 189 | 3.0 | 6.0 | 0.00 | 0.09 | 0.09 | 79 | 1013.9 |
| 20260508155306 | 66 | 199 | 3.0 | 6.0 | 0.00 | 0.09 | 0.09 | 79 | 1014.0 |
| 20260508155242 | 66 | 165 | 4.0 | 6.0 | 0.00 | 0.09 | 0.09 | 79 | 1014.0 |
| 20260508155140 | 66 | 189 | 4.0 | 6.0 | 0.00 | 0.09 | 0.09 | 80 | 1013.9 |
| 20260508155039 | 66 | 169 | 4.0 | 6.0 | 0.00 | 0.09 | 0.09 | 80 | 1013.9 |
| 20260508154937 | 66 | 128 | 4.0 | 6.0 | 0.00 | 0.09 | 0.09 | 80 | 1013.8 |
| 20260508154836 | 66 | 172 | 4.0 | 6.0 | 0.00 | 0.09 | 0.09 | 80 | 1013.9 |
| 20260508154806 | 66 | 178 | 4.0 | 6.0 | 0.00 | 0.09 | 0.09 | 80 | 1013.9 |
| 20260508154734 | 66 | 134 | 4.0 | 6.0 | 0.00 | 0.09 | 0.09 | 80 | 1013.9 |
| 20260508154633 | 66 | 192 | 4.0 | 6.0 | 0.00 | 0.09 | 0.09 | 80 | 1013.9 |
| 20260508154603 | 65 | 204 | 2.0 | 4.0 | 0.00 | 0.09 | 0.09 | 80 | 1014.2 |
| 20260508154556 | 66 | 155 | 3.0 | 5.0 | 0.00 | 0.09 | 0.09 | 81 | 1013.9 |
| 20260508154543 | 66 | 161 | 3.0 | 6.0 | 0.00 | 0.09 | 0.09 | 80 | 1013.9 |
| 20260508154510 | 66 | 188 | 4.0 | 6.0 | 0.00 | 0.09 | 0.09 | 80 | 1013.9 |
| 20260508154440 | 66 | 155 | 4.0 | 6.0 | 0.00 | 0.09 | 0.09 | 80 | 1013.9 |
| 20260508154422 | 66 | 152 | 4.0 | 6.0 | 0.00 | 0.09 | 0.09 | 81 | 1014.0 |
| 20260508154407 | 66 | 175 | 3.0 | 5.0 | 0.00 | 0.09 | 0.09 | 81 | 1014.0 |
| 20260508154335 | 66 | 172 | 3.0 | 5.0 | 0.00 | 0.09 | 0.09 | 81 | 1014.0 |
| 20260508154302 | 66 | 179 | 4.0 | 5.0 | 0.00 | 0.09 | 0.09 | 81 | 1013.9 |
| 20260508154233 | 66 | 183 | 3.0 | 5.0 | 0.00 | 0.09 | 0.09 | 81 | 1014.0 |
| 20260508154202 | 66 | 155 | 3.0 | 5.0 | 0.00 | 0.09 | 0.09 | 81 | 1013.9 |
| 20260508153715 | 65 | 176 | 3.0 | 5.0 | 0.00 | 0.09 | 0.09 | 80 | 1014.0 |
| 20260508153645 | 65 | 180 | 3.0 | 5.0 | 0.00 | 0.09 | 0.09 | 80 | 1014.0 |
| 20260508153614 | 65 | 166 | 3.0 | 5.0 | 0.00 | 0.09 | 0.09 | 81 | 1014.0 |
| 20260508153544 | 65 | 182 | 2.0 | 4.0 | 0.00 | 0.09 | 0.09 | 81 | 1014.0 |
| 20260508153514 | 65 | 204 | 2.0 | 4.0 | 0.00 | 0.09 | 0.09 | 80 | 1014.2 |
| 20260508153213 | 65 | 183 | 2.0 | 5.0 | 0.00 | 0.09 | 0.09 | 81 | 1014.3 |
| 20260508153207 | 65 | 179 | 2.0 | 4.0 | 0.00 | 0.09 | 0.09 | 81 | 1014.3 |
| 20260508153134 | 65 | 185 | 3.0 | 5.0 | 0.00 | 0.09 | 0.09 | 80 | 1014.3 |
| 20260508153105 | 65 | 183 | 3.0 | 5.0 | 0.00 | 0.09 | 0.09 | 81 | 1014.2 |
| 20260508153034 | 65 | 179 | 3.0 | 5.0 | 0.00 | 0.09 | 0.09 | 81 | 1014.3 |
| 20260508152755 | 65 | 188 | 2.0 | 5.0 | 0.00 | 0.09 | 0.09 | 81 | 1014.3 |
| 20260508152655 | 65 | 213 | 2.0 | 5.0 | 0.00 | 0.09 | 0.09 | 81 | 1014.4 |
| 20260508152557 | 65 | 148 | 4.0 | 9.0 | 0.00 | 0.09 | 0.09 | 81 | 1014.1 |
| 20260508152552 | 65 | 209 | 2.0 | 6.0 | 0.00 | 0.09 | 0.09 | 80 | 1014.3 |
| 20260508152544 | 65 | 188 | 4.0 | 6.0 | 0.00 | 0.09 | 0.09 | 80 | 1014.1 |
| 20260508152517 | 65 | 206 | 2.0 | 6.0 | 0.00 | 0.09 | 0.09 | 80 | 1014.3 |
| 20260508152445 | 65 | 190 | 2.0 | 6.0 | 0.00 | 0.09 | 0.09 | 81 | 1014.2 |
| 20260508152421 | 65 | 171 | 2.0 | 6.0 | 0.00 | 0.09 | 0.09 | 81 | 1014.2 |
| 20260508152410 | 65 | 158 | 2.0 | 6.0 | 0.00 | 0.09 | 0.09 | 81 | 1014.2 |
| 20260508152343 | 65 | 127 | 2.0 | 6.0 | 0.00 | 0.09 | 0.09 | 80 | 1014.2 |
| 20260508152312 | 65 | 171 | 2.0 | 6.0 | 0.00 | 0.09 | 0.09 | 80 | 1014.1 |
| 20260508152242 | 65 | 168 | 3.0 | 6.0 | 0.00 | 0.09 | 0.09 | 80 | 1014.2 |
| 20260508152211 | 65 | 165 | 3.0 | 6.0 | 0.00 | 0.09 | 0.09 | 80 | 1014.1 |
| 20260508151933 | 65 | 173 | 3.0 | 6.0 | 0.00 | 0.09 | 0.09 | 80 | 1014.1 |
| 20260508151626 | 65 | 189 | 4.0 | 6.0 | 0.00 | 0.09 | 0.09 | 81 | 1014.1 |
| 20260508151553 | 65 | 189 | 3.0 | 6.0 | 0.00 | 0.09 | 0.09 | 81 | 1014.1 |
| 20260508151523 | 65 | 193 | 4.0 | 9.0 | 0.00 | 0.09 | 0.09 | 81 | 1014.1 |
| 20260508151232 | 66 | 116 | 4.0 | 9.0 | 0.00 | 0.09 | 0.09 | 81 | 1014.1 |
| 20260508151133 | 65 | 165 | 4.0 | 9.0 | 0.00 | 0.09 | 0.09 | 81 | 1014.1 |
| 20260508151030 | 65 | 121 | 4.0 | 9.0 | 0.00 | 0.09 | 0.09 | 81 | 1014.2 |
| 20260508150932 | 66 | 158 | 4.0 | 9.0 | 0.00 | 0.09 | 0.09 | 81 | 1014.1 |
| 20260508150833 | 66 | 142 | 3.0 | 9.0 | 0.00 | 0.09 | 0.09 | 81 | 1014.1 |
| 20260508150807 | 66 | 142 | 3.0 | 9.0 | 0.00 | 0.09 | 0.09 | 81 | 1014.2 |
| 20260508150731 | 66 | 142 | 3.0 | 9.0 | 0.00 | 0.09 | 0.09 | 81 | 1014.2 |
| 20260508150632 | 66 | 178 | 3.0 | 9.0 | 0.00 | 0.09 | 0.09 | 81 | 1014.1 |
| 20260508150530 | 66 | 111 | 4.0 | 9.0 | 0.00 | 0.09 | 0.09 | 81 | 1014.2 |
| 20260508150433 | 66 | 135 | 4.0 | 9.0 | 0.00 | 0.09 | 0.09 | 82 | 1014.2 |
| 20260508150330 | 66 | 149 | 2.0 | 5.0 | 0.00 | 0.09 | 0.09 | 82 | 1014.2 |
| 20260508150303 | 66 | 188 | 2.0 | 6.0 | 0.00 | 0.09 | 0.09 | 82 | 1014.3 |
| 20260508150230 | 66 | 145 | 3.0 | 6.0 | 0.00 | 0.09 | 0.09 | 82 | 1014.3 |
| 20260508150129 | 66 | 145 | 3.0 | 6.0 | 0.00 | 0.09 | 0.09 | 82 | 1014.2 |
| 20260508150029 | 66 | 137 | 3.0 | 6.0 | 0.00 | 0.09 | 0.09 | 82 | 1014.2 |
| 20260508145926 | 65 | 145 | 3.0 | 6.0 | 0.00 | 0.09 | 0.09 | 82 | 1014.3 |
| 20260508145823 | 65 | 145 | 3.0 | 6.0 | 0.00 | 0.09 | 0.09 | 83 | 1014.3 |
| 20260508145804 | 65 | 142 | 3.0 | 6.0 | 0.00 | 0.09 | 0.09 | 83 | 1014.3 |
| 20260508145723 | 65 | 171 | 3.0 | 6.0 | 0.00 | 0.09 | 0.09 | 83 | 1014.3 |
| 20260508145621 | 65 | 182 | 3.0 | 6.0 | 0.00 | 0.09 | 0.09 | 82 | 1014.3 |
| 20260508145520 | 65 | 168 | 3.0 | 6.0 | 0.00 | 0.09 | 0.09 | 83 | 1014.2 |
| 20260508145419 | 65 | 169 | 4.0 | 6.0 | 0.00 | 0.09 | 0.09 | 83 | 1014.3 |
| 20260508145310 | 65 | 138 | 3.0 | 6.0 | 0.00 | 0.09 | 0.09 | 82 | 1014.3 |
| 20260508145306 | 65 | 154 | 3.0 | 6.0 | 0.00 | 0.09 | 0.09 | 82 | 1014.3 |
| 20260508145208 | 65 | 165 | 3.0 | 6.0 | 0.00 | 0.09 | 0.09 | 82 | 1014.3 |
| 20260508145106 | 65 | 173 | 4.0 | 7.0 | 0.00 | 0.09 | 0.09 | 82 | 1014.4 |
| 20260508145004 | 65 | 145 | 3.0 | 7.0 | 0.00 | 0.09 | 0.09 | 82 | 1014.3 |
| 20260508144903 | 65 | 178 | 3.0 | 7.0 | 0.00 | 0.09 | 0.09 | 82 | 1014.4 |
| 20260508144802 | 65 | 207 | 3.0 | 7.0 | 0.00 | 0.09 | 0.09 | 82 | 1014.4 |
| 20260508144704 | 65 | 140 | 3.0 | 7.0 | 0.00 | 0.09 | 0.09 | 82 | 1014.4 |
| 20260508144603 | 65 | 161 | 3.0 | 7.0 | 0.00 | 0.09 | 0.09 | 82 | 1014.4 |
| 20260508144503 | 65 | 131 | 3.0 | 7.0 | 0.00 | 0.09 | 0.09 | 82 | 1014.4 |
| 20260508144402 | 65 | 137 | 3.0 | 7.0 | 0.00 | 0.09 | 0.09 | 82 | 1014.3 |
| 20260508144302 | 65 | 125 | 4.0 | 7.0 | 0.00 | 0.09 | 0.09 | 82 | 1014.2 |
| 20260508144204 | 65 | 120 | 3.0 | 7.0 | 0.00 | 0.09 | 0.09 | 82 | 1014.4 |
| 20260508144102 | 65 | 140 | 4.0 | 7.0 | 0.00 | 0.09 | 0.09 | 81 | 1014.5 |
| 20260508144003 | 65 | 172 | 5.0 | 7.0 | 0.00 | 0.09 | 0.09 | 82 | 1014.5 |
| 20260508143902 | 65 | 164 | 5.0 | 7.0 | 0.00 | 0.09 | 0.09 | 82 | 1014.5 |
| 20260508143803 | 65 | 131 | 5.0 | 7.0 | 0.00 | 0.09 | 0.09 | 82 | 1014.5 |
| 20260508143702 | 65 | 151 | 5.0 | 7.0 | 0.00 | 0.09 | 0.09 | 82 | 1014.6 |
| 20260508143602 | 65 | 152 | 5.0 | 7.0 | 0.00 | 0.09 | 0.09 | 82 | 1014.4 |
| 20260508143459 | 65 | 158 | 5.0 | 7.0 | 0.00 | 0.09 | 0.09 | 82 | 1014.4 |
| 20260508143358 | 66 | 186 | 5.0 | 7.0 | 0.00 | 0.09 | 0.09 | 82 | 1014.5 |
| 20260508143304 | 66 | 190 | 4.0 | 7.0 | 0.00 | 0.09 | 0.09 | 83 | 1014.5 |
| 20260508143257 | 66 | 178 | 4.0 | 7.0 | 0.00 | 0.09 | 0.09 | 83 | 1014.5 |
| 20260508143149 | 65 | 111 | 3.0 | 6.0 | 0.00 | 0.09 | 0.09 | 87 | 1014.4 |
| 20260508143141 | 66 | 183 | 3.0 | 7.0 | 0.00 | 0.09 | 0.09 | 83 | 1014.4 |
| 20260508143108 | 66 | 142 | 3.0 | 7.0 | 0.00 | 0.09 | 0.09 | 84 | 1014.5 |
| 20260508143037 | 66 | 124 | 3.0 | 7.0 | 0.00 | 0.09 | 0.09 | 84 | 1014.4 |
| 20260508143006 | 65 | 142 | 4.0 | 7.0 | 0.00 | 0.09 | 0.09 | 85 | 1014.4 |
| 20260508142947 | 65 | 140 | 4.0 | 7.0 | 0.00 | 0.09 | 0.09 | 85 | 1014.5 |
| 20260508142931 | 65 | 147 | 5.0 | 7.0 | 0.00 | 0.09 | 0.09 | 85 | 1014.5 |
| 20260508142653 | 65 | 125 | 4.0 | 7.0 | 0.00 | 0.09 | 0.09 | 86 | 1014.4 |
| 20260508142623 | 65 | 141 | 3.0 | 7.0 | 0.00 | 0.09 | 0.09 | 86 | 1014.4 |
| 20260508142554 | 65 | 100 | 2.0 | 6.0 | 0.00 | 0.09 | 0.09 | 86 | 1014.4 |
| 20260508142526 | 65 | 106 | 2.0 | 6.0 | 0.00 | 0.09 | 0.09 | 86 | 1014.3 |
| 20260508142232 | 65 | 127 | 3.0 | 6.0 | 0.00 | 0.09 | 0.09 | 87 | 1014.4 |
| 20260508142132 | 64 | 147 | 3.0 | 6.0 | 0.00 | 0.09 | 0.09 | 87 | 1014.3 |
| 20260508142032 | 64 | 151 | 3.0 | 6.0 | 0.00 | 0.09 | 0.09 | 87 | 1014.3 |
| 20260508141933 | 64 | 169 | 4.0 | 6.0 | 0.00 | 0.09 | 0.09 | 86 | 1014.3 |
| 20260508141832 | 64 | 131 | 4.0 | 5.0 | 0.00 | 0.09 | 0.09 | 86 | 1014.3 |
| 20260508141805 | 64 | 161 | 3.0 | 5.0 | 0.00 | 0.09 | 0.09 | 87 | 1014.3 |
| 20260508141732 | 64 | 159 | 3.0 | 5.0 | 0.00 | 0.09 | 0.09 | 87 | 1014.3 |
| 20260508141632 | 64 | 178 | 3.0 | 5.0 | 0.00 | 0.09 | 0.09 | 87 | 1014.4 |
| 20260508141532 | 64 | 188 | 4.0 | 5.0 | 0.00 | 0.09 | 0.09 | 88 | 1014.5 |
| 20260508141431 | 64 | 180 | 3.0 | 5.0 | 0.00 | 0.09 | 0.09 | 88 | 1014.5 |
| 20260508141332 | 64 | 169 | 3.0 | 5.0 | 0.00 | 0.09 | 0.09 | 89 | 1014.5 |
| 20260508141304 | 64 | 172 | 3.0 | 5.0 | 0.00 | 0.09 | 0.09 | 89 | 1014.5 |
| 20260508141230 | 64 | 159 | 2.0 | 5.0 | 0.00 | 0.09 | 0.09 | 89 | 1014.5 |
| 20260508141131 | 63 | 168 | 2.0 | 5.0 | 0.00 | 0.09 | 0.09 | 89 | 1014.6 |
| 20260508141033 | 63 | 141 | 3.0 | 5.0 | 0.00 | 0.09 | 0.09 | 89 | 1014.6 |
| 20260508140932 | 63 | 145 | 3.0 | 5.0 | 0.00 | 0.09 | 0.09 | 89 | 1014.7 |
| 20260508140831 | 63 | 161 | 2.0 | 6.0 | 0.00 | 0.09 | 0.09 | 90 | 1014.6 |
| 20260508140804 | 63 | 172 | 2.0 | 6.0 | 0.00 | 0.09 | 0.09 | 90 | 1014.6 |
| 20260508140730 | 63 | 141 | 2.0 | 6.0 | 0.00 | 0.09 | 0.09 | 90 | 1014.6 |
| 20260508140630 | 63 | 141 | 2.0 | 6.0 | 0.00 | 0.09 | 0.09 | 90 | 1014.6 |
| 20260508140531 | 62 | 148 | 2.0 | 6.0 | 0.00 | 0.09 | 0.09 | 91 | 1014.6 |
| 20260508140430 | 62 | 149 | 2.0 | 6.0 | 0.00 | 0.09 | 0.09 | 91 | 1014.5 |
| 20260508140331 | 62 | 142 | 3.0 | 6.0 | 0.00 | 0.09 | 0.09 | 91 | 1014.6 |
| 20260508140305 | 62 | 141 | 3.0 | 6.0 | 0.00 | 0.09 | 0.09 | 91 | 1014.6 |
| 20260508140231 | 62 | 183 | 3.0 | 6.0 | 0.00 | 0.09 | 0.09 | 91 | 1014.6 |
| 20260508140223 | 62 | 152 | 2.0 | 5.0 | 0.00 | 0.09 | 0.09 | 91 | 1014.5 |
| 20260508140155 | 62 | 144 | 3.0 | 6.0 | 0.00 | 0.09 | 0.09 | 91 | 1014.6 |
| 20260508140126 | 62 | 186 | 3.0 | 6.0 | 0.00 | 0.09 | 0.09 | 91 | 1014.6 |
| 20260508140056 | 62 | 157 | 3.0 | 6.0 | 0.00 | 0.09 | 0.09 | 91 | 1014.6 |
| 20260508140029 | 62 | 135 | 2.0 | 5.0 | 0.00 | 0.09 | 0.09 | 91 | 1014.6 |
| 20260508135729 | 62 | 158 | 2.0 | 5.0 | 0.00 | 0.09 | 0.09 | 91 | 1014.5 |
| 20260508135630 | 62 | 144 | 1.0 | 4.0 | 0.00 | 0.09 | 0.09 | 91 | 1014.6 |
| 20260508135528 | 62 | 152 | 2.0 | 4.0 | 0.00 | 0.09 | 0.09 | 91 | 1014.6 |
| 20260508135429 | 62 | 152 | 2.0 | 4.0 | 0.00 | 0.09 | 0.09 | 91 | 1014.5 |
| 20260508135329 | 62 | 162 | 3.0 | 4.0 | 0.00 | 0.09 | 0.09 | 91 | 1014.6 |
| 20260508135306 | 62 | 165 | 3.0 | 4.0 | 0.00 | 0.09 | 0.09 | 91 | 1014.7 |
| 20260508135229 | 62 | 166 | 3.0 | 4.0 | 0.00 | 0.09 | 0.09 | 91 | 1014.7 |
| 20260508135129 | 62 | 141 | 3.0 | 4.0 | 0.00 | 0.09 | 0.09 | 91 | 1014.8 |
| 20260508135028 | 62 | 140 | 2.0 | 4.0 | 0.00 | 0.09 | 0.09 | 91 | 1014.7 |
| 20260508134928 | 62 | 151 | 2.0 | 4.0 | 0.00 | 0.09 | 0.09 | 91 | 1014.8 |
| 20260508134828 | 62 | 166 | 2.0 | 4.0 | 0.00 | 0.09 | 0.09 | 91 | 1014.8 |
| 20260508134802 | 62 | 168 | 2.0 | 4.0 | 0.00 | 0.09 | 0.09 | 91 | 1014.8 |
| 20260508134729 | 62 | 148 | 2.0 | 4.0 | 0.00 | 0.09 | 0.09 | 91 | 1014.7 |
| 20260508134626 | 62 | 147 | 2.0 | 4.0 | 0.00 | 0.09 | 0.09 | 91 | 1014.7 |
| 20260508134521 | 62 | 147 | 2.0 | 4.0 | 0.00 | 0.09 | 0.09 | 91 | 1014.7 |
| 20260508134414 | 62 | 147 | 2.0 | 4.0 | 0.00 | 0.09 | 0.09 | 92 | 1014.7 |
| 20260508134303 | 61 | 124 | 1.0 | 3.0 | 0.00 | 0.09 | 0.09 | 91 | 1014.7 |
| 20260508134211 | 61 | 124 | 1.0 | 3.0 | 0.00 | 0.09 | 0.09 | 91 | 1014.6 |
| 20260508134111 | 61 | 124 | 1.0 | 3.0 | 0.01 | 0.09 | 0.09 | 91 | 1014.6 |
| 20260508134009 | 61 | 124 | 2.0 | 4.0 | 0.02 | 0.09 | 0.09 | 91 | 1014.6 |
| 20260508133909 | 61 | 124 | 2.0 | 4.0 | 0.04 | 0.09 | 0.09 | 91 | 1014.6 |
| 20260508133803 | 61 | 124 | 2.0 | 4.0 | 0.04 | 0.09 | 0.09 | 91 | 1014.7 |
| 20260508133704 | 61 | 123 | 1.0 | 4.0 | 0.04 | 0.09 | 0.09 | 91 | 1014.6 |
| 20260508133605 | 61 | 148 | 1.0 | 4.0 | 0.04 | 0.09 | 0.09 | 91 | 1014.6 |
| 20260508133502 | 61 | 149 | 1.0 | 4.0 | 0.04 | 0.09 | 0.09 | 91 | 1014.7 |
| 20260508133403 | 61 | 168 | 2.0 | 4.0 | 0.04 | 0.09 | 0.09 | 91 | 1014.7 |
| 20260508133303 | 61 | 168 | 2.0 | 4.0 | 0.04 | 0.09 | 0.09 | 91 | 1014.8 |
| 20260508133222 | 61 | 162 | 2.0 | 4.0 | 0.05 | 0.09 | 0.09 | 92 | 1014.7 |
| 20260508133210 | 61 | 172 | 2.0 | 4.0 | 0.05 | 0.09 | 0.09 | 91 | 1014.8 |
| 20260508133140 | 61 | 178 | 2.0 | 4.0 | 0.05 | 0.09 | 0.09 | 92 | 1014.9 |
| 20260508133111 | 61 | 148 | 2.0 | 4.0 | 0.05 | 0.09 | 0.09 | 92 | 1014.8 |
| 20260508133041 | 61 | 162 | 1.0 | 4.0 | 0.05 | 0.09 | 0.09 | 92 | 1014.7 |
| 20260508132803 | 61 | 162 | 2.0 | 4.0 | 0.05 | 0.09 | 0.09 | 92 | 1014.7 |
| 20260508132714 | 61 | 137 | 2.0 | 4.0 | 0.05 | 0.09 | 0.09 | 92 | 1014.6 |
| 20260508132704 | 61 | 162 | 2.0 | 4.0 | 0.05 | 0.09 | 0.09 | 92 | 1014.8 |
| 20260508132634 | 61 | 145 | 2.0 | 4.0 | 0.05 | 0.09 | 0.09 | 92 | 1014.8 |
| 20260508132605 | 61 | 148 | 2.0 | 4.0 | 0.05 | 0.09 | 0.09 | 92 | 1014.7 |
| 20260508132533 | 61 | 138 | 2.0 | 4.0 | 0.05 | 0.09 | 0.09 | 92 | 1014.7 |
| 20260508132254 | 61 | 172 | 2.0 | 4.0 | 0.05 | 0.09 | 0.09 | 92 | 1014.6 |
| 20260508132240 | 61 | 131 | 2.0 | 3.0 | 0.05 | 0.09 | 0.09 | 92 | 1014.7 |
| 20260508132217 | 61 | 171 | 2.0 | 4.0 | 0.05 | 0.09 | 0.09 | 92 | 1014.5 |
| 20260508132134 | 61 | 128 | 2.0 | 3.0 | 0.05 | 0.09 | 0.09 | 92 | 1014.6 |
| 20260508132103 | 61 | 128 | 2.0 | 3.0 | 0.05 | 0.09 | 0.09 | 92 | 1014.6 |
| 20260508132034 | 61 | 131 | 2.0 | 3.0 | 0.05 | 0.09 | 0.09 | 92 | 1014.6 |
| 20260508131746 | 61 | 124 | 2.0 | 3.0 | 0.05 | 0.09 | 0.09 | 92 | 1014.7 |
| 20260508131644 | 61 | 75 | 2.0 | 3.0 | 0.05 | 0.09 | 0.09 | 92 | 1014.7 |
| 20260508131545 | 61 | 72 | 2.0 | 3.0 | 0.05 | 0.09 | 0.09 | 92 | 1014.7 |
| 20260508131442 | 61 | 0 | 1.0 | 3.0 | 0.05 | 0.09 | 0.09 | 92 | 1014.8 |
| 20260508131335 | 61 | 354 | 1.0 | 3.0 | 0.05 | 0.09 | 0.09 | 92 | 1014.7 |
| 20260508131302 | 61 | 354 | 1.0 | 3.0 | 0.05 | 0.09 | 0.09 | 92 | 1014.8 |
| 20260508131235 | 61 | 354 | 1.0 | 3.0 | 0.05 | 0.09 | 0.09 | 92 | 1014.8 |
| 20260508131134 | 61 | 354 | 2.0 | 3.0 | 0.05 | 0.09 | 0.09 | 92 | 1014.9 |
| 20260508131035 | 61 | 354 | 2.0 | 5.0 | 0.05 | 0.09 | 0.09 | 92 | 1014.9 |
| 20260508130932 | 61 | 13 | 2.0 | 5.0 | 0.05 | 0.09 | 0.09 | 92 | 1014.8 |
| 20260508130832 | 61 | 25 | 2.0 | 5.0 | 0.05 | 0.09 | 0.09 | 92 | 1014.8 |
| 20260508130802 | 61 | 39 | 2.0 | 5.0 | 0.05 | 0.09 | 0.09 | 92 | 1014.7 |
| 20260508130732 | 61 | 51 | 2.0 | 5.0 | 0.05 | 0.09 | 0.09 | 92 | 1014.7 |
| 20260508130631 | 60 | 58 | 1.0 | 5.0 | 0.05 | 0.09 | 0.09 | 92 | 1014.6 |
| 20260508130532 | 60 | 58 | 1.0 | 5.0 | 0.05 | 0.09 | 0.09 | 92 | 1014.5 |
| 20260508130427 | 60 | 58 | 1.0 | 5.0 | 0.05 | 0.09 | 0.09 | 92 | 1014.5 |
| 20260508130325 | 60 | 62 | 1.0 | 5.0 | 0.05 | 0.09 | 0.09 | 92 | 1014.5 |
| 20260508130303 | 60 | 66 | 2.0 | 5.0 | 0.05 | 0.09 | 0.09 | 92 | 1014.5 |
| 20260508130226 | 60 | 66 | 3.0 | 5.0 | 0.05 | 0.09 | 0.09 | 92 | 1014.5 |
| 20260508130122 | 60 | 127 | 3.0 | 5.0 | 0.06 | 0.09 | 0.09 | 92 | 1014.5 |
| 20260508130022 | 60 | 125 | 2.0 | 5.0 | 0.06 | 0.03 | 0.09 | 92 | 1014.5 |
| 20260508125919 | 60 | 149 | 2.0 | 5.0 | 0.06 | 0.03 | 0.09 | 92 | 1014.6 |
| 20260508125819 | 60 | 151 | 2.0 | 5.0 | 0.06 | 0.03 | 0.09 | 92 | 1014.5 |
| 20260508125805 | 60 | 149 | 3.0 | 5.0 | 0.06 | 0.03 | 0.09 | 92 | 1014.5 |
| 20260508125718 | 60 | 175 | 3.0 | 5.0 | 0.06 | 0.03 | 0.09 | 92 | 1014.5 |
| 20260508125615 | 60 | 145 | 2.0 | 5.0 | 0.06 | 0.03 | 0.09 | 92 | 1014.3 |
| 20260508125514 | 60 | 151 | 3.0 | 5.0 | 0.06 | 0.03 | 0.09 | 92 | 1014.4 |
| 20260508125412 | 60 | 133 | 3.0 | 5.0 | 0.06 | 0.03 | 0.09 | 92 | 1014.3 |
| 20260508125312 | 60 | 131 | 3.0 | 5.0 | 0.06 | 0.03 | 0.09 | 92 | 1014.3 |
| 20260508125306 | 60 | 128 | 3.0 | 5.0 | 0.06 | 0.03 | 0.09 | 92 | 1014.3 |
| 20260508125210 | 60 | 138 | 4.0 | 5.0 | 0.06 | 0.03 | 0.09 | 91 | 1014.3 |
| 20260508125108 | 60 | 141 | 3.0 | 5.0 | 0.06 | 0.03 | 0.09 | 91 | 1014.3 |
| 20260508125008 | 60 | 138 | 3.0 | 5.0 | 0.06 | 0.03 | 0.09 | 91 | 1014.2 |
| 20260508124906 | 60 | 135 | 3.0 | 5.0 | 0.06 | 0.03 | 0.09 | 91 | 1014.2 |
| 20260508124810 | 60 | 142 | 3.0 | 5.0 | 0.06 | 0.03 | 0.09 | 91 | 1014.2 |
| 20260508124805 | 60 | 141 | 3.0 | 5.0 | 0.06 | 0.03 | 0.09 | 91 | 1014.2 |
| 20260508124705 | 60 | 125 | 2.0 | 5.0 | 0.06 | 0.03 | 0.09 | 91 | 1014.2 |
| 20260508124656 | 60 | 113 | 3.0 | 5.0 | 0.07 | 0.03 | 0.09 | 91 | 1014.5 |
| 20260508124630 | 60 | 130 | 2.0 | 5.0 | 0.06 | 0.03 | 0.09 | 91 | 1014.3 |
| 20260508124601 | 60 | 102 | 2.0 | 5.0 | 0.06 | 0.03 | 0.09 | 91 | 1014.3 |
| 20260508124532 | 60 | 99 | 2.0 | 5.0 | 0.07 | 0.03 | 0.09 | 91 | 1014.5 |
| 20260508124251 | 60 | 117 | 3.0 | 5.0 | 0.07 | 0.03 | 0.09 | 91 | 1014.5 |
| 20260508124213 | 60 | 114 | 2.0 | 4.0 | 0.03 | 0.03 | 0.05 | 91 | 1014.8 |
| 20260508124157 | 60 | 107 | 2.0 | 5.0 | 0.07 | 0.03 | 0.08 | 91 | 1014.5 |
| 20260508124127 | 60 | 107 | 3.0 | 5.0 | 0.06 | 0.03 | 0.07 | 91 | 1014.5 |
| 20260508124056 | 60 | 118 | 3.0 | 5.0 | 0.03 | 0.03 | 0.05 | 91 | 1014.5 |
| 20260508124025 | 60 | 120 | 3.0 | 4.0 | 0.03 | 0.03 | 0.05 | 91 | 1014.6 |
| 20260508123735 | 60 | 133 | 2.0 | 4.0 | 0.03 | 0.03 | 0.05 | 91 | 1014.8 |
| 20260508123702 | 60 | 127 | 2.0 | 6.0 | 0.03 | 0.03 | 0.04 | 90 | 1014.6 |
| 20260508123646 | 61 | 158 | 2.0 | 3.0 | 0.03 | 0.03 | 0.05 | 91 | 1015.1 |
| 20260508123616 | 60 | 154 | 2.0 | 3.0 | 0.04 | 0.03 | 0.05 | 91 | 1015.1 |
| 20260508123546 | 60 | 140 | 2.0 | 3.0 | 0.04 | 0.03 | 0.05 | 91 | 1015.1 |
| 20260508123516 | 60 | 83 | 1.0 | 3.0 | 0.04 | 0.03 | 0.05 | 91 | 1015.1 |
| 20260508123457 | 60 | 72 | 1.0 | 2.0 | 0.04 | 0.03 | 0.04 | 91 | 1015.1 |
| 20260508123441 | 60 | 72 | 0.0 | 2.0 | 0.03 | 0.03 | 0.04 | 91 | 1015.1 |
| 20260508123411 | 60 | 72 | 0.0 | 2.0 | 0.03 | 0.03 | 0.04 | 91 | 1015.3 |
| 20260508123343 | 60 | 72 | 0.0 | 2.0 | 0.03 | 0.03 | 0.04 | 91 | 1015.3 |
| 20260508123316 | 60 | 72 | 0.0 | 2.0 | 0.03 | 0.03 | 0.04 | 91 | 1015.3 |
| 20260508123246 | 60 | 72 | 1.0 | 2.0 | 0.03 | 0.03 | 0.04 | 91 | 1015.2 |
| 20260508123227 | 60 | 72 | 1.0 | 2.0 | 0.03 | 0.03 | 0.04 | 91 | 1015.0 |
| 20260508123211 | 60 | 72 | 2.0 | 2.0 | 0.03 | 0.03 | 0.04 | 91 | 1015.0 |
| 20260508123142 | 60 | 72 | 1.0 | 2.0 | 0.03 | 0.03 | 0.04 | 91 | 1014.9 |
| 20260508123113 | 60 | 93 | 1.0 | 2.0 | 0.03 | 0.03 | 0.04 | 90 | 1014.8 |
| 20260508123042 | 60 | 125 | 1.0 | 2.0 | 0.03 | 0.03 | 0.04 | 90 | 1015.0 |
| 20260508122954 | 60 | 127 | 0.0 | 1.0 | 0.03 | 0.03 | 0.04 | 90 | 1015.0 |
| 20260508122938 | 60 | 127 | 0.0 | 1.0 | 0.03 | 0.03 | 0.04 | 90 | 1015.0 |
| 20260508122909 | 60 | 127 | 0.0 | 1.0 | 0.03 | 0.03 | 0.04 | 90 | 1015.1 |
| 20260508122843 | 60 | 127 | 0.0 | 2.0 | 0.03 | 0.03 | 0.04 | 90 | 1015.0 |
| 20260508122807 | 60 | 127 | 0.0 | 2.0 | 0.03 | 0.03 | 0.04 | 90 | 1015.0 |
| 20260508122739 | 60 | 127 | 0.0 | 2.0 | 0.03 | 0.03 | 0.04 | 90 | 1015.1 |
| 20260508122720 | 60 | 127 | 0.0 | 2.0 | 0.03 | 0.03 | 0.04 | 90 | 1015.1 |
| 20260508122704 | 60 | 127 | 0.0 | 2.0 | 0.03 | 0.03 | 0.04 | 90 | 1015.1 |
| 20260508122636 | 60 | 127 | 0.0 | 2.0 | 0.03 | 0.03 | 0.04 | 90 | 1015.1 |
| 20260508122607 | 60 | 127 | 0.0 | 2.0 | 0.03 | 0.03 | 0.04 | 90 | 1015.0 |
| 20260508122537 | 60 | 127 | 0.0 | 2.0 | 0.03 | 0.03 | 0.04 | 90 | 1015.0 |
| 20260508122507 | 60 | 127 | 0.0 | 2.0 | 0.03 | 0.03 | 0.04 | 90 | 1015.0 |
| 20260508122454 | 60 | 127 | 0.0 | 3.0 | 0.03 | 0.03 | 0.04 | 90 | 1015.0 |
| 20260508122435 | 60 | 127 | 1.0 | 3.0 | 0.03 | 0.03 | 0.04 | 90 | 1015.0 |
| 20260508122406 | 60 | 127 | 1.0 | 4.0 | 0.03 | 0.03 | 0.04 | 90 | 1015.0 |
| 20260508122333 | 60 | 127 | 1.0 | 5.0 | 0.03 | 0.03 | 0.04 | 90 | 1015.0 |
| 20260508122306 | 60 | 127 | 1.0 | 5.0 | 0.03 | 0.03 | 0.04 | 90 | 1015.1 |
| 20260508122232 | 60 | 127 | 1.0 | 5.0 | 0.03 | 0.03 | 0.04 | 90 | 1015.1 |
| 20260508122216 | 60 | 127 | 1.0 | 5.0 | 0.03 | 0.03 | 0.04 | 90 | 1015.1 |
| 20260508122156 | 60 | 127 | 0.0 | 5.0 | 0.03 | 0.03 | 0.04 | 90 | 1014.9 |
| 20260508122128 | 60 | 127 | 1.0 | 5.0 | 0.03 | 0.03 | 0.04 | 90 | 1014.8 |
| 20260508122058 | 60 | 127 | 2.0 | 5.0 | 0.03 | 0.03 | 0.04 | 90 | 1014.6 |
| 20260508122028 | 60 | 131 | 2.0 | 6.0 | 0.03 | 0.03 | 0.04 | 90 | 1014.6 |
| 20260508121957 | 60 | 127 | 2.0 | 6.0 | 0.03 | 0.03 | 0.04 | 90 | 1014.6 |
| 20260508120250 | 60 | 127 | 2.0 | 6.0 | 0.03 | 0.03 | 0.04 | 90 | 1014.6 |
| 20260508120209 | 60 | 110 | 3.0 | 6.0 | 0.03 | 0.03 | 0.03 | 90 | 1014.6 |
| 20260508120106 | 60 | 142 | 3.0 | 6.0 | 0.02 | 0.03 | 0.03 | 90 | 1014.6 |
| 20260508120005 | 60 | 152 | 3.0 | 6.0 | 0.02 | 0.01 | 0.03 | 90 | 1014.7 |
| 20260508115904 | 60 | 135 | 3.0 | 6.0 | 0.02 | 0.01 | 0.03 | 90 | 1014.8 |
| 20260508115804 | 60 | 138 | 3.0 | 6.0 | 0.02 | 0.01 | 0.03 | 89 | 1014.9 |
| 20260508115751 | 60 | 154 | 3.0 | 6.0 | 0.02 | 0.01 | 0.03 | 89 | 1014.9 |
| 20260508115706 | 60 | 152 | 3.0 | 10.0 | 0.02 | 0.01 | 0.03 | 89 | 1015.0 |
| 20260508115655 | 60 | 186 | 4.0 | 10.0 | 0.02 | 0.01 | 0.03 | 89 | 1015.0 |
| 20260508115630 | 60 | 117 | 3.0 | 10.0 | 0.02 | 0.01 | 0.03 | 89 | 1015.0 |
| 20260508115600 | 60 | 183 | 4.0 | 10.0 | 0.02 | 0.01 | 0.03 | 89 | 1015.0 |
| 20260508115530 | 60 | 159 | 3.0 | 10.0 | 0.02 | 0.01 | 0.03 | 89 | 1015.0 |
| 20260508115459 | 60 | 185 | 4.0 | 10.0 | 0.02 | 0.01 | 0.03 | 89 | 1015.0 |
| 20260508115202 | 60 | 188 | 4.0 | 10.0 | 0.02 | 0.01 | 0.03 | 89 | 1014.8 |
| 20260508115145 | 60 | 206 | 5.0 | 10.0 | 0.02 | 0.01 | 0.03 | 89 | 1014.7 |
| 20260508115124 | 60 | 157 | 3.0 | 10.0 | 0.02 | 0.01 | 0.03 | 89 | 1014.7 |
| 20260508115054 | 60 | 169 | 4.0 | 10.0 | 0.02 | 0.01 | 0.03 | 89 | 1014.6 |
| 20260508115024 | 60 | 138 | 4.0 | 10.0 | 0.02 | 0.01 | 0.03 | 89 | 1014.7 |
| 20260508114954 | 60 | 192 | 5.0 | 10.0 | 0.02 | 0.01 | 0.03 | 89 | 1014.7 |
| 20260508114702 | 60 | 154 | 4.0 | 6.0 | 0.02 | 0.01 | 0.03 | 89 | 1014.8 |
| 20260508114551 | 60 | 213 | 3.0 | 5.0 | 0.02 | 0.01 | 0.03 | 89 | 1014.6 |
| 20260508114449 | 60 | 161 | 4.0 | 5.0 | 0.02 | 0.01 | 0.03 | 89 | 1014.3 |
| 20260508114346 | 60 | 118 | 3.0 | 6.0 | 0.01 | 0.01 | 0.02 | 89 | 1014.4 |
| 20260508114245 | 60 | 138 | 3.0 | 6.0 | 0.01 | 0.01 | 0.02 | 88 | 1014.5 |
| 20260508114236 | 60 | 135 | 3.0 | 6.0 | 0.01 | 0.01 | 0.02 | 88 | 1014.5 |
| 20260508114144 | 60 | 138 | 2.0 | 6.0 | 0.01 | 0.01 | 0.02 | 88 | 1014.8 |
| 20260508114042 | 60 | 235 | 3.0 | 6.0 | 0.01 | 0.01 | 0.02 | 88 | 1015.2 |
| 20260508113941 | 60 | 235 | 3.0 | 7.0 | 0.01 | 0.01 | 0.02 | 88 | 1015.4 |
| 20260508113841 | 60 | 257 | 3.0 | 7.0 | 0.01 | 0.01 | 0.02 | 88 | 1015.4 |
| 20260508113738 | 60 | 234 | 3.0 | 9.0 | 0.01 | 0.01 | 0.02 | 88 | 1015.2 |
| 20260508113635 | 60 | 226 | 4.0 | 9.0 | 0.01 | 0.01 | 0.02 | 87 | 1015.2 |
| 20260508113534 | 60 | 231 | 4.0 | 9.0 | 0.01 | 0.01 | 0.01 | 87 | 1015.0 |
| 20260508113435 | 60 | 223 | 4.0 | 9.0 | 0.01 | 0.01 | 0.01 | 87 | 1014.8 |
| 20260508113334 | 60 | 190 | 3.0 | 9.0 | 0.01 | 0.01 | 0.01 | 87 | 1014.5 |
| 20260508113240 | 60 | 171 | 4.0 | 9.0 | 0.01 | 0.01 | 0.01 | 87 | 1014.2 |
| 20260508113234 | 60 | 173 | 4.0 | 9.0 | 0.01 | 0.01 | 0.01 | 87 | 1014.2 |
| 20260508113132 | 60 | 164 | 4.0 | 9.0 | 0.01 | 0.01 | 0.01 | 86 | 1014.1 |
| 20260508113034 | 60 | 140 | 5.0 | 9.0 | 0.01 | 0.01 | 0.01 | 86 | 1014.0 |
| 20260508112933 | 60 | 147 | 5.0 | 9.0 | 0.01 | 0.01 | 0.01 | 86 | 1014.0 |
| 20260508112835 | 60 | 147 | 5.0 | 9.0 | 0.01 | 0.01 | 0.01 | 86 | 1014.2 |
| 20260508112740 | 60 | 164 | 4.0 | 7.0 | 0.01 | 0.01 | 0.01 | 86 | 1014.4 |
| 20260508112733 | 60 | 171 | 4.0 | 7.0 | 0.01 | 0.01 | 0.01 | 86 | 1014.4 |
| 20260508112633 | 60 | 180 | 4.0 | 7.0 | 0.01 | 0.01 | 0.01 | 85 | 1014.3 |
| 20260508112533 | 60 | 199 | 4.0 | 7.0 | 0.01 | 0.01 | 0.01 | 85 | 1014.3 |
| 20260508112432 | 60 | 166 | 4.0 | 7.0 | 0.01 | 0.01 | 0.01 | 85 | 1014.3 |
| 20260508112333 | 60 | 151 | 4.0 | 7.0 | 0.01 | 0.01 | 0.01 | 85 | 1014.2 |
| 20260508112233 | 60 | 169 | 4.0 | 7.0 | 0.01 | 0.01 | 0.01 | 85 | 1014.1 |
| 20260508112130 | 60 | 171 | 4.0 | 7.0 | 0.01 | 0.01 | 0.01 | 85 | 1014.1 |
| 20260508112028 | 60 | 128 | 5.0 | 7.0 | 0.01 | 0.01 | 0.01 | 86 | 1014.0 |
| 20260508111929 | 60 | 171 | 4.0 | 7.0 | 0.01 | 0.01 | 0.01 | 86 | 1014.0 |
| 20260508111828 | 60 | 147 | 4.0 | 7.0 | 0.01 | 0.01 | 0.01 | 86 | 1014.0 |
| 20260508111736 | 60 | 142 | 4.0 | 7.0 | 0.01 | 0.01 | 0.01 | 86 | 1014.0 |
| 20260508111729 | 60 | 142 | 5.0 | 7.0 | 0.01 | 0.01 | 0.01 | 86 | 1014.0 |
| 20260508111628 | 60 | 125 | 5.0 | 6.0 | 0.01 | 0.01 | 0.01 | 86 | 1013.9 |
| 20260508111530 | 60 | 151 | 4.0 | 7.0 | 0.01 | 0.01 | 0.01 | 86 | 1014.0 |
| 20260508111428 | 60 | 151 | 4.0 | 7.0 | 0.01 | 0.01 | 0.01 | 86 | 1014.1 |
| 20260508111327 | 60 | 173 | 4.0 | 7.0 | 0.01 | 0.01 | 0.01 | 87 | 1014.1 |
| 20260508111237 | 60 | 158 | 4.0 | 7.0 | 0.01 | 0.01 | 0.01 | 87 | 1014.2 |
| 20260508111229 | 60 | 164 | 4.0 | 7.0 | 0.01 | 0.01 | 0.01 | 87 | 1014.2 |
| 20260508111126 | 60 | 152 | 3.0 | 7.0 | 0.01 | 0.01 | 0.01 | 87 | 1014.2 |
| 20260508111026 | 60 | 168 | 3.0 | 7.0 | 0.01 | 0.01 | 0.01 | 87 | 1014.3 |
| 20260508110928 | 60 | 179 | 3.0 | 7.0 | 0.01 | 0.01 | 0.01 | 87 | 1014.3 |
| 20260508110827 | 60 | 155 | 3.0 | 7.0 | 0.01 | 0.01 | 0.01 | 87 | 1014.2 |
| 20260508110727 | 60 | 195 | 3.0 | 7.0 | 0.01 | 0.01 | 0.01 | 87 | 1014.3 |
| 20260508110626 | 60 | 171 | 3.0 | 7.0 | 0.01 | 0.01 | 0.01 | 87 | 1014.3 |
| 20260508110529 | 60 | 159 | 3.0 | 7.0 | 0.01 | 0.01 | 0.01 | 87 | 1014.2 |
| 20260508110426 | 60 | 162 | 3.0 | 7.0 | 0.01 | 0.01 | 0.01 | 88 | 1014.2 |
| 20260508110328 | 61 | 118 | 3.0 | 7.0 | 0.01 | 0.01 | 0.01 | 88 | 1014.3 |
| 20260508110237 | 61 | 166 | 4.0 | 7.0 | 0.01 | 0.01 | 0.01 | 88 | 1014.2 |
| 20260508110228 | 61 | 147 | 4.0 | 7.0 | 0.01 | 0.01 | 0.01 | 88 | 1014.2 |
| 20260508110145 | 61 | 197 | 3.0 | 7.0 | 0.01 | 0.00 | 0.01 | 88 | 1014.7 |
| 20260508110133 | 61 | 123 | 3.0 | 5.0 | 0.01 | 0.01 | 0.01 | 88 | 1014.3 |
| 20260508110026 | 61 | 138 | 3.0 | 6.0 | 0.01 | 0.00 | 0.01 | 88 | 1014.5 |
| 20260508105955 | 61 | 128 | 3.0 | 7.0 | 0.01 | 0.00 | 0.01 | 88 | 1014.7 |
| 20260508105708 | 61 | 189 | 3.0 | 7.0 | 0.01 | 0.00 | 0.01 | 88 | 1014.8 |
| 20260508105605 | 61 | 161 | 3.0 | 7.0 | 0.01 | 0.00 | 0.01 | 87 | 1014.8 |
| 20260508105505 | 61 | 213 | 2.0 | 7.0 | 0.01 | 0.00 | 0.01 | 87 | 1014.9 |
| 20260508105407 | 61 | 190 | 1.0 | 9.0 | 0.01 | 0.00 | 0.01 | 87 | 1014.8 |
| 20260508105306 | 61 | 186 | 2.0 | 11.0 | 0.01 | 0.00 | 0.01 | 87 | 1014.7 |
| 20260508105205 | 61 | 186 | 3.0 | 11.0 | 0.01 | 0.00 | 0.01 | 87 | 1014.7 |
| 20260508105105 | 61 | 188 | 4.0 | 11.0 | 0.01 | 0.00 | 0.01 | 87 | 1014.7 |
| 20260508105005 | 61 | 176 | 4.0 | 11.0 | 0.01 | 0.00 | 0.01 | 87 | 1014.7 |
| 20260508104903 | 61 | 158 | 5.0 | 11.0 | 0.01 | 0.00 | 0.01 | 87 | 1014.6 |
| 20260508104803 | 61 | 186 | 5.0 | 11.0 | 0.01 | 0.00 | 0.01 | 87 | 1014.5 |
| 20260508104730 | 61 | 179 | 4.0 | 11.0 | 0.01 | 0.00 | 0.01 | 87 | 1014.5 |
| 20260508104702 | 61 | 157 | 4.0 | 11.0 | 0.01 | 0.00 | 0.01 | 87 | 1014.5 |
| 20260508104603 | 61 | 154 | 4.0 | 11.0 | 0.01 | 0.00 | 0.01 | 87 | 1014.5 |
| 20260508104502 | 61 | 131 | 5.0 | 11.0 | 0.01 | 0.00 | 0.01 | 87 | 1014.5 |
| 20260508104403 | 61 | 161 | 5.0 | 11.0 | 0.01 | 0.00 | 0.01 | 86 | 1014.6 |
| 20260508104304 | 61 | 207 | 4.0 | 7.0 | 0.01 | 0.00 | 0.01 | 86 | 1014.7 |
| 20260508104233 | 61 | 193 | 4.0 | 7.0 | 0.01 | 0.00 | 0.01 | 86 | 1014.7 |
| 20260508104202 | 61 | 183 | 4.0 | 7.0 | 0.01 | 0.00 | 0.01 | 86 | 1014.6 |
| 20260508104103 | 61 | 162 | 4.0 | 7.0 | 0.01 | 0.00 | 0.01 | 86 | 1014.5 |
| 20260508104004 | 61 | 168 | 4.0 | 7.0 | 0.01 | 0.00 | 0.01 | 86 | 1014.3 |
| 20260508103904 | 61 | 172 | 5.0 | 7.0 | 0.01 | 0.00 | 0.01 | 86 | 1014.2 |
| 20260508103802 | 61 | 158 | 4.0 | 6.0 | 0.01 | 0.00 | 0.01 | 86 | 1014.1 |
| 20260508103734 | 61 | 168 | 4.0 | 6.0 | 0.01 | 0.00 | 0.01 | 85 | 1014.1 |
| 20260508103702 | 61 | 130 | 4.0 | 5.0 | 0.01 | 0.00 | 0.01 | 85 | 1014.2 |
| 20260508103603 | 61 | 145 | 3.0 | 4.0 | 0.01 | 0.00 | 0.00 | 85 | 1014.4 |
| 20260508103504 | 61 | 148 | 2.0 | 4.0 | 0.00 | 0.00 | 0.00 | 85 | 1014.4 |
| 20260508103402 | 61 | 180 | 2.0 | 4.0 | 0.00 | 0.00 | 0.00 | 85 | 1014.5 |
| 20260508103303 | 61 | 228 | 1.0 | 4.0 | 0.00 | 0.00 | 0.00 | 85 | 1014.6 |
| 20260508103235 | 61 | 230 | 1.0 | 4.0 | 0.00 | 0.00 | 0.00 | 85 | 1014.6 |
| 20260508103202 | 61 | 230 | 1.0 | 4.0 | 0.00 | 0.00 | 0.00 | 85 | 1014.7 |
| 20260508103104 | 61 | 231 | 1.0 | 4.0 | 0.00 | 0.00 | 0.00 | 85 | 1014.7 |
| 20260508103003 | 61 | 231 | 1.0 | 4.0 | 0.00 | 0.00 | 0.00 | 85 | 1014.7 |
| 20260508102903 | 61 | 231 | 2.0 | 4.0 | 0.00 | 0.00 | 0.00 | 85 | 1014.7 |
| 20260508102802 | 62 | 252 | 1.0 | 4.0 | 0.00 | 0.00 | 0.00 | 85 | 1014.6 |
| 20260508102734 | 62 | 159 | 0.0 | 3.0 | 0.00 | 0.00 | 0.00 | 85 | 1014.6 |
| 20260508102703 | 62 | 157 | 0.0 | 3.0 | 0.00 | 0.00 | 0.00 | 85 | 1014.5 |
| 20260508102605 | 62 | 157 | 0.0 | 4.0 | 0.00 | 0.00 | 0.00 | 85 | 1014.5 |
| 20260508102503 | 62 | 157 | 0.0 | 4.0 | 0.00 | 0.00 | 0.00 | 85 | 1014.4 |
| 20260508102402 | 62 | 157 | 1.0 | 4.0 | 0.00 | 0.00 | 0.00 | 85 | 1014.4 |
| 20260508102306 | 62 | 157 | 1.0 | 4.0 | 0.00 | 0.00 | 0.00 | 85 | 1014.4 |
| 20260508102234 | 62 | 157 | 1.0 | 4.0 | 0.00 | 0.00 | 0.00 | 85 | 1014.4 |
| 20260508102203 | 62 | 157 | 2.0 | 4.0 | 0.00 | 0.00 | 0.00 | 85 | 1014.4 |
| 20260508102102 | 61 | 157 | 2.0 | 4.0 | 0.00 | 0.00 | 0.00 | 85 | 1014.4 |
| 20260508102003 | 61 | 192 | 2.0 | 4.0 | 0.00 | 0.00 | 0.00 | 84 | 1014.4 |
| 20260508101903 | 61 | 199 | 2.0 | 4.0 | 0.00 | 0.00 | 0.00 | 84 | 1014.5 |
| 20260508101802 | 61 | 199 | 2.0 | 4.0 | 0.00 | 0.00 | 0.00 | 85 | 1014.4 |
| 20260508101733 | 62 | 199 | 2.0 | 4.0 | 0.00 | 0.00 | 0.00 | 85 | 1014.4 |
| 20260508101702 | 62 | 199 | 2.0 | 4.0 | 0.00 | 0.00 | 0.00 | 85 | 1014.3 |
| 20260508101605 | 61 | 135 | 1.0 | 2.0 | 0.00 | 0.00 | 0.00 | 84 | 1014.3 |
| 20260508101504 | 61 | 128 | 0.0 | 2.0 | 0.00 | 0.00 | 0.00 | 84 | 1014.2 |
| 20260508101355 | 61 | 128 | 0.0 | 2.0 | 0.00 | 0.00 | 0.00 | 84 | 1014.1 |
| 20260508101233 | 61 | 128 | 0.0 | 2.0 | 0.00 | 0.00 | 0.00 | 84 | 1014.2 |
| 20260508101152 | 61 | 128 | 0.0 | 2.0 | 0.00 | 0.00 | 0.00 | 84 | 1014.2 |
| 20260508101052 | 61 | 128 | 0.0 | 2.0 | 0.00 | 0.00 | 0.00 | 84 | 1014.2 |
| 20260508100949 | 61 | 128 | 0.0 | 2.0 | 0.00 | 0.00 | 0.00 | 84 | 1014.2 |
| 20260508100848 | 61 | 128 | 1.0 | 2.0 | 0.00 | 0.00 | 0.00 | 84 | 1014.2 |
| 20260508100733 | 61 | 128 | 0.0 | 2.0 | 0.00 | 0.00 | 0.00 | 84 | 1014.2 |
| 20260508100644 | 61 | 128 | 0.0 | 2.0 | 0.00 | 0.00 | 0.00 | 84 | 1014.0 |
| 20260508100543 | 61 | 128 | 0.0 | 2.0 | 0.00 | 0.00 | 0.00 | 84 | 1014.0 |
| 20260508100442 | 61 | 128 | 0.0 | 2.0 | 0.00 | 0.00 | 0.00 | 84 | 1014.0 |
| 20260508100340 | 61 | 128 | 1.0 | 3.0 | 0.00 | 0.00 | 0.00 | 84 | 1014.0 |
| 20260508100232 | 61 | 128 | 1.0 | 3.0 | 0.00 | 0.00 | 0.00 | 84 | 1013.9 |
| 20260508100136 | 61 | 128 | 1.0 | 3.0 | 0.00 | 0.00 | 0.00 | 84 | 1014.0 |
| 20260508100038 | 61 | 128 | 0.0 | 3.0 | 0.00 | 0.00 | 0.00 | 84 | 1013.9 |
| 20260508095934 | 61 | 128 | 0.0 | 3.0 | 0.00 | 0.00 | 0.00 | 84 | 1013.9 |
| 20260508095833 | 61 | 128 | 0.0 | 3.0 | 0.00 | 0.00 | 0.00 | 84 | 1013.9 |
| 20260508095731 | 61 | 128 | 0.0 | 3.0 | 0.00 | 0.00 | 0.00 | 84 | 1013.7 |
| 20260508095632 | 61 | 128 | 1.0 | 3.0 | 0.00 | 0.00 | 0.00 | 84 | 1013.7 |
| 20260508095531 | 61 | 128 | 1.0 | 3.0 | 0.00 | 0.00 | 0.00 | 84 | 1013.8 |
| 20260508095432 | 61 | 128 | 1.0 | 4.0 | 0.00 | 0.00 | 0.00 | 84 | 1013.7 |
| 20260508095332 | 61 | 157 | 1.0 | 4.0 | 0.00 | 0.00 | 0.00 | 84 | 1013.8 |
| 20260508095231 | 61 | 157 | 1.0 | 4.0 | 0.00 | 0.00 | 0.00 | 84 | 1013.7 |
| 20260508095132 | 61 | 157 | 2.0 | 4.0 | 0.00 | 0.00 | 0.00 | 84 | 1013.6 |
| 20260508095032 | 61 | 157 | 2.0 | 4.0 | 0.00 | 0.00 | 0.00 | 84 | 1013.7 |
| 20260508094931 | 61 | 142 | 2.0 | 4.0 | 0.00 | 0.00 | 0.00 | 84 | 1013.7 |
| 20260508094831 | 61 | 158 | 2.0 | 4.0 | 0.00 | 0.00 | 0.00 | 84 | 1013.7 |
| 20260508094733 | 61 | 151 | 2.0 | 4.0 | 0.00 | 0.00 | 0.00 | 84 | 1013.6 |
| 20260508094632 | 61 | 175 | 2.0 | 4.0 | 0.00 | 0.00 | 0.00 | 84 | 1013.6 |
| 20260508094533 | 61 | 137 | 3.0 | 4.0 | 0.00 | 0.00 | 0.00 | 84 | 1013.6 |
| 20260508094432 | 61 | 137 | 3.0 | 4.0 | 0.00 | 0.00 | 0.00 | 84 | 1013.5 |
| 20260508094332 | 61 | 147 | 2.0 | 4.0 | 0.00 | 0.00 | 0.00 | 84 | 1013.6 |
| 20260508094232 | 61 | 148 | 2.0 | 4.0 | 0.00 | 0.00 | 0.00 | 84 | 1013.6 |
| 20260508094141 | 61 | 165 | 1.0 | 4.0 | 0.00 | 0.00 | 0.00 | 84 | 1013.7 |
| 20260508094135 | 61 | 164 | 1.0 | 3.0 | 0.00 | 0.00 | 0.00 | 84 | 1013.6 |
| 20260508094105 | 61 | 165 | 0.0 | 3.0 | 0.00 | 0.00 | 0.00 | 84 | 1013.7 |
| 20260508094037 | 61 | 165 | 0.0 | 3.0 | 0.00 | 0.00 | 0.00 | 84 | 1013.7 |
| 20260508094008 | 61 | 165 | 1.0 | 3.0 | 0.00 | 0.00 | 0.00 | 84 | 1013.7 |
| 20260508093940 | 61 | 165 | 1.0 | 4.0 | 0.00 | 0.00 | 0.00 | 84 | 1013.7 |
| 20260508093631 | 61 | 164 | 1.0 | 4.0 | 0.00 | 0.00 | 0.00 | 84 | 1013.8 |
| 20260508093531 | 61 | 162 | 1.0 | 4.0 | 0.00 | 0.00 | 0.00 | 84 | 1013.7 |
| 20260508093427 | 61 | 162 | 2.0 | 5.0 | 0.00 | 0.00 | 0.00 | 84 | 1013.7 |
| 20260508093327 | 61 | 159 | 2.0 | 5.0 | 0.00 | 0.00 | 0.00 | 84 | 1013.7 |
| 20260508093225 | 61 | 179 | 2.0 | 5.0 | 0.00 | 0.00 | 0.00 | 84 | 1013.7 |
| 20260508093124 | 61 | 172 | 2.0 | 5.0 | 0.00 | 0.00 | 0.00 | 84 | 1013.7 |
| 20260508093012 | 61 | 172 | 2.0 | 5.0 | 0.00 | 0.00 | 0.00 | 84 | 1013.8 |
| 20260508092910 | 61 | 186 | 2.0 | 5.0 | 0.00 | 0.00 | 0.00 | 84 | 1013.8 |
| 20260508092807 | 61 | 193 | 3.0 | 5.0 | 0.00 | 0.00 | 0.00 | 84 | 1013.9 |
| 20260508092730 | 61 | 159 | 3.0 | 5.0 | 0.00 | 0.00 | 0.00 | 84 | 1013.9 |
| 20260508092708 | 61 | 155 | 3.0 | 5.0 | 0.00 | 0.00 | 0.00 | 84 | 1013.8 |
| 20260508092644 | 61 | 162 | 2.0 | 4.0 | 0.00 | 0.00 | 0.00 | 83 | 1013.7 |
| 20260508092623 | 61 | 169 | 3.0 | 5.0 | 0.00 | 0.00 | 0.00 | 83 | 1013.8 |
| 20260508092554 | 61 | 176 | 3.0 | 5.0 | 0.00 | 0.00 | 0.00 | 83 | 1013.8 |
| 20260508092524 | 61 | 168 | 3.0 | 4.0 | 0.00 | 0.00 | 0.00 | 83 | 1013.7 |
| 20260508092452 | 61 | 164 | 2.0 | 4.0 | 0.00 | 0.00 | 0.00 | 83 | 1013.7 |
| 20260508092205 | 61 | 154 | 2.0 | 4.0 | 0.00 | 0.00 | 0.00 | 83 | 1013.7 |
| 20260508092059 | 61 | 152 | 2.0 | 4.0 | 0.00 | 0.00 | 0.00 | 83 | 1013.7 |
| 20260508091957 | 61 | 157 | 2.0 | 5.0 | 0.00 | 0.00 | 0.00 | 83 | 1013.7 |
| 20260508091857 | 61 | 155 | 2.0 | 5.0 | 0.00 | 0.00 | 0.00 | 83 | 1013.7 |
| 20260508091753 | 61 | 172 | 2.0 | 5.0 | 0.00 | 0.00 | 0.00 | 83 | 1013.8 |
| 20260508091726 | 61 | 175 | 2.0 | 5.0 | 0.00 | 0.00 | 0.00 | 83 | 1013.8 |
| 20260508091653 | 61 | 175 | 3.0 | 5.0 | 0.00 | 0.00 | 0.00 | 83 | 1013.8 |
| 20260508091634 | 61 | 162 | 3.0 | 5.0 | 0.00 | 0.00 | 0.00 | 83 | 1013.7 |
| 20260508091614 | 61 | 173 | 2.0 | 5.0 | 0.00 | 0.00 | 0.00 | 83 | 1013.8 |
| 20260508091543 | 61 | 154 | 2.0 | 5.0 | 0.00 | 0.00 | 0.00 | 83 | 1013.7 |
| 20260508091512 | 61 | 154 | 2.0 | 5.0 | 0.00 | 0.00 | 0.00 | 83 | 1013.7 |
| 20260508091445 | 61 | 162 | 2.0 | 5.0 | 0.00 | 0.00 | 0.00 | 83 | 1013.7 |
| 20260508091145 | 61 | 145 | 3.0 | 5.0 | 0.00 | 0.00 | 0.00 | 83 | 1013.7 |
| 20260508091125 | 61 | 190 | 2.0 | 4.0 | 0.00 | 0.00 | 0.00 | 84 | 1014.2 |
| 20260508091103 | 61 | 155 | 3.0 | 5.0 | 0.00 | 0.00 | 0.00 | 83 | 1013.6 |
| 20260508091031 | 61 | 142 | 4.0 | 5.0 | 0.00 | 0.00 | 0.00 | 83 | 1013.7 |
| 20260508090956 | 61 | 135 | 3.0 | 5.0 | 0.00 | 0.00 | 0.00 | 83 | 1013.8 |
| 20260508090929 | 61 | 125 | 3.0 | 5.0 | 0.00 | 0.00 | 0.00 | 83 | 1013.8 |
| 20260508090920 | 61 | 134 | 3.0 | 4.0 | 0.00 | 0.00 | 0.00 | 83 | 1013.8 |
| 20260508090644 | 61 | 164 | 2.0 | 4.0 | 0.00 | 0.00 | 0.00 | 83 | 1014.0 |
| 20260508090613 | 61 | 168 | 3.0 | 4.0 | 0.00 | 0.00 | 0.00 | 83 | 1014.0 |
| 20260508090543 | 61 | 169 | 2.0 | 4.0 | 0.00 | 0.00 | 0.00 | 83 | 1014.1 |
| 20260508090511 | 61 | 190 | 2.0 | 4.0 | 0.00 | 0.00 | 0.00 | 83 | 1014.1 |
| 20260508090439 | 61 | 190 | 2.0 | 4.0 | 0.00 | 0.00 | 0.00 | 83 | 1014.2 |
| 20260508090149 | 61 | 210 | 2.0 | 10.0 | 0.00 | 0.00 | 0.00 | 84 | 1014.1 |
| 20260508090138 | 61 | 219 | 2.0 | 5.0 | 0.00 | 0.00 | 0.00 | 84 | 1014.3 |
| 20260508090107 | 61 | 228 | 2.0 | 5.0 | 0.00 | 0.00 | 0.00 | 84 | 1014.2 |
| 20260508090040 | 61 | 250 | 2.0 | 9.0 | 0.00 | 0.00 | 0.00 | 84 | 1014.2 |
| 20260508090009 | 61 | 214 | 2.0 | 10.0 | 0.00 | 0.00 | 0.00 | 84 | 1014.2 |
| 20260508085937 | 61 | 214 | 2.0 | 10.0 | 0.00 | 0.00 | 0.00 | 84 | 1014.1 |
| 20260508085643 | 61 | 121 | 3.0 | 10.0 | 0.00 | 0.00 | 0.00 | 84 | 1013.7 |
| 20260508085635 | 61 | 192 | 2.0 | 10.0 | 0.00 | 0.00 | 0.00 | 84 | 1014.0 |
| 20260508085602 | 61 | 158 | 2.0 | 10.0 | 0.00 | 0.00 | 0.00 | 84 | 1013.9 |
| 20260508085536 | 61 | 158 | 3.0 | 10.0 | 0.00 | 0.00 | 0.00 | 84 | 1013.9 |
| 20260508085504 | 61 | 123 | 3.0 | 10.0 | 0.00 | 0.00 | 0.00 | 84 | 1013.7 |
| 20260508085434 | 61 | 121 | 3.0 | 10.0 | 0.00 | 0.00 | 0.00 | 84 | 1013.7 |
| 20260508085126 | 61 | 172 | 5.0 | 10.0 | 0.00 | 0.00 | 0.00 | 84 | 1013.7 |
| 20260508085026 | 61 | 106 | 6.0 | 10.0 | 0.00 | 0.00 | 0.00 | 84 | 1013.6 |
| 20260508084924 | 61 | 149 | 5.0 | 9.0 | 0.00 | 0.00 | 0.00 | 84 | 1013.7 |
| 20260508084823 | 61 | 133 | 4.0 | 9.0 | 0.00 | 0.00 | 0.00 | 84 | 1013.7 |
| 20260508084726 | 61 | 186 | 4.0 | 9.0 | 0.00 | 0.00 | 0.00 | 84 | 1013.7 |
| 20260508084722 | 61 | 154 | 4.0 | 9.0 | 0.00 | 0.00 | 0.00 | 84 | 1013.7 |
| 20260508084621 | 61 | 140 | 5.0 | 9.0 | 0.00 | 0.00 | 0.00 | 85 | 1013.5 |
| 20260508084519 | 61 | 171 | 6.0 | 9.0 | 0.00 | 0.00 | 0.00 | 85 | 1013.5 |
| 20260508084417 | 61 | 144 | 6.0 | 9.0 | 0.00 | 0.00 | 0.00 | 85 | 1013.6 |
| 20260508084314 | 61 | 144 | 5.0 | 9.0 | 0.00 | 0.00 | 0.00 | 85 | 1013.8 |
| 20260508084222 | 61 | 140 | 3.0 | 7.0 | 0.00 | 0.00 | 0.00 | 85 | 1013.8 |
| 20260508084214 | 61 | 147 | 3.0 | 7.0 | 0.00 | 0.00 | 0.00 | 85 | 1014.0 |
| 20260508084113 | 61 | 159 | 3.0 | 7.0 | 0.00 | 0.00 | 0.00 | 85 | 1014.2 |
| 20260508084011 | 61 | 172 | 4.0 | 7.0 | 0.00 | 0.00 | 0.00 | 85 | 1014.3 |
| 20260508083910 | 61 | 166 | 4.0 | 7.0 | 0.00 | 0.00 | 0.00 | 85 | 1014.3 |
| 20260508083808 | 61 | 188 | 5.0 | 7.0 | 0.00 | 0.00 | 0.00 | 84 | 1014.3 |
| 20260508083722 | 61 | 157 | 4.0 | 7.0 | 0.00 | 0.00 | 0.00 | 84 | 1014.3 |
| 20260508083708 | 61 | 178 | 4.0 | 7.0 | 0.00 | 0.00 | 0.00 | 84 | 1014.5 |
| 20260508083607 | 61 | 161 | 4.0 | 7.0 | 0.00 | 0.00 | 0.00 | 84 | 1014.7 |
| 20260508083506 | 61 | 185 | 5.0 | 7.0 | 0.00 | 0.00 | 0.00 | 84 | 1014.9 |
| 20260508083405 | 61 | 197 | 4.0 | 6.0 | 0.00 | 0.00 | 0.00 | 84 | 1014.9 |
| 20260508083306 | 61 | 196 | 4.0 | 5.0 | 0.00 | 0.00 | 0.00 | 84 | 1015.0 |
| 20260508083224 | 61 | 203 | 3.0 | 5.0 | 0.00 | 0.00 | 0.00 | 84 | 1015.0 |
| 20260508083203 | 61 | 224 | 3.0 | 5.0 | 0.00 | 0.00 | 0.00 | 84 | 1015.0 |
| 20260508083102 | 61 | 233 | 2.0 | 4.0 | 0.00 | 0.00 | 0.00 | 84 | 1015.0 |
| 20260508083001 | 61 | 240 | 3.0 | 4.0 | 0.00 | 0.00 | 0.00 | 84 | 1015.0 |
| 20260508082901 | 61 | 233 | 2.0 | 5.0 | 0.00 | 0.00 | 0.00 | 84 | 1014.8 |
| 20260508082757 | 61 | 331 | 2.0 | 5.0 | 0.00 | 0.00 | 0.00 | 84 | 1014.6 |
| 20260508082723 | 61 | 337 | 2.0 | 5.0 | 0.00 | 0.00 | 0.00 | 84 | 1014.6 |
| 20260508082657 | 61 | 337 | 1.0 | 5.0 | 0.00 | 0.00 | 0.00 | 84 | 1014.4 |
| 20260508082556 | 61 | 68 | 1.0 | 5.0 | 0.00 | 0.00 | 0.00 | 84 | 1014.3 |
| 20260508082453 | 61 | 68 | 2.0 | 5.0 | 0.00 | 0.00 | 0.00 | 85 | 1014.2 |
| 20260508082352 | 61 | 97 | 2.0 | 5.0 | 0.00 | 0.00 | 0.00 | 84 | 1014.2 |
| 20260508082247 | 61 | 134 | 3.0 | 5.0 | 0.00 | 0.00 | 0.00 | 84 | 1014.2 |
| 20260508082218 | 61 | 127 | 3.0 | 5.0 | 0.00 | 0.00 | 0.00 | 84 | 1014.2 |
| 20260508082147 | 61 | 138 | 4.0 | 5.0 | 0.00 | 0.00 | 0.00 | 84 | 1014.2 |
| 20260508082044 | 61 | 155 | 4.0 | 5.0 | 0.00 | 0.00 | 0.00 | 84 | 1014.2 |
| 20260508081942 | 61 | 140 | 3.0 | 5.0 | 0.00 | 0.00 | 0.00 | 84 | 1014.4 |
| 20260508081841 | 61 | 134 | 3.0 | 4.0 | 0.00 | 0.00 | 0.00 | 84 | 1014.5 |
| 20260508081739 | 61 | 152 | 2.0 | 4.0 | 0.00 | 0.00 | 0.00 | 84 | 1014.6 |
| 20260508081716 | 61 | 155 | 2.0 | 4.0 | 0.00 | 0.00 | 0.00 | 84 | 1014.7 |
| 20260508081639 | 61 | 157 | 2.0 | 5.0 | 0.00 | 0.00 | 0.00 | 84 | 1014.7 |
| 20260508081630 | 61 | 207 | 2.0 | 7.0 | 0.00 | 0.00 | 0.00 | 84 | 1014.8 |
| 20260508081604 | 61 | 182 | 2.0 | 6.0 | 0.00 | 0.00 | 0.00 | 84 | 1014.8 |
| 20260508081533 | 61 | 172 | 2.0 | 6.0 | 0.00 | 0.00 | 0.00 | 84 | 1014.8 |
| 20260508081504 | 61 | 204 | 2.0 | 6.0 | 0.00 | 0.00 | 0.00 | 84 | 1014.9 |
| 20260508081432 | 61 | 207 | 2.0 | 7.0 | 0.00 | 0.00 | 0.00 | 84 | 1014.9 |
| 20260508081129 | 61 | 196 | 2.0 | 7.0 | 0.00 | 0.00 | 0.00 | 84 | 1014.8 |
| 20260508081029 | 61 | 206 | 3.0 | 7.0 | 0.00 | 0.00 | 0.00 | 84 | 1014.8 |
| 20260508080927 | 61 | 212 | 3.0 | 7.0 | 0.00 | 0.00 | 0.00 | 84 | 1014.7 |
| 20260508080826 | 61 | 186 | 3.0 | 9.0 | 0.00 | 0.00 | 0.00 | 84 | 1014.6 |
| 20260508080726 | 61 | 212 | 3.0 | 9.0 | 0.00 | 0.00 | 0.00 | 83 | 1014.4 |
| 20260508080716 | 61 | 207 | 3.0 | 9.0 | 0.00 | 0.00 | 0.00 | 83 | 1014.3 |
| 20260508080623 | 61 | 155 | 4.0 | 9.0 | 0.00 | 0.00 | 0.00 | 83 | 1014.3 |
| 20260508080524 | 61 | 161 | 4.0 | 9.0 | 0.00 | 0.00 | 0.00 | 83 | 1014.1 |
| 20260508080423 | 61 | 171 | 5.0 | 9.0 | 0.00 | 0.00 | 0.00 | 83 | 1014.0 |
| 20260508080323 | 61 | 162 | 5.0 | 9.0 | 0.00 | 0.00 | 0.00 | 83 | 1014.1 |
| 20260508080223 | 61 | 121 | 5.0 | 9.0 | 0.00 | 0.00 | 0.00 | 83 | 1014.2 |
| 20260508080215 | 61 | 157 | 5.0 | 9.0 | 0.00 | 0.00 | 0.00 | 83 | 1014.3 |
| 20260508080123 | 61 | 140 | 5.0 | 9.0 | 0.00 | 0.00 | 0.00 | 83 | 1014.3 |
| 20260508080023 | 61 | 149 | 5.0 | 9.0 | 0.00 | 0.00 | 0.00 | 83 | 1014.4 |
| 20260508075921 | 61 | 130 | 4.0 | 6.0 | 0.00 | 0.00 | 0.00 | 83 | 1014.5 |
| 20260508075820 | 61 | 128 | 4.0 | 5.0 | 0.00 | 0.00 | 0.00 | 83 | 1014.7 |
| 20260508075716 | 61 | 151 | 2.0 | 4.0 | 0.00 | 0.00 | 0.00 | 82 | 1014.8 |
| 20260508075616 | 61 | 154 | 2.0 | 4.0 | 0.00 | 0.00 | 0.00 | 82 | 1014.8 |
| 20260508075513 | 61 | 158 | 2.0 | 4.0 | 0.00 | 0.00 | 0.00 | 82 | 1014.9 |
| 20260508075410 | 61 | 162 | 2.0 | 4.0 | 0.00 | 0.00 | 0.00 | 82 | 1015.0 |
| 20260508075310 | 61 | 185 | 2.0 | 4.0 | 0.00 | 0.00 | 0.00 | 82 | 1015.2 |
| 20260508075209 | 61 | 190 | 2.0 | 4.0 | 0.00 | 0.00 | 0.00 | 82 | 1015.4 |
| 20260508075127 | 61 | 117 | 0.0 | 0.0 | 0.00 | 0.00 | 0.00 | 82 | 1015.6 |
| 20260508075114 | 61 | 190 | 2.0 | 4.0 | 0.00 | 0.00 | 0.00 | 82 | 1015.5 |
| 20260508075044 | 61 | 188 | 2.0 | 3.0 | 0.00 | 0.00 | 0.00 | 82 | 1015.5 |
| 20260508075013 | 61 | 188 | 1.0 | 2.0 | 0.00 | 0.00 | 0.00 | 82 | 1015.5 |
| 20260508074945 | 61 | 117 | 0.0 | 0.0 | 0.00 | 0.00 | 0.00 | 82 | 1015.6 |
| 20260508074704 | 61 | 117 | 0.0 | 0.0 | 0.00 | 0.00 | 0.00 | 82 | 1015.6 |
| 20260508074605 | 61 | 117 | 0.0 | 0.0 | 0.00 | 0.00 | 0.00 | 82 | 1015.5 |
| 20260508074505 | 61 | 117 | 0.0 | 0.0 | 0.00 | 0.00 | 0.00 | 82 | 1015.5 |
| 20260508074405 | 61 | 117 | 0.0 | 0.0 | 0.00 | 0.00 | 0.00 | 82 | 1015.4 |
| 20260508074304 | 61 | 117 | 0.0 | 0.0 | 0.00 | 0.00 | 0.00 | 82 | 1015.4 |
| 20260508074204 | 61 | 117 | 0.0 | 0.0 | 0.00 | 0.00 | 0.00 | 82 | 1015.5 |
| 20260508074105 | 61 | 117 | 0.0 | 0.0 | 0.00 | 0.00 | 0.00 | 82 | 1015.5 |
| 20260508074006 | 61 | 117 | 0.0 | 0.0 | 0.00 | 0.00 | 0.00 | 81 | 1015.4 |
| 20260508073905 | 61 | 117 | 0.0 | 0.0 | 0.00 | 0.00 | 0.00 | 81 | 1015.4 |
| 20260508073802 | 61 | 117 | 0.0 | 0.0 | 0.00 | 0.00 | 0.00 | 81 | 1015.3 |
| 20260508073711 | 61 | 117 | 0.0 | 0.0 | 0.00 | 0.00 | 0.00 | 81 | 1015.3 |
| 20260508073701 | 61 | 117 | 0.0 | 0.0 | 0.00 | 0.00 | 0.00 | 81 | 1015.3 |
| 20260508073600 | 61 | 117 | 0.0 | 0.0 | 0.00 | 0.00 | 0.00 | 81 | 1015.3 |
| 20260508073458 | 61 | 117 | 0.0 | 0.0 | 0.00 | 0.00 | 0.00 | 81 | 1015.3 |
| 20260508073343 | 61 | 117 | 0.0 | 0.0 | 0.00 | 0.00 | 0.00 | 81 | 1015.5 |
| 20260508073210 | 61 | 117 | 0.0 | 0.0 | 0.00 | 0.00 | 0.00 | 81 | 1015.6 |
| 20260508073131 | 61 | 117 | 0.0 | 0.0 | 0.00 | 0.00 | 0.00 | 81 | 1015.6 |
| 20260508073032 | 61 | 106 | 0.0 | 0.0 | 0.00 | 0.00 | 0.00 | 81 | 1015.6 |
| 20260508072932 | 61 | 106 | 0.0 | 0.0 | 0.00 | 0.00 | 0.00 | 81 | 1015.7 |
| 20260508072830 | 61 | 106 | 0.0 | 0.0 | 0.00 | 0.00 | 0.00 | 80 | 1015.6 |
| 20260508072732 | 61 | 104 | 0.0 | 0.0 | 0.00 | 0.00 | 0.00 | 80 | 1015.5 |
| 20260508072708 | 61 | 106 | 0.0 | 0.0 | 0.00 | 0.00 | 0.00 | 80 | 1015.4 |
| 20260508072630 | 61 | 104 | 0.0 | 0.0 | 0.00 | 0.00 | 0.00 | 81 | 1015.4 |
| 20260508072526 | 61 | 104 | 0.0 | 0.0 | 0.00 | 0.00 | 0.00 | 81 | 1015.3 |
| 20260508072424 | 61 | 104 | 0.0 | 0.0 | 0.00 | 0.00 | 0.00 | 80 | 1015.1 |
| 20260508072323 | 61 | 104 | 0.0 | 0.0 | 0.00 | 0.00 | 0.00 | 80 | 1015.1 |
| 20260508072210 | 61 | 104 | 0.0 | 0.0 | 0.00 | 0.00 | 0.00 | 81 | 1015.0 |
| 20260508072120 | 61 | 104 | 0.0 | 0.0 | 0.00 | 0.00 | 0.00 | 81 | 1015.0 |
| 20260508072021 | 61 | 104 | 0.0 | 0.0 | 0.00 | 0.00 | 0.00 | 81 | 1014.9 |
| 20260508071921 | 61 | 104 | 0.0 | 0.0 | 0.00 | 0.00 | 0.00 | 81 | 1014.9 |
| 20260508071819 | 61 | 104 | 0.0 | 0.0 | 0.00 | 0.00 | 0.00 | 81 | 1015.1 |
| 20260508071719 | 61 | 104 | 0.0 | 0.0 | 0.00 | 0.00 | 0.00 | 81 | 1015.1 |
| 20260508071708 | 61 | 104 | 0.0 | 0.0 | 0.00 | 0.00 | 0.00 | 81 | 1015.0 |
| 20260508071621 | 61 | 104 | 0.0 | 0.0 | 0.00 | 0.00 | 0.00 | 81 | 1015.0 |
| 20260508071521 | 61 | 104 | 0.0 | 0.0 | 0.00 | 0.00 | 0.00 | 81 | 1015.0 |
| 20260508071420 | 61 | 104 | 0.0 | 1.0 | 0.00 | 0.00 | 0.00 | 81 | 1015.0 |
| 20260508071320 | 61 | 104 | 0.0 | 2.0 | 0.00 | 0.00 | 0.00 | 81 | 1014.9 |
| 20260508071208 | 61 | 104 | 0.0 | 2.0 | 0.00 | 0.00 | 0.00 | 81 | 1015.0 |
| 20260508071121 | 61 | 106 | 0.0 | 2.0 | 0.00 | 0.00 | 0.00 | 81 | 1015.0 |
| 20260508071019 | 61 | 106 | 0.0 | 2.0 | 0.00 | 0.00 | 0.00 | 81 | 1015.0 |
| 20260508070920 | 61 | 106 | 0.0 | 2.0 | 0.00 | 0.00 | 0.00 | 81 | 1015.1 |
| 20260508070819 | 61 | 106 | 0.0 | 2.0 | 0.00 | 0.00 | 0.00 | 81 | 1015.2 |
| 20260508070720 | 61 | 106 | 0.0 | 2.0 | 0.00 | 0.00 | 0.00 | 81 | 1015.3 |
| 20260508070706 | 61 | 106 | 0.0 | 2.0 | 0.00 | 0.00 | 0.00 | 82 | 1015.3 |
| 20260508070620 | 61 | 106 | 0.0 | 2.0 | 0.00 | 0.00 | 0.00 | 82 | 1015.3 |
| 20260508070519 | 61 | 106 | 1.0 | 2.0 | 0.00 | 0.00 | 0.00 | 82 | 1015.3 |
| 20260508070419 | 61 | 106 | 0.0 | 2.0 | 0.00 | 0.00 | 0.00 | 82 | 1015.2 |
| 20260508070321 | 61 | 106 | 0.0 | 2.0 | 0.00 | 0.00 | 0.00 | 82 | 1015.2 |
| 20260508070208 | 61 | 106 | 1.0 | 2.0 | 0.00 | 0.00 | 0.00 | 82 | 1015.3 |
| 20260508070121 | 61 | 106 | 1.0 | 2.0 | 0.00 | 0.00 | 0.00 | 82 | 1015.3 |
| 20260508070021 | 61 | 106 | 1.0 | 2.0 | 0.00 | 0.00 | 0.00 | 82 | 1015.3 |
| 20260508065920 | 61 | 106 | 0.0 | 2.0 | 0.00 | 0.00 | 0.00 | 82 | 1015.4 |
| 20260508065820 | 61 | 106 | 0.0 | 2.0 | 0.00 | 0.00 | 0.00 | 81 | 1015.4 |
| 20260508065718 | 61 | 107 | 1.0 | 2.0 | 0.00 | 0.00 | 0.00 | 82 | 1015.4 |
| 20260508065704 | 61 | 107 | 1.0 | 3.0 | 0.00 | 0.00 | 0.00 | 82 | 1015.4 |
| 20260508065607 | 61 | 110 | 1.0 | 3.0 | 0.00 | 0.00 | 0.00 | 82 | 1015.4 |
| 20260508065506 | 61 | 110 | 1.0 | 3.0 | 0.00 | 0.00 | 0.00 | 82 | 1015.4 |
| 20260508065405 | 61 | 110 | 1.0 | 4.0 | 0.00 | 0.00 | 0.00 | 82 | 1015.4 |
| 20260508065307 | 61 | 114 | 1.0 | 4.0 | 0.00 | 0.00 | 0.00 | 82 | 1015.4 |
| 20260508065203 | 60 | 114 | 1.0 | 4.0 | 0.00 | 0.00 | 0.00 | 82 | 1015.4 |
| 20260508065105 | 60 | 124 | 1.0 | 4.0 | 0.00 | 0.00 | 0.00 | 82 | 1015.4 |
| 20260508065002 | 60 | 125 | 1.0 | 4.0 | 0.00 | 0.00 | 0.00 | 82 | 1015.3 |
| 20260508064901 | 60 | 124 | 2.0 | 4.0 | 0.00 | 0.00 | 0.00 | 82 | 1015.4 |
| 20260508064759 | 60 | 118 | 2.0 | 4.0 | 0.00 | 0.00 | 0.00 | 82 | 1015.4 |
| 20260508064705 | 60 | 120 | 2.0 | 4.0 | 0.00 | 0.00 | 0.00 | 82 | 1015.4 |
| 20260508064656 | 60 | 120 | 2.0 | 4.0 | 0.00 | 0.00 | 0.00 | 82 | 1015.4 |